<?xml version="1.0" encoding="UTF-8" standalone="no" ?>
<gpx xmlns="http://www.topografix.com/GPX/1/1" xmlns:xsi="http://www.w3.org/2001/XMLSchema-instance" xsi:schemaLocation="http://www.topografix.com/GPX/1/1 http://www.topografix.com/GPX/1/1/gpx.xsd" version="1.1" creator="VisuGPX - https://www.visugpx.com">
  <metadata>
    <name>Argental pierre des 3 eveques</name>
    <desc><![CDATA[File with points/tracks from Locus Map/3.48.2]]></desc>
  </metadata>
  <trk>
    <name><![CDATA[2020-09-19 09:11:31]]></name>
    <extensions>
      <line xmlns="http://www.topografix.com/GPX/gpx_style/0/2">
        <color>0000FF</color>
        <opacity>0.59</opacity>
        <width>6.0</width>
      </line>
    </extensions>
    <trkseg>
      <trkpt lat="45.30376" lon="4.54068">
        <ele>696.47</ele>
        <time>2020-09-19T07:11:31.000Z</time>
      </trkpt>
      <trkpt lat="45.30375" lon="4.54066">
        <ele>696.32</ele>
        <time>2020-09-19T07:12:02.000Z</time>
      </trkpt>
      <trkpt lat="45.30373" lon="4.54068">
        <ele>696.06</ele>
        <time>2020-09-19T07:12:24.000Z</time>
      </trkpt>
      <trkpt lat="45.3037" lon="4.54073">
        <ele>695.92</ele>
        <time>2020-09-19T07:12:34.000Z</time>
      </trkpt>
      <trkpt lat="45.30368" lon="4.54071">
        <ele>695.51</ele>
        <time>2020-09-19T07:13:00.000Z</time>
      </trkpt>
      <trkpt lat="45.3037" lon="4.5407">
        <ele>695.61</ele>
        <time>2020-09-19T07:13:52.000Z</time>
      </trkpt>
      <trkpt lat="45.30375" lon="4.54066">
        <ele>695.53</ele>
        <time>2020-09-19T07:14:02.000Z</time>
      </trkpt>
      <trkpt lat="45.30378" lon="4.54068">
        <ele>696.86</ele>
        <time>2020-09-19T07:14:19.000Z</time>
      </trkpt>
      <trkpt lat="45.30382" lon="4.54082">
        <ele>698.63</ele>
        <time>2020-09-19T07:14:29.000Z</time>
      </trkpt>
      <trkpt lat="45.30387" lon="4.54098">
        <ele>699.68</ele>
        <time>2020-09-19T07:14:39.000Z</time>
      </trkpt>
      <trkpt lat="45.3039" lon="4.54102">
        <ele>700.09</ele>
        <time>2020-09-19T07:14:49.000Z</time>
      </trkpt>
      <trkpt lat="45.30391" lon="4.54104">
        <ele>700.1</ele>
        <time>2020-09-19T07:14:59.000Z</time>
      </trkpt>
      <trkpt lat="45.30392" lon="4.54108">
        <ele>700.89</ele>
        <time>2020-09-19T07:15:08.492Z</time>
      </trkpt>
      <trkpt lat="45.30396" lon="4.54119">
        <ele>702.25</ele>
        <time>2020-09-19T07:15:17.789Z</time>
      </trkpt>
      <trkpt lat="45.30401" lon="4.5411">
        <ele>704.23</ele>
        <time>2020-09-19T07:15:28.008Z</time>
      </trkpt>
      <trkpt lat="45.30399" lon="4.54104">
        <ele>705.44</ele>
        <time>2020-09-19T07:15:38.000Z</time>
      </trkpt>
      <trkpt lat="45.30401" lon="4.54103">
        <ele>706.02</ele>
        <time>2020-09-19T07:15:47.568Z</time>
      </trkpt>
      <trkpt lat="45.30406" lon="4.54104">
        <ele>707.73</ele>
        <time>2020-09-19T07:15:56.979Z</time>
      </trkpt>
      <trkpt lat="45.3041" lon="4.54109">
        <ele>709.79</ele>
        <time>2020-09-19T07:16:06.518Z</time>
      </trkpt>
      <trkpt lat="45.30416" lon="4.54112">
        <ele>712.07</ele>
        <time>2020-09-19T07:16:15.861Z</time>
      </trkpt>
      <trkpt lat="45.30421" lon="4.54117">
        <ele>713.94</ele>
        <time>2020-09-19T07:16:25.000Z</time>
      </trkpt>
      <trkpt lat="45.30426" lon="4.54113">
        <ele>714.91</ele>
        <time>2020-09-19T07:16:35.594Z</time>
      </trkpt>
      <trkpt lat="45.30425" lon="4.54101">
        <ele>716.41</ele>
        <time>2020-09-19T07:16:45.574Z</time>
      </trkpt>
      <trkpt lat="45.30425" lon="4.54097">
        <ele>717.54</ele>
        <time>2020-09-19T07:16:54.831Z</time>
      </trkpt>
      <trkpt lat="45.30423" lon="4.54092">
        <ele>719.32</ele>
        <time>2020-09-19T07:17:04.633Z</time>
      </trkpt>
      <trkpt lat="45.3042" lon="4.54086">
        <ele>720.96</ele>
        <time>2020-09-19T07:17:14.000Z</time>
      </trkpt>
      <trkpt lat="45.30422" lon="4.54084">
        <ele>721.91</ele>
        <time>2020-09-19T07:17:23.710Z</time>
      </trkpt>
      <trkpt lat="45.30426" lon="4.54082">
        <ele>723.35</ele>
        <time>2020-09-19T07:17:32.860Z</time>
      </trkpt>
      <trkpt lat="45.30426" lon="4.54075">
        <ele>725.24</ele>
        <time>2020-09-19T07:17:42.595Z</time>
      </trkpt>
      <trkpt lat="45.30426" lon="4.54067">
        <ele>726.79</ele>
        <time>2020-09-19T07:17:52.273Z</time>
      </trkpt>
      <trkpt lat="45.30428" lon="4.54059">
        <ele>728.46</ele>
        <time>2020-09-19T07:18:01.773Z</time>
      </trkpt>
      <trkpt lat="45.3043" lon="4.54051">
        <ele>729.9</ele>
        <time>2020-09-19T07:18:11.000Z</time>
      </trkpt>
      <trkpt lat="45.30427" lon="4.54047">
        <ele>730.82</ele>
        <time>2020-09-19T07:18:21.107Z</time>
      </trkpt>
      <trkpt lat="45.30429" lon="4.54045">
        <ele>732.01</ele>
        <time>2020-09-19T07:18:38.000Z</time>
      </trkpt>
      <trkpt lat="45.30433" lon="4.54038">
        <ele>733.82</ele>
        <time>2020-09-19T07:18:47.707Z</time>
      </trkpt>
      <trkpt lat="45.30438" lon="4.54039">
        <ele>735.99</ele>
        <time>2020-09-19T07:18:56.968Z</time>
      </trkpt>
      <trkpt lat="45.30441" lon="4.54039">
        <ele>737.04</ele>
        <time>2020-09-19T07:19:06.718Z</time>
      </trkpt>
      <trkpt lat="45.30443" lon="4.54034">
        <ele>738.53</ele>
        <time>2020-09-19T07:19:16.317Z</time>
      </trkpt>
      <trkpt lat="45.30447" lon="4.54028">
        <ele>741.07</ele>
        <time>2020-09-19T07:19:25.773Z</time>
      </trkpt>
      <trkpt lat="45.3045" lon="4.54026">
        <ele>743.53</ele>
        <time>2020-09-19T07:19:35.516Z</time>
      </trkpt>
      <trkpt lat="45.30452" lon="4.54035">
        <ele>744.97</ele>
        <time>2020-09-19T07:19:44.550Z</time>
      </trkpt>
      <trkpt lat="45.30456" lon="4.54042">
        <ele>746.66</ele>
        <time>2020-09-19T07:19:53.554Z</time>
      </trkpt>
      <trkpt lat="45.3046" lon="4.54044">
        <ele>748.7</ele>
        <time>2020-09-19T07:20:03.571Z</time>
      </trkpt>
      <trkpt lat="45.30463" lon="4.54045">
        <ele>750.4</ele>
        <time>2020-09-19T07:20:13.228Z</time>
      </trkpt>
      <trkpt lat="45.30464" lon="4.54038">
        <ele>751.94</ele>
        <time>2020-09-19T07:20:22.999Z</time>
      </trkpt>
      <trkpt lat="45.30467" lon="4.54032">
        <ele>753.42</ele>
        <time>2020-09-19T07:20:32.754Z</time>
      </trkpt>
      <trkpt lat="45.30473" lon="4.54032">
        <ele>755.52</ele>
        <time>2020-09-19T07:20:41.977Z</time>
      </trkpt>
      <trkpt lat="45.30475" lon="4.5403">
        <ele>756.76</ele>
        <time>2020-09-19T07:20:51.894Z</time>
      </trkpt>
      <trkpt lat="45.30477" lon="4.54031">
        <ele>758.92</ele>
        <time>2020-09-19T07:21:01.513Z</time>
      </trkpt>
      <trkpt lat="45.30481" lon="4.54029">
        <ele>760.84</ele>
        <time>2020-09-19T07:21:11.832Z</time>
      </trkpt>
      <trkpt lat="45.30484" lon="4.54016">
        <ele>762.42</ele>
        <time>2020-09-19T07:21:21.994Z</time>
      </trkpt>
      <trkpt lat="45.30489" lon="4.54017">
        <ele>763.34</ele>
        <time>2020-09-19T07:21:30.999Z</time>
      </trkpt>
      <trkpt lat="45.3049" lon="4.54014">
        <ele>764.08</ele>
        <time>2020-09-19T07:21:50.349Z</time>
      </trkpt>
      <trkpt lat="45.30494" lon="4.54006">
        <ele>764.36</ele>
        <time>2020-09-19T07:21:59.490Z</time>
      </trkpt>
      <trkpt lat="45.30498" lon="4.53998">
        <ele>765.4</ele>
        <time>2020-09-19T07:22:08.567Z</time>
      </trkpt>
      <trkpt lat="45.30501" lon="4.5399">
        <ele>766.58</ele>
        <time>2020-09-19T07:22:18.526Z</time>
      </trkpt>
      <trkpt lat="45.30503" lon="4.53982">
        <ele>768.56</ele>
        <time>2020-09-19T07:22:27.618Z</time>
      </trkpt>
      <trkpt lat="45.30504" lon="4.53971">
        <ele>769.23</ele>
        <time>2020-09-19T07:22:36.716Z</time>
      </trkpt>
      <trkpt lat="45.30507" lon="4.53965">
        <ele>770.59</ele>
        <time>2020-09-19T07:22:45.817Z</time>
      </trkpt>
      <trkpt lat="45.30512" lon="4.53965">
        <ele>770.77</ele>
        <time>2020-09-19T07:22:54.999Z</time>
      </trkpt>
      <trkpt lat="45.30511" lon="4.53967">
        <ele>770.93</ele>
        <time>2020-09-19T07:23:05.999Z</time>
      </trkpt>
      <trkpt lat="45.30509" lon="4.53965">
        <ele>770.81</ele>
        <time>2020-09-19T07:23:15.310Z</time>
      </trkpt>
      <trkpt lat="45.3051" lon="4.53963">
        <ele>770.75</ele>
        <time>2020-09-19T07:23:24.432Z</time>
      </trkpt>
      <trkpt lat="45.30512" lon="4.5395">
        <ele>771.6</ele>
        <time>2020-09-19T07:23:34.651Z</time>
      </trkpt>
      <trkpt lat="45.30507" lon="4.53942">
        <ele>772.18</ele>
        <time>2020-09-19T07:23:43.999Z</time>
      </trkpt>
      <trkpt lat="45.30502" lon="4.53937">
        <ele>772.01</ele>
        <time>2020-09-19T07:23:53.009Z</time>
      </trkpt>
      <trkpt lat="45.305" lon="4.53937">
        <ele>772.4</ele>
        <time>2020-09-19T07:24:12.233Z</time>
      </trkpt>
      <trkpt lat="45.30496" lon="4.53938">
        <ele>772.57</ele>
        <time>2020-09-19T07:24:21.999Z</time>
      </trkpt>
      <trkpt lat="45.30496" lon="4.53936">
        <ele>772.45</ele>
        <time>2020-09-19T07:25:38.999Z</time>
      </trkpt>
      <trkpt lat="45.30498" lon="4.53933">
        <ele>772.88</ele>
        <time>2020-09-19T07:25:48.999Z</time>
      </trkpt>
      <trkpt lat="45.30499" lon="4.53931">
        <ele>773.33</ele>
        <time>2020-09-19T07:26:03.999Z</time>
      </trkpt>
      <trkpt lat="45.30501" lon="4.53931">
        <ele>773.09</ele>
        <time>2020-09-19T07:26:35.999Z</time>
      </trkpt>
      <trkpt lat="45.30502" lon="4.53929">
        <ele>772.7</ele>
        <time>2020-09-19T07:26:58.669Z</time>
      </trkpt>
      <trkpt lat="45.30502" lon="4.53926">
        <ele>772</ele>
        <time>2020-09-19T07:27:10.999Z</time>
      </trkpt>
      <trkpt lat="45.305" lon="4.53925">
        <ele>772.17</ele>
        <time>2020-09-19T07:27:22.516Z</time>
      </trkpt>
      <trkpt lat="45.30499" lon="4.53924">
        <ele>772.42</ele>
        <time>2020-09-19T07:27:43.999Z</time>
      </trkpt>
      <trkpt lat="45.30497" lon="4.53923">
        <ele>771.21</ele>
        <time>2020-09-19T07:28:01.192Z</time>
      </trkpt>
      <trkpt lat="45.30496" lon="4.53921">
        <ele>772.13</ele>
        <time>2020-09-19T07:28:10.999Z</time>
      </trkpt>
      <trkpt lat="45.30498" lon="4.53923">
        <ele>772.78</ele>
        <time>2020-09-19T07:28:51.386Z</time>
      </trkpt>
      <trkpt lat="45.30508" lon="4.53919">
        <ele>773.44</ele>
        <time>2020-09-19T07:29:00.646Z</time>
      </trkpt>
      <trkpt lat="45.30513" lon="4.53905">
        <ele>774.48</ele>
        <time>2020-09-19T07:29:09.739Z</time>
      </trkpt>
      <trkpt lat="45.30519" lon="4.53888">
        <ele>774.14</ele>
        <time>2020-09-19T07:29:19.094Z</time>
      </trkpt>
      <trkpt lat="45.30525" lon="4.53875">
        <ele>773.36</ele>
        <time>2020-09-19T07:29:28.657Z</time>
      </trkpt>
      <trkpt lat="45.30531" lon="4.53858">
        <ele>771.94</ele>
        <time>2020-09-19T07:29:38.535Z</time>
      </trkpt>
      <trkpt lat="45.30531" lon="4.53841">
        <ele>772.71</ele>
        <time>2020-09-19T07:29:47.774Z</time>
      </trkpt>
      <trkpt lat="45.30534" lon="4.53826">
        <ele>773.38</ele>
        <time>2020-09-19T07:29:56.972Z</time>
      </trkpt>
      <trkpt lat="45.30535" lon="4.5381">
        <ele>774.99</ele>
        <time>2020-09-19T07:30:06.791Z</time>
      </trkpt>
      <trkpt lat="45.30539" lon="4.53797">
        <ele>776.46</ele>
        <time>2020-09-19T07:30:15.948Z</time>
      </trkpt>
      <trkpt lat="45.30548" lon="4.53793">
        <ele>776.83</ele>
        <time>2020-09-19T07:30:25.827Z</time>
      </trkpt>
      <trkpt lat="45.3056" lon="4.53788">
        <ele>776.9</ele>
        <time>2020-09-19T07:30:35.450Z</time>
      </trkpt>
      <trkpt lat="45.30568" lon="4.53779">
        <ele>777.39</ele>
        <time>2020-09-19T07:30:44.877Z</time>
      </trkpt>
      <trkpt lat="45.30575" lon="4.53773">
        <ele>778.11</ele>
        <time>2020-09-19T07:30:54.253Z</time>
      </trkpt>
      <trkpt lat="45.30578" lon="4.53768">
        <ele>778.09</ele>
        <time>2020-09-19T07:31:04.146Z</time>
      </trkpt>
      <trkpt lat="45.30581" lon="4.53761">
        <ele>777.81</ele>
        <time>2020-09-19T07:31:13.931Z</time>
      </trkpt>
      <trkpt lat="45.30583" lon="4.53756">
        <ele>777.94</ele>
        <time>2020-09-19T07:31:23.711Z</time>
      </trkpt>
      <trkpt lat="45.30586" lon="4.5375">
        <ele>778.48</ele>
        <time>2020-09-19T07:31:32.908Z</time>
      </trkpt>
      <trkpt lat="45.3059" lon="4.53754">
        <ele>778.84</ele>
        <time>2020-09-19T07:31:42.307Z</time>
      </trkpt>
      <trkpt lat="45.30592" lon="4.53754">
        <ele>779.06</ele>
        <time>2020-09-19T07:31:52.687Z</time>
      </trkpt>
      <trkpt lat="45.30594" lon="4.53745">
        <ele>779.95</ele>
        <time>2020-09-19T07:32:01.840Z</time>
      </trkpt>
      <trkpt lat="45.30595" lon="4.53738">
        <ele>780.33</ele>
        <time>2020-09-19T07:32:10.886Z</time>
      </trkpt>
      <trkpt lat="45.30594" lon="4.53728">
        <ele>780.87</ele>
        <time>2020-09-19T07:32:19.916Z</time>
      </trkpt>
      <trkpt lat="45.30596" lon="4.5372">
        <ele>781.36</ele>
        <time>2020-09-19T07:32:29.015Z</time>
      </trkpt>
      <trkpt lat="45.30603" lon="4.53711">
        <ele>781.9</ele>
        <time>2020-09-19T07:32:38.336Z</time>
      </trkpt>
      <trkpt lat="45.30613" lon="4.53699">
        <ele>781.89</ele>
        <time>2020-09-19T07:32:47.815Z</time>
      </trkpt>
      <trkpt lat="45.30622" lon="4.53686">
        <ele>782.48</ele>
        <time>2020-09-19T07:32:57.353Z</time>
      </trkpt>
      <trkpt lat="45.30626" lon="4.53676">
        <ele>784.29</ele>
        <time>2020-09-19T07:33:06.692Z</time>
      </trkpt>
      <trkpt lat="45.30634" lon="4.53665">
        <ele>785.48</ele>
        <time>2020-09-19T07:33:16.792Z</time>
      </trkpt>
      <trkpt lat="45.30641" lon="4.53651">
        <ele>786.17</ele>
        <time>2020-09-19T07:33:27.008Z</time>
      </trkpt>
      <trkpt lat="45.30646" lon="4.53633">
        <ele>787.09</ele>
        <time>2020-09-19T07:33:37.888Z</time>
      </trkpt>
      <trkpt lat="45.30651" lon="4.53623">
        <ele>787.78</ele>
        <time>2020-09-19T07:33:47.948Z</time>
      </trkpt>
      <trkpt lat="45.30656" lon="4.53615">
        <ele>787.7</ele>
        <time>2020-09-19T07:33:57.310Z</time>
      </trkpt>
      <trkpt lat="45.30662" lon="4.53603">
        <ele>787.77</ele>
        <time>2020-09-19T07:34:06.411Z</time>
      </trkpt>
      <trkpt lat="45.30667" lon="4.53586">
        <ele>787.65</ele>
        <time>2020-09-19T07:34:15.432Z</time>
      </trkpt>
      <trkpt lat="45.30675" lon="4.53572">
        <ele>788.3</ele>
        <time>2020-09-19T07:34:24.570Z</time>
      </trkpt>
      <trkpt lat="45.30683" lon="4.53564">
        <ele>789.03</ele>
        <time>2020-09-19T07:34:34.097Z</time>
      </trkpt>
      <trkpt lat="45.3069" lon="4.53556">
        <ele>789.96</ele>
        <time>2020-09-19T07:34:43.657Z</time>
      </trkpt>
      <trkpt lat="45.30699" lon="4.53553">
        <ele>789.75</ele>
        <time>2020-09-19T07:34:53.773Z</time>
      </trkpt>
      <trkpt lat="45.30707" lon="4.53548">
        <ele>789.4</ele>
        <time>2020-09-19T07:35:02.893Z</time>
      </trkpt>
      <trkpt lat="45.30714" lon="4.53545">
        <ele>789.72</ele>
        <time>2020-09-19T07:35:12.291Z</time>
      </trkpt>
      <trkpt lat="45.30719" lon="4.53538">
        <ele>789.15</ele>
        <time>2020-09-19T07:35:21.891Z</time>
      </trkpt>
      <trkpt lat="45.30724" lon="4.53533">
        <ele>789.49</ele>
        <time>2020-09-19T07:35:31.430Z</time>
      </trkpt>
      <trkpt lat="45.3073" lon="4.53527">
        <ele>789.72</ele>
        <time>2020-09-19T07:35:40.831Z</time>
      </trkpt>
      <trkpt lat="45.30735" lon="4.53521">
        <ele>790.07</ele>
        <time>2020-09-19T07:35:49.861Z</time>
      </trkpt>
      <trkpt lat="45.30738" lon="4.53517">
        <ele>790.24</ele>
        <time>2020-09-19T07:35:58.966Z</time>
      </trkpt>
      <trkpt lat="45.3074" lon="4.53515">
        <ele>790.85</ele>
        <time>2020-09-19T07:36:08.609Z</time>
      </trkpt>
      <trkpt lat="45.30744" lon="4.53513">
        <ele>791.19</ele>
        <time>2020-09-19T07:36:18.878Z</time>
      </trkpt>
      <trkpt lat="45.3075" lon="4.53508">
        <ele>791.46</ele>
        <time>2020-09-19T07:36:28.395Z</time>
      </trkpt>
      <trkpt lat="45.30757" lon="4.53499">
        <ele>792.26</ele>
        <time>2020-09-19T07:36:37.915Z</time>
      </trkpt>
      <trkpt lat="45.3076" lon="4.53488">
        <ele>794.02</ele>
        <time>2020-09-19T07:36:47.576Z</time>
      </trkpt>
      <trkpt lat="45.30763" lon="4.53479">
        <ele>796.16</ele>
        <time>2020-09-19T07:36:57.293Z</time>
      </trkpt>
      <trkpt lat="45.30766" lon="4.53471">
        <ele>798.31</ele>
        <time>2020-09-19T07:37:06.573Z</time>
      </trkpt>
      <trkpt lat="45.30773" lon="4.53467">
        <ele>799.63</ele>
        <time>2020-09-19T07:37:16.272Z</time>
      </trkpt>
      <trkpt lat="45.30777" lon="4.53463">
        <ele>800.85</ele>
        <time>2020-09-19T07:37:25.949Z</time>
      </trkpt>
      <trkpt lat="45.30784" lon="4.5345">
        <ele>802.06</ele>
        <time>2020-09-19T07:37:35.189Z</time>
      </trkpt>
      <trkpt lat="45.30793" lon="4.5344">
        <ele>803.89</ele>
        <time>2020-09-19T07:37:44.986Z</time>
      </trkpt>
      <trkpt lat="45.30798" lon="4.53436">
        <ele>804.92</ele>
        <time>2020-09-19T07:37:54.894Z</time>
      </trkpt>
      <trkpt lat="45.30801" lon="4.53434">
        <ele>805.31</ele>
        <time>2020-09-19T07:38:04.355Z</time>
      </trkpt>
      <trkpt lat="45.30803" lon="4.53427">
        <ele>805.78</ele>
        <time>2020-09-19T07:38:13.653Z</time>
      </trkpt>
      <trkpt lat="45.30804" lon="4.53413">
        <ele>806.37</ele>
        <time>2020-09-19T07:38:22.713Z</time>
      </trkpt>
      <trkpt lat="45.30805" lon="4.53401">
        <ele>807.2</ele>
        <time>2020-09-19T07:38:32.811Z</time>
      </trkpt>
      <trkpt lat="45.30809" lon="4.53393">
        <ele>808.63</ele>
        <time>2020-09-19T07:38:42.349Z</time>
      </trkpt>
      <trkpt lat="45.30812" lon="4.53387">
        <ele>809.66</ele>
        <time>2020-09-19T07:38:51.768Z</time>
      </trkpt>
      <trkpt lat="45.3082" lon="4.53375">
        <ele>810.65</ele>
        <time>2020-09-19T07:39:01.387Z</time>
      </trkpt>
      <trkpt lat="45.30835" lon="4.53356">
        <ele>811.68</ele>
        <time>2020-09-19T07:39:10.665Z</time>
      </trkpt>
      <trkpt lat="45.3085" lon="4.5334">
        <ele>812.57</ele>
        <time>2020-09-19T07:39:20.918Z</time>
      </trkpt>
      <trkpt lat="45.30858" lon="4.5333">
        <ele>813.54</ele>
        <time>2020-09-19T07:39:30.477Z</time>
      </trkpt>
      <trkpt lat="45.30863" lon="4.53323">
        <ele>815.44</ele>
        <time>2020-09-19T07:39:40.678Z</time>
      </trkpt>
      <trkpt lat="45.30867" lon="4.53315">
        <ele>816.55</ele>
        <time>2020-09-19T07:39:50.000Z</time>
      </trkpt>
      <trkpt lat="45.30866" lon="4.53313">
        <ele>816.84</ele>
        <time>2020-09-19T07:40:02.000Z</time>
      </trkpt>
      <trkpt lat="45.30868" lon="4.53308">
        <ele>816.98</ele>
        <time>2020-09-19T07:40:12.774Z</time>
      </trkpt>
      <trkpt lat="45.30873" lon="4.53303">
        <ele>818.02</ele>
        <time>2020-09-19T07:40:22.870Z</time>
      </trkpt>
      <trkpt lat="45.30877" lon="4.53297">
        <ele>819.23</ele>
        <time>2020-09-19T07:40:32.433Z</time>
      </trkpt>
      <trkpt lat="45.3088" lon="4.53292">
        <ele>820.54</ele>
        <time>2020-09-19T07:40:41.810Z</time>
      </trkpt>
      <trkpt lat="45.30883" lon="4.53281">
        <ele>822.02</ele>
        <time>2020-09-19T07:40:51.517Z</time>
      </trkpt>
      <trkpt lat="45.30892" lon="4.53267">
        <ele>823.2</ele>
        <time>2020-09-19T07:41:00.715Z</time>
      </trkpt>
      <trkpt lat="45.30906" lon="4.5325">
        <ele>824.51</ele>
        <time>2020-09-19T07:41:10.000Z</time>
      </trkpt>
      <trkpt lat="45.30918" lon="4.53235">
        <ele>825.87</ele>
        <time>2020-09-19T07:41:19.134Z</time>
      </trkpt>
      <trkpt lat="45.30925" lon="4.53222">
        <ele>827.33</ele>
        <time>2020-09-19T07:41:28.672Z</time>
      </trkpt>
      <trkpt lat="45.30924" lon="4.5321">
        <ele>828.96</ele>
        <time>2020-09-19T07:41:38.349Z</time>
      </trkpt>
      <trkpt lat="45.3092" lon="4.532">
        <ele>830.6</ele>
        <time>2020-09-19T07:41:48.174Z</time>
      </trkpt>
      <trkpt lat="45.30917" lon="4.53196">
        <ele>831.98</ele>
        <time>2020-09-19T07:41:57.999Z</time>
      </trkpt>
      <trkpt lat="45.30915" lon="4.53194">
        <ele>833.52</ele>
        <time>2020-09-19T07:42:07.668Z</time>
      </trkpt>
      <trkpt lat="45.30913" lon="4.53192">
        <ele>835.51</ele>
        <time>2020-09-19T07:42:17.837Z</time>
      </trkpt>
      <trkpt lat="45.30912" lon="4.53189">
        <ele>836.98</ele>
        <time>2020-09-19T07:42:26.974Z</time>
      </trkpt>
      <trkpt lat="45.3091" lon="4.53184">
        <ele>838.69</ele>
        <time>2020-09-19T07:42:36.775Z</time>
      </trkpt>
      <trkpt lat="45.30908" lon="4.53179">
        <ele>840.38</ele>
        <time>2020-09-19T07:42:45.930Z</time>
      </trkpt>
      <trkpt lat="45.30906" lon="4.53174">
        <ele>842.05</ele>
        <time>2020-09-19T07:42:54.951Z</time>
      </trkpt>
      <trkpt lat="45.30903" lon="4.53168">
        <ele>843.67</ele>
        <time>2020-09-19T07:43:04.912Z</time>
      </trkpt>
      <trkpt lat="45.309" lon="4.5316">
        <ele>845.42</ele>
        <time>2020-09-19T07:43:14.849Z</time>
      </trkpt>
      <trkpt lat="45.309" lon="4.53151">
        <ele>846.75</ele>
        <time>2020-09-19T07:43:24.858Z</time>
      </trkpt>
      <trkpt lat="45.30901" lon="4.53139">
        <ele>847.88</ele>
        <time>2020-09-19T07:43:34.855Z</time>
      </trkpt>
      <trkpt lat="45.30904" lon="4.53133">
        <ele>849.31</ele>
        <time>2020-09-19T07:43:44.954Z</time>
      </trkpt>
      <trkpt lat="45.30905" lon="4.53125">
        <ele>850.72</ele>
        <time>2020-09-19T07:43:54.972Z</time>
      </trkpt>
      <trkpt lat="45.30907" lon="4.53116">
        <ele>851.92</ele>
        <time>2020-09-19T07:44:04.372Z</time>
      </trkpt>
      <trkpt lat="45.30907" lon="4.53107">
        <ele>852.44</ele>
        <time>2020-09-19T07:44:14.331Z</time>
      </trkpt>
      <trkpt lat="45.30905" lon="4.53101">
        <ele>853.26</ele>
        <time>2020-09-19T07:44:24.249Z</time>
      </trkpt>
      <trkpt lat="45.30905" lon="4.53095">
        <ele>853.82</ele>
        <time>2020-09-19T07:44:33.999Z</time>
      </trkpt>
      <trkpt lat="45.30905" lon="4.53098">
        <ele>854.04</ele>
        <time>2020-09-19T07:44:43.999Z</time>
      </trkpt>
      <trkpt lat="45.30907" lon="4.53095">
        <ele>854.08</ele>
        <time>2020-09-19T07:44:53.999Z</time>
      </trkpt>
      <trkpt lat="45.3091" lon="4.53087">
        <ele>854.22</ele>
        <time>2020-09-19T07:45:03.999Z</time>
      </trkpt>
      <trkpt lat="45.30911" lon="4.53083">
        <ele>854.31</ele>
        <time>2020-09-19T07:45:13.999Z</time>
      </trkpt>
      <trkpt lat="45.30912" lon="4.5308">
        <ele>854.25</ele>
        <time>2020-09-19T07:45:23.999Z</time>
      </trkpt>
      <trkpt lat="45.30913" lon="4.53076">
        <ele>854.07</ele>
        <time>2020-09-19T07:45:33.999Z</time>
      </trkpt>
      <trkpt lat="45.30915" lon="4.5307">
        <ele>854.21</ele>
        <time>2020-09-19T07:45:43.571Z</time>
      </trkpt>
      <trkpt lat="45.30926" lon="4.53054">
        <ele>854.54</ele>
        <time>2020-09-19T07:45:52.790Z</time>
      </trkpt>
      <trkpt lat="45.30937" lon="4.53045">
        <ele>855.24</ele>
        <time>2020-09-19T07:46:02.569Z</time>
      </trkpt>
      <trkpt lat="45.30946" lon="4.53045">
        <ele>855.26</ele>
        <time>2020-09-19T07:46:11.947Z</time>
      </trkpt>
      <trkpt lat="45.30955" lon="4.53044">
        <ele>855.34</ele>
        <time>2020-09-19T07:46:21.394Z</time>
      </trkpt>
      <trkpt lat="45.30966" lon="4.53043">
        <ele>855.12</ele>
        <time>2020-09-19T07:46:30.635Z</time>
      </trkpt>
      <trkpt lat="45.3098" lon="4.53043">
        <ele>855</ele>
        <time>2020-09-19T07:46:40.595Z</time>
      </trkpt>
      <trkpt lat="45.30992" lon="4.53042">
        <ele>855.45</ele>
        <time>2020-09-19T07:46:50.053Z</time>
      </trkpt>
      <trkpt lat="45.31002" lon="4.53033">
        <ele>857.09</ele>
        <time>2020-09-19T07:46:59.752Z</time>
      </trkpt>
      <trkpt lat="45.31012" lon="4.53017">
        <ele>858.46</ele>
        <time>2020-09-19T07:47:09.994Z</time>
      </trkpt>
      <trkpt lat="45.31015" lon="4.53004">
        <ele>859.32</ele>
        <time>2020-09-19T07:47:19.515Z</time>
      </trkpt>
      <trkpt lat="45.31016" lon="4.52991">
        <ele>861.2</ele>
        <time>2020-09-19T07:47:29.690Z</time>
      </trkpt>
      <trkpt lat="45.31019" lon="4.52975">
        <ele>862.13</ele>
        <time>2020-09-19T07:47:38.810Z</time>
      </trkpt>
      <trkpt lat="45.31021" lon="4.52962">
        <ele>863.01</ele>
        <time>2020-09-19T07:47:47.967Z</time>
      </trkpt>
      <trkpt lat="45.31022" lon="4.5295">
        <ele>864.08</ele>
        <time>2020-09-19T07:47:57.566Z</time>
      </trkpt>
      <trkpt lat="45.31026" lon="4.5294">
        <ele>865.05</ele>
        <time>2020-09-19T07:48:07.057Z</time>
      </trkpt>
      <trkpt lat="45.31023" lon="4.52929">
        <ele>866.58</ele>
        <time>2020-09-19T07:48:16.533Z</time>
      </trkpt>
      <trkpt lat="45.31011" lon="4.5292">
        <ele>867.54</ele>
        <time>2020-09-19T07:48:26.694Z</time>
      </trkpt>
      <trkpt lat="45.31" lon="4.52915">
        <ele>869.32</ele>
        <time>2020-09-19T07:48:36.961Z</time>
      </trkpt>
      <trkpt lat="45.30991" lon="4.52907">
        <ele>871.39</ele>
        <time>2020-09-19T07:48:47.891Z</time>
      </trkpt>
      <trkpt lat="45.30982" lon="4.52897">
        <ele>873.23</ele>
        <time>2020-09-19T07:48:57.230Z</time>
      </trkpt>
      <trkpt lat="45.30979" lon="4.5289">
        <ele>874.79</ele>
        <time>2020-09-19T07:49:06.695Z</time>
      </trkpt>
      <trkpt lat="45.30988" lon="4.52893">
        <ele>874.69</ele>
        <time>2020-09-19T07:49:15.754Z</time>
      </trkpt>
      <trkpt lat="45.30999" lon="4.52897">
        <ele>874.43</ele>
        <time>2020-09-19T07:49:25.013Z</time>
      </trkpt>
      <trkpt lat="45.3101" lon="4.529">
        <ele>874.03</ele>
        <time>2020-09-19T07:49:34.394Z</time>
      </trkpt>
      <trkpt lat="45.31019" lon="4.52902">
        <ele>873.15</ele>
        <time>2020-09-19T07:49:43.872Z</time>
      </trkpt>
      <trkpt lat="45.31031" lon="4.52907">
        <ele>872.41</ele>
        <time>2020-09-19T07:49:53.210Z</time>
      </trkpt>
      <trkpt lat="45.31043" lon="4.52913">
        <ele>871.51</ele>
        <time>2020-09-19T07:50:02.790Z</time>
      </trkpt>
      <trkpt lat="45.31051" lon="4.52921">
        <ele>870.9</ele>
        <time>2020-09-19T07:50:11.809Z</time>
      </trkpt>
      <trkpt lat="45.3106" lon="4.52925">
        <ele>870.41</ele>
        <time>2020-09-19T07:50:21.246Z</time>
      </trkpt>
      <trkpt lat="45.31068" lon="4.52928">
        <ele>870.29</ele>
        <time>2020-09-19T07:50:30.596Z</time>
      </trkpt>
      <trkpt lat="45.31078" lon="4.52936">
        <ele>870.49</ele>
        <time>2020-09-19T07:50:40.053Z</time>
      </trkpt>
      <trkpt lat="45.31087" lon="4.52947">
        <ele>870.52</ele>
        <time>2020-09-19T07:50:49.411Z</time>
      </trkpt>
      <trkpt lat="45.31097" lon="4.52954">
        <ele>871.01</ele>
        <time>2020-09-19T07:50:58.872Z</time>
      </trkpt>
      <trkpt lat="45.31106" lon="4.5296">
        <ele>871.64</ele>
        <time>2020-09-19T07:51:08.312Z</time>
      </trkpt>
      <trkpt lat="45.31116" lon="4.5296">
        <ele>872.88</ele>
        <time>2020-09-19T07:51:17.333Z</time>
      </trkpt>
      <trkpt lat="45.31127" lon="4.5296">
        <ele>874.82</ele>
        <time>2020-09-19T07:51:26.999Z</time>
      </trkpt>
      <trkpt lat="45.31136" lon="4.52959">
        <ele>876.83</ele>
        <time>2020-09-19T07:51:36.852Z</time>
      </trkpt>
      <trkpt lat="45.31148" lon="4.52962">
        <ele>878.16</ele>
        <time>2020-09-19T07:51:46.148Z</time>
      </trkpt>
      <trkpt lat="45.3116" lon="4.52966">
        <ele>878.5</ele>
        <time>2020-09-19T07:51:55.409Z</time>
      </trkpt>
      <trkpt lat="45.31171" lon="4.52972">
        <ele>878.6</ele>
        <time>2020-09-19T07:52:04.457Z</time>
      </trkpt>
      <trkpt lat="45.31181" lon="4.52979">
        <ele>879.43</ele>
        <time>2020-09-19T07:52:13.694Z</time>
      </trkpt>
      <trkpt lat="45.31191" lon="4.52989">
        <ele>880.83</ele>
        <time>2020-09-19T07:52:23.673Z</time>
      </trkpt>
      <trkpt lat="45.312" lon="4.52996">
        <ele>881.68</ele>
        <time>2020-09-19T07:52:33.151Z</time>
      </trkpt>
      <trkpt lat="45.3121" lon="4.52999">
        <ele>881.8</ele>
        <time>2020-09-19T07:52:42.651Z</time>
      </trkpt>
      <trkpt lat="45.31213" lon="4.52999">
        <ele>881.45</ele>
        <time>2020-09-19T07:52:51.750Z</time>
      </trkpt>
      <trkpt lat="45.31211" lon="4.52998">
        <ele>881.43</ele>
        <time>2020-09-19T07:53:01.570Z</time>
      </trkpt>
      <trkpt lat="45.31216" lon="4.52999">
        <ele>881.83</ele>
        <time>2020-09-19T07:53:11.000Z</time>
      </trkpt>
      <trkpt lat="45.31217" lon="4.53002">
        <ele>881.82</ele>
        <time>2020-09-19T07:53:21.560Z</time>
      </trkpt>
      <trkpt lat="45.31216" lon="4.53004">
        <ele>881.4</ele>
        <time>2020-09-19T07:53:31.306Z</time>
      </trkpt>
      <trkpt lat="45.31215" lon="4.53012">
        <ele>881.59</ele>
        <time>2020-09-19T07:53:41.000Z</time>
      </trkpt>
      <trkpt lat="45.31217" lon="4.53011">
        <ele>881.78</ele>
        <time>2020-09-19T07:53:56.518Z</time>
      </trkpt>
      <trkpt lat="45.3122" lon="4.53012">
        <ele>881.62</ele>
        <time>2020-09-19T07:54:06.036Z</time>
      </trkpt>
      <trkpt lat="45.31228" lon="4.53001">
        <ele>881.31</ele>
        <time>2020-09-19T07:54:15.314Z</time>
      </trkpt>
      <trkpt lat="45.31236" lon="4.52988">
        <ele>880.74</ele>
        <time>2020-09-19T07:54:24.894Z</time>
      </trkpt>
      <trkpt lat="45.31241" lon="4.52973">
        <ele>880.46</ele>
        <time>2020-09-19T07:54:34.773Z</time>
      </trkpt>
      <trkpt lat="45.31243" lon="4.52973">
        <ele>880.06</ele>
        <time>2020-09-19T07:55:11.735Z</time>
      </trkpt>
      <trkpt lat="45.31247" lon="4.52982">
        <ele>879.9</ele>
        <time>2020-09-19T07:55:21.857Z</time>
      </trkpt>
      <trkpt lat="45.31254" lon="4.52976">
        <ele>879.74</ele>
        <time>2020-09-19T07:55:31.000Z</time>
      </trkpt>
      <trkpt lat="45.3126" lon="4.52969">
        <ele>879.39</ele>
        <time>2020-09-19T07:55:41.000Z</time>
      </trkpt>
      <trkpt lat="45.31261" lon="4.52972">
        <ele>878.82</ele>
        <time>2020-09-19T07:55:56.000Z</time>
      </trkpt>
      <trkpt lat="45.31265" lon="4.5297">
        <ele>876.62</ele>
        <time>2020-09-19T07:56:05.850Z</time>
      </trkpt>
      <trkpt lat="45.3127" lon="4.52955">
        <ele>874.68</ele>
        <time>2020-09-19T07:56:14.947Z</time>
      </trkpt>
      <trkpt lat="45.31274" lon="4.52939">
        <ele>872.12</ele>
        <time>2020-09-19T07:56:24.643Z</time>
      </trkpt>
      <trkpt lat="45.31277" lon="4.52924">
        <ele>869.95</ele>
        <time>2020-09-19T07:56:34.637Z</time>
      </trkpt>
      <trkpt lat="45.31279" lon="4.52911">
        <ele>868.03</ele>
        <time>2020-09-19T07:56:43.836Z</time>
      </trkpt>
      <trkpt lat="45.31282" lon="4.52895">
        <ele>866.01</ele>
        <time>2020-09-19T07:56:53.276Z</time>
      </trkpt>
      <trkpt lat="45.31285" lon="4.52879">
        <ele>864.6</ele>
        <time>2020-09-19T07:57:02.716Z</time>
      </trkpt>
      <trkpt lat="45.31291" lon="4.52863">
        <ele>863.87</ele>
        <time>2020-09-19T07:57:11.774Z</time>
      </trkpt>
      <trkpt lat="45.31304" lon="4.52851">
        <ele>862.73</ele>
        <time>2020-09-19T07:57:21.274Z</time>
      </trkpt>
      <trkpt lat="45.31315" lon="4.52842">
        <ele>861.52</ele>
        <time>2020-09-19T07:57:30.755Z</time>
      </trkpt>
      <trkpt lat="45.3132" lon="4.52831">
        <ele>860.46</ele>
        <time>2020-09-19T07:57:40.694Z</time>
      </trkpt>
      <trkpt lat="45.31326" lon="4.52817">
        <ele>858.66</ele>
        <time>2020-09-19T07:57:49.834Z</time>
      </trkpt>
      <trkpt lat="45.31334" lon="4.52806">
        <ele>856.79</ele>
        <time>2020-09-19T07:57:58.911Z</time>
      </trkpt>
      <trkpt lat="45.31341" lon="4.52795">
        <ele>854.76</ele>
        <time>2020-09-19T07:58:08.271Z</time>
      </trkpt>
      <trkpt lat="45.31345" lon="4.5278">
        <ele>852.67</ele>
        <time>2020-09-19T07:58:18.066Z</time>
      </trkpt>
      <trkpt lat="45.31347" lon="4.52771">
        <ele>850.91</ele>
        <time>2020-09-19T07:58:27.859Z</time>
      </trkpt>
      <trkpt lat="45.3135" lon="4.52762">
        <ele>848.97</ele>
        <time>2020-09-19T07:58:37.592Z</time>
      </trkpt>
      <trkpt lat="45.31353" lon="4.52746">
        <ele>847.65</ele>
        <time>2020-09-19T07:58:46.671Z</time>
      </trkpt>
      <trkpt lat="45.31351" lon="4.52727">
        <ele>846.29</ele>
        <time>2020-09-19T07:58:55.948Z</time>
      </trkpt>
      <trkpt lat="45.3135" lon="4.5271">
        <ele>845.19</ele>
        <time>2020-09-19T07:59:05.196Z</time>
      </trkpt>
      <trkpt lat="45.3135" lon="4.52707">
        <ele>845.22</ele>
        <time>2020-09-19T07:59:16.455Z</time>
      </trkpt>
      <trkpt lat="45.31349" lon="4.52697">
        <ele>843.85</ele>
        <time>2020-09-19T07:59:25.555Z</time>
      </trkpt>
      <trkpt lat="45.31349" lon="4.52687">
        <ele>842.69</ele>
        <time>2020-09-19T07:59:34.653Z</time>
      </trkpt>
      <trkpt lat="45.31351" lon="4.52685">
        <ele>842.55</ele>
        <time>2020-09-19T07:59:45.000Z</time>
      </trkpt>
      <trkpt lat="45.31349" lon="4.52685">
        <ele>842.08</ele>
        <time>2020-09-19T08:00:12.000Z</time>
      </trkpt>
      <trkpt lat="45.31353" lon="4.52682">
        <ele>841.27</ele>
        <time>2020-09-19T08:00:21.546Z</time>
      </trkpt>
      <trkpt lat="45.31364" lon="4.52684">
        <ele>839.66</ele>
        <time>2020-09-19T08:00:31.678Z</time>
      </trkpt>
      <trkpt lat="45.31373" lon="4.52686">
        <ele>838.84</ele>
        <time>2020-09-19T08:00:41.000Z</time>
      </trkpt>
      <trkpt lat="45.31374" lon="4.52684">
        <ele>838.76</ele>
        <time>2020-09-19T08:00:51.000Z</time>
      </trkpt>
      <trkpt lat="45.31381" lon="4.5268">
        <ele>837.67</ele>
        <time>2020-09-19T08:01:00.152Z</time>
      </trkpt>
      <trkpt lat="45.31391" lon="4.52675">
        <ele>838.98</ele>
        <time>2020-09-19T08:01:10.254Z</time>
      </trkpt>
      <trkpt lat="45.31403" lon="4.5268">
        <ele>840.74</ele>
        <time>2020-09-19T08:01:19.792Z</time>
      </trkpt>
      <trkpt lat="45.31413" lon="4.52677">
        <ele>842.28</ele>
        <time>2020-09-19T08:01:28.812Z</time>
      </trkpt>
      <trkpt lat="45.31423" lon="4.52669">
        <ele>844.15</ele>
        <time>2020-09-19T08:01:38.909Z</time>
      </trkpt>
      <trkpt lat="45.31419" lon="4.52659">
        <ele>845.18</ele>
        <time>2020-09-19T08:01:48.009Z</time>
      </trkpt>
      <trkpt lat="45.3141" lon="4.52647">
        <ele>846.24</ele>
        <time>2020-09-19T08:01:57.157Z</time>
      </trkpt>
      <trkpt lat="45.31404" lon="4.52634">
        <ele>847.28</ele>
        <time>2020-09-19T08:02:06.737Z</time>
      </trkpt>
      <trkpt lat="45.31405" lon="4.52614">
        <ele>848.09</ele>
        <time>2020-09-19T08:02:16.495Z</time>
      </trkpt>
      <trkpt lat="45.31406" lon="4.52597">
        <ele>848.54</ele>
        <time>2020-09-19T08:02:25.554Z</time>
      </trkpt>
      <trkpt lat="45.3141" lon="4.52578">
        <ele>848.95</ele>
        <time>2020-09-19T08:02:35.574Z</time>
      </trkpt>
      <trkpt lat="45.3141" lon="4.52558">
        <ele>849.22</ele>
        <time>2020-09-19T08:02:45.109Z</time>
      </trkpt>
      <trkpt lat="45.31412" lon="4.5254">
        <ele>849.36</ele>
        <time>2020-09-19T08:02:54.650Z</time>
      </trkpt>
      <trkpt lat="45.31412" lon="4.52522">
        <ele>849.74</ele>
        <time>2020-09-19T08:03:04.709Z</time>
      </trkpt>
      <trkpt lat="45.3141" lon="4.52502">
        <ele>849.88</ele>
        <time>2020-09-19T08:03:14.080Z</time>
      </trkpt>
      <trkpt lat="45.31406" lon="4.52484">
        <ele>849.89</ele>
        <time>2020-09-19T08:03:23.719Z</time>
      </trkpt>
      <trkpt lat="45.31407" lon="4.52475">
        <ele>850.2</ele>
        <time>2020-09-19T08:03:33.000Z</time>
      </trkpt>
      <trkpt lat="45.31409" lon="4.52477">
        <ele>850.15</ele>
        <time>2020-09-19T08:03:45.000Z</time>
      </trkpt>
      <trkpt lat="45.31409" lon="4.52473">
        <ele>851.61</ele>
        <time>2020-09-19T08:04:04.753Z</time>
      </trkpt>
      <trkpt lat="45.31407" lon="4.52462">
        <ele>853.54</ele>
        <time>2020-09-19T08:04:14.231Z</time>
      </trkpt>
      <trkpt lat="45.31406" lon="4.52451">
        <ele>855.3</ele>
        <time>2020-09-19T08:04:23.489Z</time>
      </trkpt>
      <trkpt lat="45.31403" lon="4.52435">
        <ele>856.77</ele>
        <time>2020-09-19T08:04:32.791Z</time>
      </trkpt>
      <trkpt lat="45.31403" lon="4.52422">
        <ele>858.29</ele>
        <time>2020-09-19T08:04:41.869Z</time>
      </trkpt>
      <trkpt lat="45.31402" lon="4.52409">
        <ele>860.34</ele>
        <time>2020-09-19T08:04:51.649Z</time>
      </trkpt>
      <trkpt lat="45.31399" lon="4.52397">
        <ele>862.26</ele>
        <time>2020-09-19T08:05:00.736Z</time>
      </trkpt>
      <trkpt lat="45.31397" lon="4.52382">
        <ele>863.64</ele>
        <time>2020-09-19T08:05:09.814Z</time>
      </trkpt>
      <trkpt lat="45.31396" lon="4.52365">
        <ele>864.49</ele>
        <time>2020-09-19T08:05:19.775Z</time>
      </trkpt>
      <trkpt lat="45.31397" lon="4.52352">
        <ele>865.16</ele>
        <time>2020-09-19T08:05:28.971Z</time>
      </trkpt>
      <trkpt lat="45.314" lon="4.52337">
        <ele>866.04</ele>
        <time>2020-09-19T08:05:38.772Z</time>
      </trkpt>
      <trkpt lat="45.31403" lon="4.52322">
        <ele>866.47</ele>
        <time>2020-09-19T08:05:48.670Z</time>
      </trkpt>
      <trkpt lat="45.31405" lon="4.52307">
        <ele>867.02</ele>
        <time>2020-09-19T08:05:58.074Z</time>
      </trkpt>
      <trkpt lat="45.31406" lon="4.52294">
        <ele>867.47</ele>
        <time>2020-09-19T08:06:07.309Z</time>
      </trkpt>
      <trkpt lat="45.31407" lon="4.52277">
        <ele>867.69</ele>
        <time>2020-09-19T08:06:16.447Z</time>
      </trkpt>
      <trkpt lat="45.31404" lon="4.52261">
        <ele>867.19</ele>
        <time>2020-09-19T08:06:25.467Z</time>
      </trkpt>
      <trkpt lat="45.31401" lon="4.52245">
        <ele>867.06</ele>
        <time>2020-09-19T08:06:34.518Z</time>
      </trkpt>
      <trkpt lat="45.31397" lon="4.52228">
        <ele>867.31</ele>
        <time>2020-09-19T08:06:43.636Z</time>
      </trkpt>
      <trkpt lat="45.31393" lon="4.52213">
        <ele>867.65</ele>
        <time>2020-09-19T08:06:52.857Z</time>
      </trkpt>
      <trkpt lat="45.31392" lon="4.52201">
        <ele>868.1</ele>
        <time>2020-09-19T08:07:02.913Z</time>
      </trkpt>
      <trkpt lat="45.31392" lon="4.52188">
        <ele>869.04</ele>
        <time>2020-09-19T08:07:12.576Z</time>
      </trkpt>
      <trkpt lat="45.31389" lon="4.5217">
        <ele>869.64</ele>
        <time>2020-09-19T08:07:21.931Z</time>
      </trkpt>
      <trkpt lat="45.31388" lon="4.52152">
        <ele>870.33</ele>
        <time>2020-09-19T08:07:30.974Z</time>
      </trkpt>
      <trkpt lat="45.31388" lon="4.52137">
        <ele>870.83</ele>
        <time>2020-09-19T08:07:40.333Z</time>
      </trkpt>
      <trkpt lat="45.31386" lon="4.52121">
        <ele>870.72</ele>
        <time>2020-09-19T08:07:49.929Z</time>
      </trkpt>
      <trkpt lat="45.31385" lon="4.52106">
        <ele>870.31</ele>
        <time>2020-09-19T08:07:58.974Z</time>
      </trkpt>
      <trkpt lat="45.31383" lon="4.52091">
        <ele>870.08</ele>
        <time>2020-09-19T08:08:08.632Z</time>
      </trkpt>
      <trkpt lat="45.31379" lon="4.52074">
        <ele>870.07</ele>
        <time>2020-09-19T08:08:18.710Z</time>
      </trkpt>
      <trkpt lat="45.31372" lon="4.52057">
        <ele>870.26</ele>
        <time>2020-09-19T08:08:28.169Z</time>
      </trkpt>
      <trkpt lat="45.31366" lon="4.5204">
        <ele>870.47</ele>
        <time>2020-09-19T08:08:37.391Z</time>
      </trkpt>
      <trkpt lat="45.3136" lon="4.52026">
        <ele>870.51</ele>
        <time>2020-09-19T08:08:46.536Z</time>
      </trkpt>
      <trkpt lat="45.31355" lon="4.52013">
        <ele>870.33</ele>
        <time>2020-09-19T08:08:55.635Z</time>
      </trkpt>
      <trkpt lat="45.31352" lon="4.51999">
        <ele>870.51</ele>
        <time>2020-09-19T08:09:04.933Z</time>
      </trkpt>
      <trkpt lat="45.31351" lon="4.51984">
        <ele>870.85</ele>
        <time>2020-09-19T08:09:14.535Z</time>
      </trkpt>
      <trkpt lat="45.3135" lon="4.51969">
        <ele>871.06</ele>
        <time>2020-09-19T08:09:23.693Z</time>
      </trkpt>
      <trkpt lat="45.31349" lon="4.51955">
        <ele>871.56</ele>
        <time>2020-09-19T08:09:33.012Z</time>
      </trkpt>
      <trkpt lat="45.31347" lon="4.51939">
        <ele>872.07</ele>
        <time>2020-09-19T08:09:42.390Z</time>
      </trkpt>
      <trkpt lat="45.31346" lon="4.51923">
        <ele>872.69</ele>
        <time>2020-09-19T08:09:51.669Z</time>
      </trkpt>
      <trkpt lat="45.31348" lon="4.51909">
        <ele>873.63</ele>
        <time>2020-09-19T08:10:00.926Z</time>
      </trkpt>
      <trkpt lat="45.3135" lon="4.51897">
        <ele>874.73</ele>
        <time>2020-09-19T08:10:10.806Z</time>
      </trkpt>
      <trkpt lat="45.3135" lon="4.51883">
        <ele>876.25</ele>
        <time>2020-09-19T08:10:20.111Z</time>
      </trkpt>
      <trkpt lat="45.3135" lon="4.51871">
        <ele>877.42</ele>
        <time>2020-09-19T08:10:29.819Z</time>
      </trkpt>
      <trkpt lat="45.3135" lon="4.5186">
        <ele>878.4</ele>
        <time>2020-09-19T08:10:38.936Z</time>
      </trkpt>
      <trkpt lat="45.31349" lon="4.51847">
        <ele>879.42</ele>
        <time>2020-09-19T08:10:48.235Z</time>
      </trkpt>
      <trkpt lat="45.3135" lon="4.51832">
        <ele>880.36</ele>
        <time>2020-09-19T08:10:58.125Z</time>
      </trkpt>
      <trkpt lat="45.31351" lon="4.51825">
        <ele>880.68</ele>
        <time>2020-09-19T08:11:07.999Z</time>
      </trkpt>
      <trkpt lat="45.31349" lon="4.51827">
        <ele>880.74</ele>
        <time>2020-09-19T08:11:18.999Z</time>
      </trkpt>
      <trkpt lat="45.31351" lon="4.51827">
        <ele>880.98</ele>
        <time>2020-09-19T08:11:28.999Z</time>
      </trkpt>
      <trkpt lat="45.31353" lon="4.51826">
        <ele>881.16</ele>
        <time>2020-09-19T08:11:41.999Z</time>
      </trkpt>
      <trkpt lat="45.31353" lon="4.51823">
        <ele>881.2</ele>
        <time>2020-09-19T08:12:41.999Z</time>
      </trkpt>
      <trkpt lat="45.31355" lon="4.51816">
        <ele>881.75</ele>
        <time>2020-09-19T08:12:51.851Z</time>
      </trkpt>
      <trkpt lat="45.31356" lon="4.51799">
        <ele>882.44</ele>
        <time>2020-09-19T08:13:01.471Z</time>
      </trkpt>
      <trkpt lat="45.31362" lon="4.51782">
        <ele>882.78</ele>
        <time>2020-09-19T08:13:11.527Z</time>
      </trkpt>
      <trkpt lat="45.31366" lon="4.51766">
        <ele>883.14</ele>
        <time>2020-09-19T08:13:20.868Z</time>
      </trkpt>
      <trkpt lat="45.31368" lon="4.51749">
        <ele>883.49</ele>
        <time>2020-09-19T08:13:29.908Z</time>
      </trkpt>
      <trkpt lat="45.31371" lon="4.51734">
        <ele>884.06</ele>
        <time>2020-09-19T08:13:39.279Z</time>
      </trkpt>
      <trkpt lat="45.31372" lon="4.51722">
        <ele>884.81</ele>
        <time>2020-09-19T08:13:48.418Z</time>
      </trkpt>
      <trkpt lat="45.31372" lon="4.51711">
        <ele>886.36</ele>
        <time>2020-09-19T08:13:58.456Z</time>
      </trkpt>
      <trkpt lat="45.31376" lon="4.51698">
        <ele>887.98</ele>
        <time>2020-09-19T08:14:07.833Z</time>
      </trkpt>
      <trkpt lat="45.31379" lon="4.51684">
        <ele>889.23</ele>
        <time>2020-09-19T08:14:17.456Z</time>
      </trkpt>
      <trkpt lat="45.31382" lon="4.51674">
        <ele>890.08</ele>
        <time>2020-09-19T08:14:26.555Z</time>
      </trkpt>
      <trkpt lat="45.31385" lon="4.5166">
        <ele>891.08</ele>
        <time>2020-09-19T08:14:36.792Z</time>
      </trkpt>
      <trkpt lat="45.31387" lon="4.51646">
        <ele>891.94</ele>
        <time>2020-09-19T08:14:45.994Z</time>
      </trkpt>
      <trkpt lat="45.3139" lon="4.51638">
        <ele>893.23</ele>
        <time>2020-09-19T08:14:55.870Z</time>
      </trkpt>
      <trkpt lat="45.31395" lon="4.51626">
        <ele>894.61</ele>
        <time>2020-09-19T08:15:05.000Z</time>
      </trkpt>
      <trkpt lat="45.31401" lon="4.51616">
        <ele>896.02</ele>
        <time>2020-09-19T08:15:14.577Z</time>
      </trkpt>
      <trkpt lat="45.31403" lon="4.5161">
        <ele>897.21</ele>
        <time>2020-09-19T08:15:23.915Z</time>
      </trkpt>
      <trkpt lat="45.31406" lon="4.51602">
        <ele>898.97</ele>
        <time>2020-09-19T08:15:33.676Z</time>
      </trkpt>
      <trkpt lat="45.31414" lon="4.51586">
        <ele>900.28</ele>
        <time>2020-09-19T08:15:43.817Z</time>
      </trkpt>
      <trkpt lat="45.31421" lon="4.51566">
        <ele>901.12</ele>
        <time>2020-09-19T08:15:53.617Z</time>
      </trkpt>
      <trkpt lat="45.31426" lon="4.51549">
        <ele>901.49</ele>
        <time>2020-09-19T08:16:02.676Z</time>
      </trkpt>
      <trkpt lat="45.31431" lon="4.51531">
        <ele>901.75</ele>
        <time>2020-09-19T08:16:12.174Z</time>
      </trkpt>
      <trkpt lat="45.31435" lon="4.51515">
        <ele>902.02</ele>
        <time>2020-09-19T08:16:21.597Z</time>
      </trkpt>
      <trkpt lat="45.3144" lon="4.51497">
        <ele>901.99</ele>
        <time>2020-09-19T08:16:30.951Z</time>
      </trkpt>
      <trkpt lat="45.31444" lon="4.5148">
        <ele>902.77</ele>
        <time>2020-09-19T08:16:40.550Z</time>
      </trkpt>
      <trkpt lat="45.31447" lon="4.51462">
        <ele>903.34</ele>
        <time>2020-09-19T08:16:50.569Z</time>
      </trkpt>
      <trkpt lat="45.31449" lon="4.51444">
        <ele>903.52</ele>
        <time>2020-09-19T08:16:59.809Z</time>
      </trkpt>
      <trkpt lat="45.31452" lon="4.51424">
        <ele>903.6</ele>
        <time>2020-09-19T08:17:09.075Z</time>
      </trkpt>
      <trkpt lat="45.31454" lon="4.51408">
        <ele>903.11</ele>
        <time>2020-09-19T08:17:18.858Z</time>
      </trkpt>
      <trkpt lat="45.31453" lon="4.51403">
        <ele>903.72</ele>
        <time>2020-09-19T08:17:28.000Z</time>
      </trkpt>
      <trkpt lat="45.31454" lon="4.51398">
        <ele>904.59</ele>
        <time>2020-09-19T08:17:37.439Z</time>
      </trkpt>
      <trkpt lat="45.31455" lon="4.51387">
        <ele>905.46</ele>
        <time>2020-09-19T08:17:46.826Z</time>
      </trkpt>
      <trkpt lat="45.31456" lon="4.51375">
        <ele>906.15</ele>
        <time>2020-09-19T08:17:55.997Z</time>
      </trkpt>
      <trkpt lat="45.31456" lon="4.51359">
        <ele>907.21</ele>
        <time>2020-09-19T08:18:05.014Z</time>
      </trkpt>
      <trkpt lat="45.31457" lon="4.51343">
        <ele>908.56</ele>
        <time>2020-09-19T08:18:14.756Z</time>
      </trkpt>
      <trkpt lat="45.31458" lon="4.51326">
        <ele>909.8</ele>
        <time>2020-09-19T08:18:24.833Z</time>
      </trkpt>
      <trkpt lat="45.31459" lon="4.51311">
        <ele>910.81</ele>
        <time>2020-09-19T08:18:34.253Z</time>
      </trkpt>
      <trkpt lat="45.31458" lon="4.51297">
        <ele>911.92</ele>
        <time>2020-09-19T08:18:43.769Z</time>
      </trkpt>
      <trkpt lat="45.31459" lon="4.51283">
        <ele>912.92</ele>
        <time>2020-09-19T08:18:53.810Z</time>
      </trkpt>
      <trkpt lat="45.3146" lon="4.51273">
        <ele>913.59</ele>
        <time>2020-09-19T08:19:03.028Z</time>
      </trkpt>
      <trkpt lat="45.31459" lon="4.51259">
        <ele>915.04</ele>
        <time>2020-09-19T08:19:12.433Z</time>
      </trkpt>
      <trkpt lat="45.31457" lon="4.51246">
        <ele>915.97</ele>
        <time>2020-09-19T08:19:22.712Z</time>
      </trkpt>
      <trkpt lat="45.31457" lon="4.51231">
        <ele>917.3</ele>
        <time>2020-09-19T08:19:32.812Z</time>
      </trkpt>
      <trkpt lat="45.31459" lon="4.51214">
        <ele>918.35</ele>
        <time>2020-09-19T08:19:41.912Z</time>
      </trkpt>
      <trkpt lat="45.31458" lon="4.51199">
        <ele>919.88</ele>
        <time>2020-09-19T08:19:51.012Z</time>
      </trkpt>
      <trkpt lat="45.31458" lon="4.51188">
        <ele>921.02</ele>
        <time>2020-09-19T08:20:00.691Z</time>
      </trkpt>
      <trkpt lat="45.31457" lon="4.51171">
        <ele>922.28</ele>
        <time>2020-09-19T08:20:10.891Z</time>
      </trkpt>
      <trkpt lat="45.31456" lon="4.51152">
        <ele>923.75</ele>
        <time>2020-09-19T08:20:20.408Z</time>
      </trkpt>
      <trkpt lat="45.31456" lon="4.51135">
        <ele>925.32</ele>
        <time>2020-09-19T08:20:29.628Z</time>
      </trkpt>
      <trkpt lat="45.31456" lon="4.51121">
        <ele>926.87</ele>
        <time>2020-09-19T08:20:38.757Z</time>
      </trkpt>
      <trkpt lat="45.31459" lon="4.51106">
        <ele>928.92</ele>
        <time>2020-09-19T08:20:48.256Z</time>
      </trkpt>
      <trkpt lat="45.31463" lon="4.51096">
        <ele>930.63</ele>
        <time>2020-09-19T08:20:57.616Z</time>
      </trkpt>
      <trkpt lat="45.3147" lon="4.51086">
        <ele>932.06</ele>
        <time>2020-09-19T08:21:06.835Z</time>
      </trkpt>
      <trkpt lat="45.31477" lon="4.51077">
        <ele>933.13</ele>
        <time>2020-09-19T08:21:16.555Z</time>
      </trkpt>
      <trkpt lat="45.31483" lon="4.51063">
        <ele>934.06</ele>
        <time>2020-09-19T08:21:25.652Z</time>
      </trkpt>
      <trkpt lat="45.31489" lon="4.51047">
        <ele>934.57</ele>
        <time>2020-09-19T08:21:35.151Z</time>
      </trkpt>
      <trkpt lat="45.31495" lon="4.51032">
        <ele>935.11</ele>
        <time>2020-09-19T08:21:44.491Z</time>
      </trkpt>
      <trkpt lat="45.31501" lon="4.51019">
        <ele>935.81</ele>
        <time>2020-09-19T08:21:53.927Z</time>
      </trkpt>
      <trkpt lat="45.31507" lon="4.51006">
        <ele>937.1</ele>
        <time>2020-09-19T08:22:02.975Z</time>
      </trkpt>
      <trkpt lat="45.31512" lon="4.50994">
        <ele>937.94</ele>
        <time>2020-09-19T08:22:11.995Z</time>
      </trkpt>
      <trkpt lat="45.31519" lon="4.50983">
        <ele>939.21</ele>
        <time>2020-09-19T08:22:21.698Z</time>
      </trkpt>
      <trkpt lat="45.31525" lon="4.50973">
        <ele>940.45</ele>
        <time>2020-09-19T08:22:30.953Z</time>
      </trkpt>
      <trkpt lat="45.3153" lon="4.50967">
        <ele>941.86</ele>
        <time>2020-09-19T08:22:40.614Z</time>
      </trkpt>
      <trkpt lat="45.31533" lon="4.50962">
        <ele>943.61</ele>
        <time>2020-09-19T08:22:49.972Z</time>
      </trkpt>
      <trkpt lat="45.31536" lon="4.50956">
        <ele>945.1</ele>
        <time>2020-09-19T08:22:59.492Z</time>
      </trkpt>
      <trkpt lat="45.31539" lon="4.50953">
        <ele>946.58</ele>
        <time>2020-09-19T08:23:09.730Z</time>
      </trkpt>
      <trkpt lat="45.31542" lon="4.50946">
        <ele>947.57</ele>
        <time>2020-09-19T08:23:19.109Z</time>
      </trkpt>
      <trkpt lat="45.31544" lon="4.5094">
        <ele>948.12</ele>
        <time>2020-09-19T08:23:28.486Z</time>
      </trkpt>
      <trkpt lat="45.31546" lon="4.50935">
        <ele>948.71</ele>
        <time>2020-09-19T08:23:37.791Z</time>
      </trkpt>
      <trkpt lat="45.31551" lon="4.50927">
        <ele>949.39</ele>
        <time>2020-09-19T08:23:47.000Z</time>
      </trkpt>
      <trkpt lat="45.31555" lon="4.50922">
        <ele>949.85</ele>
        <time>2020-09-19T08:23:57.000Z</time>
      </trkpt>
      <trkpt lat="45.3157" lon="4.50912">
        <ele>950.73</ele>
        <time>2020-09-19T08:24:07.000Z</time>
      </trkpt>
      <trkpt lat="45.31579" lon="4.50908">
        <ele>951.1</ele>
        <time>2020-09-19T08:24:17.000Z</time>
      </trkpt>
      <trkpt lat="45.3158" lon="4.50906">
        <ele>950.93</ele>
        <time>2020-09-19T08:24:27.000Z</time>
      </trkpt>
      <trkpt lat="45.31582" lon="4.50904">
        <ele>950.24</ele>
        <time>2020-09-19T08:24:39.000Z</time>
      </trkpt>
      <trkpt lat="45.31586" lon="4.50901">
        <ele>949.81</ele>
        <time>2020-09-19T08:24:49.000Z</time>
      </trkpt>
      <trkpt lat="45.31587" lon="4.50899">
        <ele>949.47</ele>
        <time>2020-09-19T08:25:09.357Z</time>
      </trkpt>
      <trkpt lat="45.31588" lon="4.50897">
        <ele>949.51</ele>
        <time>2020-09-19T08:25:20.356Z</time>
      </trkpt>
      <trkpt lat="45.31592" lon="4.50893">
        <ele>949.77</ele>
        <time>2020-09-19T08:25:29.812Z</time>
      </trkpt>
      <trkpt lat="45.31596" lon="4.50883">
        <ele>950</ele>
        <time>2020-09-19T08:25:39.838Z</time>
      </trkpt>
      <trkpt lat="45.316" lon="4.50875">
        <ele>950.25</ele>
        <time>2020-09-19T08:25:49.373Z</time>
      </trkpt>
      <trkpt lat="45.31604" lon="4.50864">
        <ele>951.14</ele>
        <time>2020-09-19T08:25:58.672Z</time>
      </trkpt>
      <trkpt lat="45.31608" lon="4.50852">
        <ele>952.07</ele>
        <time>2020-09-19T08:26:07.869Z</time>
      </trkpt>
      <trkpt lat="45.31612" lon="4.50837">
        <ele>952.47</ele>
        <time>2020-09-19T08:26:16.951Z</time>
      </trkpt>
      <trkpt lat="45.31617" lon="4.50818">
        <ele>953.24</ele>
        <time>2020-09-19T08:26:26.190Z</time>
      </trkpt>
      <trkpt lat="45.3162" lon="4.50792">
        <ele>954.04</ele>
        <time>2020-09-19T08:26:35.490Z</time>
      </trkpt>
      <trkpt lat="45.31622" lon="4.50767">
        <ele>954.41</ele>
        <time>2020-09-19T08:26:45.127Z</time>
      </trkpt>
      <trkpt lat="45.31626" lon="4.50748">
        <ele>954.78</ele>
        <time>2020-09-19T08:26:54.756Z</time>
      </trkpt>
      <trkpt lat="45.31628" lon="4.50733">
        <ele>955.16</ele>
        <time>2020-09-19T08:27:04.716Z</time>
      </trkpt>
      <trkpt lat="45.31629" lon="4.5072">
        <ele>956.12</ele>
        <time>2020-09-19T08:27:13.752Z</time>
      </trkpt>
      <trkpt lat="45.3163" lon="4.50708">
        <ele>957.03</ele>
        <time>2020-09-19T08:27:22.950Z</time>
      </trkpt>
      <trkpt lat="45.3163" lon="4.50693">
        <ele>958.14</ele>
        <time>2020-09-19T08:27:32.472Z</time>
      </trkpt>
      <trkpt lat="45.31633" lon="4.50676">
        <ele>959.04</ele>
        <time>2020-09-19T08:27:41.969Z</time>
      </trkpt>
      <trkpt lat="45.31638" lon="4.5066">
        <ele>959.73</ele>
        <time>2020-09-19T08:27:51.291Z</time>
      </trkpt>
      <trkpt lat="45.31639" lon="4.50645">
        <ele>960.95</ele>
        <time>2020-09-19T08:28:00.488Z</time>
      </trkpt>
      <trkpt lat="45.3164" lon="4.50629">
        <ele>962.48</ele>
        <time>2020-09-19T08:28:09.907Z</time>
      </trkpt>
      <trkpt lat="45.3164" lon="4.50613">
        <ele>963.71</ele>
        <time>2020-09-19T08:28:19.973Z</time>
      </trkpt>
      <trkpt lat="45.3164" lon="4.50597">
        <ele>964.3</ele>
        <time>2020-09-19T08:28:29.926Z</time>
      </trkpt>
      <trkpt lat="45.31638" lon="4.50581">
        <ele>964.47</ele>
        <time>2020-09-19T08:28:39.558Z</time>
      </trkpt>
      <trkpt lat="45.31635" lon="4.5057">
        <ele>964.49</ele>
        <time>2020-09-19T08:28:48.593Z</time>
      </trkpt>
      <trkpt lat="45.3163" lon="4.50559">
        <ele>964.66</ele>
        <time>2020-09-19T08:28:57.932Z</time>
      </trkpt>
      <trkpt lat="45.31625" lon="4.50542">
        <ele>965.3</ele>
        <time>2020-09-19T08:29:07.155Z</time>
      </trkpt>
      <trkpt lat="45.3162" lon="4.50528">
        <ele>966.73</ele>
        <time>2020-09-19T08:29:16.815Z</time>
      </trkpt>
      <trkpt lat="45.31615" lon="4.50518">
        <ele>968.7</ele>
        <time>2020-09-19T08:29:25.999Z</time>
      </trkpt>
      <trkpt lat="45.31606" lon="4.50505">
        <ele>970.52</ele>
        <time>2020-09-19T08:29:35.653Z</time>
      </trkpt>
      <trkpt lat="45.31599" lon="4.50497">
        <ele>971.1</ele>
        <time>2020-09-19T08:29:44.670Z</time>
      </trkpt>
      <trkpt lat="45.31592" lon="4.50479">
        <ele>971.63</ele>
        <time>2020-09-19T08:29:54.317Z</time>
      </trkpt>
      <trkpt lat="45.31589" lon="4.5046">
        <ele>971.62</ele>
        <time>2020-09-19T08:30:03.549Z</time>
      </trkpt>
      <trkpt lat="45.31587" lon="4.50443">
        <ele>971.89</ele>
        <time>2020-09-19T08:30:12.975Z</time>
      </trkpt>
      <trkpt lat="45.31584" lon="4.50423">
        <ele>971.21</ele>
        <time>2020-09-19T08:30:22.856Z</time>
      </trkpt>
      <trkpt lat="45.31586" lon="4.50403">
        <ele>970.31</ele>
        <time>2020-09-19T08:30:31.999Z</time>
      </trkpt>
      <trkpt lat="45.31591" lon="4.50388">
        <ele>969.49</ele>
        <time>2020-09-19T08:30:41.974Z</time>
      </trkpt>
      <trkpt lat="45.31598" lon="4.50373">
        <ele>968.48</ele>
        <time>2020-09-19T08:30:51.354Z</time>
      </trkpt>
      <trkpt lat="45.31604" lon="4.50362">
        <ele>967.3</ele>
        <time>2020-09-19T08:31:00.654Z</time>
      </trkpt>
      <trkpt lat="45.31607" lon="4.50348">
        <ele>966.33</ele>
        <time>2020-09-19T08:31:09.752Z</time>
      </trkpt>
      <trkpt lat="45.3161" lon="4.50344">
        <ele>967.81</ele>
        <time>2020-09-19T08:31:18.999Z</time>
      </trkpt>
      <trkpt lat="45.31611" lon="4.50342">
        <ele>967.78</ele>
        <time>2020-09-19T08:32:09.999Z</time>
      </trkpt>
      <trkpt lat="45.31611" lon="4.50339">
        <ele>966.17</ele>
        <time>2020-09-19T08:33:56.156Z</time>
      </trkpt>
      <trkpt lat="45.31622" lon="4.50317">
        <ele>965.69</ele>
        <time>2020-09-19T08:34:05.612Z</time>
      </trkpt>
      <trkpt lat="45.31629" lon="4.50304">
        <ele>965.64</ele>
        <time>2020-09-19T08:34:14.990Z</time>
      </trkpt>
      <trkpt lat="45.31632" lon="4.50297">
        <ele>965.6</ele>
        <time>2020-09-19T08:34:24.531Z</time>
      </trkpt>
      <trkpt lat="45.31638" lon="4.50284">
        <ele>965.21</ele>
        <time>2020-09-19T08:34:33.855Z</time>
      </trkpt>
      <trkpt lat="45.31645" lon="4.50267">
        <ele>964.75</ele>
        <time>2020-09-19T08:34:43.125Z</time>
      </trkpt>
      <trkpt lat="45.31645" lon="4.50252">
        <ele>964.43</ele>
        <time>2020-09-19T08:34:52.260Z</time>
      </trkpt>
      <trkpt lat="45.31642" lon="4.50243">
        <ele>964.99</ele>
        <time>2020-09-19T08:35:01.536Z</time>
      </trkpt>
      <trkpt lat="45.31637" lon="4.50238">
        <ele>966.51</ele>
        <time>2020-09-19T08:35:10.796Z</time>
      </trkpt>
      <trkpt lat="45.31636" lon="4.50229">
        <ele>967.96</ele>
        <time>2020-09-19T08:35:20.232Z</time>
      </trkpt>
      <trkpt lat="45.31639" lon="4.50218">
        <ele>969.04</ele>
        <time>2020-09-19T08:35:29.930Z</time>
      </trkpt>
      <trkpt lat="45.3164" lon="4.50211">
        <ele>970.01</ele>
        <time>2020-09-19T08:35:39.471Z</time>
      </trkpt>
      <trkpt lat="45.31639" lon="4.50209">
        <ele>970.03</ele>
        <time>2020-09-19T08:35:48.999Z</time>
      </trkpt>
      <trkpt lat="45.3164" lon="4.50206">
        <ele>970.96</ele>
        <time>2020-09-19T08:36:06.629Z</time>
      </trkpt>
      <trkpt lat="45.31644" lon="4.502">
        <ele>972.52</ele>
        <time>2020-09-19T08:36:15.774Z</time>
      </trkpt>
      <trkpt lat="45.31644" lon="4.50192">
        <ele>974.5</ele>
        <time>2020-09-19T08:36:25.455Z</time>
      </trkpt>
      <trkpt lat="45.31637" lon="4.50193">
        <ele>976.03</ele>
        <time>2020-09-19T08:36:34.935Z</time>
      </trkpt>
      <trkpt lat="45.31628" lon="4.50189">
        <ele>978</ele>
        <time>2020-09-19T08:36:44.712Z</time>
      </trkpt>
      <trkpt lat="45.31618" lon="4.50187">
        <ele>979.91</ele>
        <time>2020-09-19T08:36:54.672Z</time>
      </trkpt>
      <trkpt lat="45.31603" lon="4.50186">
        <ele>981.2</ele>
        <time>2020-09-19T08:37:04.912Z</time>
      </trkpt>
      <trkpt lat="45.31591" lon="4.50182">
        <ele>983.5</ele>
        <time>2020-09-19T08:37:14.651Z</time>
      </trkpt>
      <trkpt lat="45.31585" lon="4.50173">
        <ele>985.3</ele>
        <time>2020-09-19T08:37:23.769Z</time>
      </trkpt>
      <trkpt lat="45.31583" lon="4.50166">
        <ele>987.58</ele>
        <time>2020-09-19T08:37:33.004Z</time>
      </trkpt>
      <trkpt lat="45.31583" lon="4.50158">
        <ele>989.67</ele>
        <time>2020-09-19T08:37:42.440Z</time>
      </trkpt>
      <trkpt lat="45.31583" lon="4.50145">
        <ele>991.79</ele>
        <time>2020-09-19T08:37:52.015Z</time>
      </trkpt>
      <trkpt lat="45.31582" lon="4.50135">
        <ele>993.77</ele>
        <time>2020-09-19T08:38:02.337Z</time>
      </trkpt>
      <trkpt lat="45.31584" lon="4.50127">
        <ele>995.64</ele>
        <time>2020-09-19T08:38:11.657Z</time>
      </trkpt>
      <trkpt lat="45.31587" lon="4.50119">
        <ele>997.36</ele>
        <time>2020-09-19T08:38:21.955Z</time>
      </trkpt>
      <trkpt lat="45.31588" lon="4.50107">
        <ele>998.83</ele>
        <time>2020-09-19T08:38:31.735Z</time>
      </trkpt>
      <trkpt lat="45.3159" lon="4.50099">
        <ele>1000.44</ele>
        <time>2020-09-19T08:38:41.214Z</time>
      </trkpt>
      <trkpt lat="45.31588" lon="4.50092">
        <ele>1002.04</ele>
        <time>2020-09-19T08:38:50.992Z</time>
      </trkpt>
      <trkpt lat="45.31586" lon="4.50079">
        <ele>1003.5</ele>
        <time>2020-09-19T08:39:00.814Z</time>
      </trkpt>
      <trkpt lat="45.31583" lon="4.50072">
        <ele>1004.2</ele>
        <time>2020-09-19T08:39:10.352Z</time>
      </trkpt>
      <trkpt lat="45.31579" lon="4.50068">
        <ele>1006.16</ele>
        <time>2020-09-19T08:39:19.393Z</time>
      </trkpt>
      <trkpt lat="45.31568" lon="4.50062">
        <ele>1007.71</ele>
        <time>2020-09-19T08:39:28.849Z</time>
      </trkpt>
      <trkpt lat="45.31561" lon="4.50056">
        <ele>1008.7</ele>
        <time>2020-09-19T08:39:38.251Z</time>
      </trkpt>
      <trkpt lat="45.31557" lon="4.50053">
        <ele>1009.46</ele>
        <time>2020-09-19T08:39:47.989Z</time>
      </trkpt>
      <trkpt lat="45.31549" lon="4.50047">
        <ele>1010.34</ele>
        <time>2020-09-19T08:39:57.207Z</time>
      </trkpt>
      <trkpt lat="45.31536" lon="4.50039">
        <ele>1011.6</ele>
        <time>2020-09-19T08:40:06.715Z</time>
      </trkpt>
      <trkpt lat="45.31531" lon="4.50032">
        <ele>1013.14</ele>
        <time>2020-09-19T08:40:16.000Z</time>
      </trkpt>
      <trkpt lat="45.31526" lon="4.50023">
        <ele>1014.59</ele>
        <time>2020-09-19T08:40:26.144Z</time>
      </trkpt>
      <trkpt lat="45.31522" lon="4.50017">
        <ele>1016.54</ele>
        <time>2020-09-19T08:40:35.910Z</time>
      </trkpt>
      <trkpt lat="45.31527" lon="4.50004">
        <ele>1017.91</ele>
        <time>2020-09-19T08:40:45.852Z</time>
      </trkpt>
      <trkpt lat="45.31524" lon="4.49987">
        <ele>1018.95</ele>
        <time>2020-09-19T08:40:55.451Z</time>
      </trkpt>
      <trkpt lat="45.31522" lon="4.49975">
        <ele>1019.66</ele>
        <time>2020-09-19T08:41:05.000Z</time>
      </trkpt>
      <trkpt lat="45.3152" lon="4.49969">
        <ele>1020.12</ele>
        <time>2020-09-19T08:41:14.789Z</time>
      </trkpt>
      <trkpt lat="45.31515" lon="4.4996">
        <ele>1020.58</ele>
        <time>2020-09-19T08:41:23.808Z</time>
      </trkpt>
      <trkpt lat="45.31506" lon="4.49948">
        <ele>1021.98</ele>
        <time>2020-09-19T08:41:34.016Z</time>
      </trkpt>
      <trkpt lat="45.31502" lon="4.49934">
        <ele>1023.67</ele>
        <time>2020-09-19T08:41:43.699Z</time>
      </trkpt>
      <trkpt lat="45.31497" lon="4.4992">
        <ele>1024.54</ele>
        <time>2020-09-19T08:41:53.216Z</time>
      </trkpt>
      <trkpt lat="45.3149" lon="4.49909">
        <ele>1025.6</ele>
        <time>2020-09-19T08:42:03.000Z</time>
      </trkpt>
      <trkpt lat="45.31489" lon="4.49907">
        <ele>1026</ele>
        <time>2020-09-19T08:42:16.653Z</time>
      </trkpt>
      <trkpt lat="45.31485" lon="4.49902">
        <ele>1026.47</ele>
        <time>2020-09-19T08:42:25.893Z</time>
      </trkpt>
      <trkpt lat="45.3148" lon="4.49888">
        <ele>1026.97</ele>
        <time>2020-09-19T08:42:35.313Z</time>
      </trkpt>
      <trkpt lat="45.31477" lon="4.49879">
        <ele>1027.9</ele>
        <time>2020-09-19T08:42:45.000Z</time>
      </trkpt>
      <trkpt lat="45.31475" lon="4.49872">
        <ele>1028.27</ele>
        <time>2020-09-19T08:42:54.610Z</time>
      </trkpt>
      <trkpt lat="45.31468" lon="4.49858">
        <ele>1029.25</ele>
        <time>2020-09-19T08:43:03.888Z</time>
      </trkpt>
      <trkpt lat="45.31463" lon="4.49846">
        <ele>1030.93</ele>
        <time>2020-09-19T08:43:13.637Z</time>
      </trkpt>
      <trkpt lat="45.31466" lon="4.49835">
        <ele>1031.9</ele>
        <time>2020-09-19T08:43:22.878Z</time>
      </trkpt>
      <trkpt lat="45.31468" lon="4.49818">
        <ele>1033.21</ele>
        <time>2020-09-19T08:43:33.191Z</time>
      </trkpt>
      <trkpt lat="45.31466" lon="4.49807">
        <ele>1032.98</ele>
        <time>2020-09-19T08:43:42.832Z</time>
      </trkpt>
      <trkpt lat="45.31467" lon="4.49798">
        <ele>1032.98</ele>
        <time>2020-09-19T08:43:52.000Z</time>
      </trkpt>
      <trkpt lat="45.31466" lon="4.49795">
        <ele>1032.7</ele>
        <time>2020-09-19T08:44:02.000Z</time>
      </trkpt>
      <trkpt lat="45.31468" lon="4.49794">
        <ele>1033.03</ele>
        <time>2020-09-19T08:44:15.512Z</time>
      </trkpt>
      <trkpt lat="45.31473" lon="4.49791">
        <ele>1033.87</ele>
        <time>2020-09-19T08:44:25.000Z</time>
      </trkpt>
      <trkpt lat="45.3147" lon="4.49791">
        <ele>1033.62</ele>
        <time>2020-09-19T08:44:34.871Z</time>
      </trkpt>
      <trkpt lat="45.31465" lon="4.4978">
        <ele>1033.75</ele>
        <time>2020-09-19T08:44:44.897Z</time>
      </trkpt>
      <trkpt lat="45.31466" lon="4.49769">
        <ele>1033.57</ele>
        <time>2020-09-19T08:44:54.377Z</time>
      </trkpt>
      <trkpt lat="45.31466" lon="4.49757">
        <ele>1033.73</ele>
        <time>2020-09-19T08:45:03.415Z</time>
      </trkpt>
      <trkpt lat="45.31466" lon="4.49745">
        <ele>1033.21</ele>
        <time>2020-09-19T08:45:12.494Z</time>
      </trkpt>
      <trkpt lat="45.31465" lon="4.4973">
        <ele>1033.12</ele>
        <time>2020-09-19T08:45:21.715Z</time>
      </trkpt>
      <trkpt lat="45.31464" lon="4.49714">
        <ele>1032.9</ele>
        <time>2020-09-19T08:45:31.692Z</time>
      </trkpt>
      <trkpt lat="45.31457" lon="4.49701">
        <ele>1032.81</ele>
        <time>2020-09-19T08:45:41.732Z</time>
      </trkpt>
      <trkpt lat="45.3145" lon="4.49689">
        <ele>1034.13</ele>
        <time>2020-09-19T08:45:51.729Z</time>
      </trkpt>
      <trkpt lat="45.31445" lon="4.49676">
        <ele>1035.07</ele>
        <time>2020-09-19T08:46:01.715Z</time>
      </trkpt>
      <trkpt lat="45.31439" lon="4.49663">
        <ele>1035.28</ele>
        <time>2020-09-19T08:46:11.574Z</time>
      </trkpt>
      <trkpt lat="45.31435" lon="4.49651">
        <ele>1036.29</ele>
        <time>2020-09-19T08:46:20.732Z</time>
      </trkpt>
      <trkpt lat="45.31433" lon="4.49639">
        <ele>1037.32</ele>
        <time>2020-09-19T08:46:29.875Z</time>
      </trkpt>
      <trkpt lat="45.3143" lon="4.49627">
        <ele>1038.53</ele>
        <time>2020-09-19T08:46:39.632Z</time>
      </trkpt>
      <trkpt lat="45.31432" lon="4.49615">
        <ele>1039.45</ele>
        <time>2020-09-19T08:46:48.710Z</time>
      </trkpt>
      <trkpt lat="45.31434" lon="4.49602">
        <ele>1040.71</ele>
        <time>2020-09-19T08:46:58.870Z</time>
      </trkpt>
      <trkpt lat="45.31436" lon="4.4959">
        <ele>1043.25</ele>
        <time>2020-09-19T08:47:08.142Z</time>
      </trkpt>
      <trkpt lat="45.31435" lon="4.49578">
        <ele>1045.21</ele>
        <time>2020-09-19T08:47:17.428Z</time>
      </trkpt>
      <trkpt lat="45.31433" lon="4.49565">
        <ele>1047.19</ele>
        <time>2020-09-19T08:47:26.559Z</time>
      </trkpt>
      <trkpt lat="45.31428" lon="4.49555">
        <ele>1049.2</ele>
        <time>2020-09-19T08:47:35.916Z</time>
      </trkpt>
      <trkpt lat="45.31424" lon="4.49546">
        <ele>1051.18</ele>
        <time>2020-09-19T08:47:45.278Z</time>
      </trkpt>
      <trkpt lat="45.3142" lon="4.49535">
        <ele>1052.32</ele>
        <time>2020-09-19T08:47:55.192Z</time>
      </trkpt>
      <trkpt lat="45.31416" lon="4.49523">
        <ele>1054.17</ele>
        <time>2020-09-19T08:48:04.515Z</time>
      </trkpt>
      <trkpt lat="45.31414" lon="4.49512">
        <ele>1055.59</ele>
        <time>2020-09-19T08:48:13.632Z</time>
      </trkpt>
      <trkpt lat="45.31412" lon="4.49501">
        <ele>1056.97</ele>
        <time>2020-09-19T08:48:22.894Z</time>
      </trkpt>
      <trkpt lat="45.31412" lon="4.49492">
        <ele>1058.16</ele>
        <time>2020-09-19T08:48:32.909Z</time>
      </trkpt>
      <trkpt lat="45.31414" lon="4.49479">
        <ele>1059.37</ele>
        <time>2020-09-19T08:48:42.657Z</time>
      </trkpt>
      <trkpt lat="45.31415" lon="4.49464">
        <ele>1059.66</ele>
        <time>2020-09-19T08:48:51.677Z</time>
      </trkpt>
      <trkpt lat="45.31414" lon="4.49452">
        <ele>1060.51</ele>
        <time>2020-09-19T08:49:01.276Z</time>
      </trkpt>
      <trkpt lat="45.31412" lon="4.49436">
        <ele>1061.07</ele>
        <time>2020-09-19T08:49:10.475Z</time>
      </trkpt>
      <trkpt lat="45.31408" lon="4.49423">
        <ele>1061.93</ele>
        <time>2020-09-19T08:49:19.615Z</time>
      </trkpt>
      <trkpt lat="45.31399" lon="4.49413">
        <ele>1062.16</ele>
        <time>2020-09-19T08:49:28.856Z</time>
      </trkpt>
      <trkpt lat="45.31389" lon="4.49404">
        <ele>1062.97</ele>
        <time>2020-09-19T08:49:38.374Z</time>
      </trkpt>
      <trkpt lat="45.31381" lon="4.49398">
        <ele>1064.58</ele>
        <time>2020-09-19T08:49:47.535Z</time>
      </trkpt>
      <trkpt lat="45.31371" lon="4.49394">
        <ele>1065.57</ele>
        <time>2020-09-19T08:49:56.852Z</time>
      </trkpt>
      <trkpt lat="45.31361" lon="4.49391">
        <ele>1066.43</ele>
        <time>2020-09-19T08:50:05.932Z</time>
      </trkpt>
      <trkpt lat="45.31349" lon="4.49387">
        <ele>1066.84</ele>
        <time>2020-09-19T08:50:15.149Z</time>
      </trkpt>
      <trkpt lat="45.31338" lon="4.49382">
        <ele>1066.59</ele>
        <time>2020-09-19T08:50:24.228Z</time>
      </trkpt>
      <trkpt lat="45.31328" lon="4.49375">
        <ele>1066.27</ele>
        <time>2020-09-19T08:50:33.328Z</time>
      </trkpt>
      <trkpt lat="45.31321" lon="4.49365">
        <ele>1067.08</ele>
        <time>2020-09-19T08:50:42.937Z</time>
      </trkpt>
      <trkpt lat="45.31312" lon="4.49357">
        <ele>1068.22</ele>
        <time>2020-09-19T08:50:52.515Z</time>
      </trkpt>
      <trkpt lat="45.31306" lon="4.49348">
        <ele>1067.66</ele>
        <time>2020-09-19T08:51:01.873Z</time>
      </trkpt>
      <trkpt lat="45.313" lon="4.49337">
        <ele>1067.61</ele>
        <time>2020-09-19T08:51:10.892Z</time>
      </trkpt>
      <trkpt lat="45.31293" lon="4.49324">
        <ele>1067.3</ele>
        <time>2020-09-19T08:51:20.000Z</time>
      </trkpt>
      <trkpt lat="45.31291" lon="4.49309">
        <ele>1067.36</ele>
        <time>2020-09-19T08:51:29.394Z</time>
      </trkpt>
      <trkpt lat="45.31292" lon="4.49295">
        <ele>1067.37</ele>
        <time>2020-09-19T08:51:38.656Z</time>
      </trkpt>
      <trkpt lat="45.31291" lon="4.4928">
        <ele>1068.07</ele>
        <time>2020-09-19T08:51:47.813Z</time>
      </trkpt>
      <trkpt lat="45.31291" lon="4.49268">
        <ele>1067.91</ele>
        <time>2020-09-19T08:51:57.557Z</time>
      </trkpt>
      <trkpt lat="45.3129" lon="4.49255">
        <ele>1068.85</ele>
        <time>2020-09-19T08:52:07.011Z</time>
      </trkpt>
      <trkpt lat="45.31288" lon="4.49236">
        <ele>1068.73</ele>
        <time>2020-09-19T08:52:16.752Z</time>
      </trkpt>
      <trkpt lat="45.31285" lon="4.49221">
        <ele>1069.5</ele>
        <time>2020-09-19T08:52:25.991Z</time>
      </trkpt>
      <trkpt lat="45.31284" lon="4.492">
        <ele>1069.86</ele>
        <time>2020-09-19T08:52:35.429Z</time>
      </trkpt>
      <trkpt lat="45.31285" lon="4.49184">
        <ele>1069.95</ele>
        <time>2020-09-19T08:52:44.575Z</time>
      </trkpt>
      <trkpt lat="45.31287" lon="4.49168">
        <ele>1070.4</ele>
        <time>2020-09-19T08:52:54.774Z</time>
      </trkpt>
      <trkpt lat="45.31286" lon="4.49151">
        <ele>1070.94</ele>
        <time>2020-09-19T08:53:04.313Z</time>
      </trkpt>
      <trkpt lat="45.31286" lon="4.49136">
        <ele>1071.55</ele>
        <time>2020-09-19T08:53:13.456Z</time>
      </trkpt>
      <trkpt lat="45.31286" lon="4.49124">
        <ele>1071.04</ele>
        <time>2020-09-19T08:53:22.835Z</time>
      </trkpt>
      <trkpt lat="45.31288" lon="4.49113">
        <ele>1072.95</ele>
        <time>2020-09-19T08:53:31.871Z</time>
      </trkpt>
      <trkpt lat="45.31287" lon="4.491">
        <ele>1074.48</ele>
        <time>2020-09-19T08:53:40.999Z</time>
      </trkpt>
      <trkpt lat="45.31286" lon="4.4909">
        <ele>1075.64</ele>
        <time>2020-09-19T08:53:50.611Z</time>
      </trkpt>
      <trkpt lat="45.31288" lon="4.49076">
        <ele>1077.49</ele>
        <time>2020-09-19T08:53:59.972Z</time>
      </trkpt>
      <trkpt lat="45.31288" lon="4.4906">
        <ele>1078.62</ele>
        <time>2020-09-19T08:54:09.989Z</time>
      </trkpt>
      <trkpt lat="45.31288" lon="4.49048">
        <ele>1079.45</ele>
        <time>2020-09-19T08:54:19.808Z</time>
      </trkpt>
      <trkpt lat="45.31291" lon="4.49037">
        <ele>1080.73</ele>
        <time>2020-09-19T08:54:29.548Z</time>
      </trkpt>
      <trkpt lat="45.31292" lon="4.49027">
        <ele>1082.68</ele>
        <time>2020-09-19T08:54:38.841Z</time>
      </trkpt>
      <trkpt lat="45.31289" lon="4.49016">
        <ele>1084.67</ele>
        <time>2020-09-19T08:54:47.999Z</time>
      </trkpt>
      <trkpt lat="45.31287" lon="4.49008">
        <ele>1086.25</ele>
        <time>2020-09-19T08:54:57.006Z</time>
      </trkpt>
      <trkpt lat="45.31285" lon="4.48992">
        <ele>1087.39</ele>
        <time>2020-09-19T08:55:06.809Z</time>
      </trkpt>
      <trkpt lat="45.31283" lon="4.48977">
        <ele>1087.79</ele>
        <time>2020-09-19T08:55:16.398Z</time>
      </trkpt>
      <trkpt lat="45.31284" lon="4.48964">
        <ele>1089.07</ele>
        <time>2020-09-19T08:55:25.418Z</time>
      </trkpt>
      <trkpt lat="45.31284" lon="4.48951">
        <ele>1090.72</ele>
        <time>2020-09-19T08:55:34.553Z</time>
      </trkpt>
      <trkpt lat="45.31284" lon="4.48938">
        <ele>1091.17</ele>
        <time>2020-09-19T08:55:43.595Z</time>
      </trkpt>
      <trkpt lat="45.31284" lon="4.48927">
        <ele>1091.27</ele>
        <time>2020-09-19T08:55:53.769Z</time>
      </trkpt>
      <trkpt lat="45.31285" lon="4.48922">
        <ele>1092.11</ele>
        <time>2020-09-19T08:56:02.792Z</time>
      </trkpt>
      <trkpt lat="45.31285" lon="4.48909">
        <ele>1092.84</ele>
        <time>2020-09-19T08:56:11.927Z</time>
      </trkpt>
      <trkpt lat="45.3128" lon="4.48893">
        <ele>1094.47</ele>
        <time>2020-09-19T08:56:21.564Z</time>
      </trkpt>
      <trkpt lat="45.31276" lon="4.48878">
        <ele>1095.2</ele>
        <time>2020-09-19T08:56:30.755Z</time>
      </trkpt>
      <trkpt lat="45.31269" lon="4.4887">
        <ele>1095.49</ele>
        <time>2020-09-19T08:56:39.993Z</time>
      </trkpt>
      <trkpt lat="45.31266" lon="4.48863">
        <ele>1097.03</ele>
        <time>2020-09-19T08:56:49.752Z</time>
      </trkpt>
      <trkpt lat="45.31265" lon="4.48858">
        <ele>1099.15</ele>
        <time>2020-09-19T08:56:59.171Z</time>
      </trkpt>
      <trkpt lat="45.31262" lon="4.48852">
        <ele>1100.11</ele>
        <time>2020-09-19T08:57:08.770Z</time>
      </trkpt>
      <trkpt lat="45.31256" lon="4.48847">
        <ele>1101.5</ele>
        <time>2020-09-19T08:57:17.808Z</time>
      </trkpt>
      <trkpt lat="45.31248" lon="4.48839">
        <ele>1102.25</ele>
        <time>2020-09-19T08:57:27.328Z</time>
      </trkpt>
      <trkpt lat="45.31237" lon="4.48829">
        <ele>1102.59</ele>
        <time>2020-09-19T08:57:36.689Z</time>
      </trkpt>
      <trkpt lat="45.31227" lon="4.48818">
        <ele>1103.99</ele>
        <time>2020-09-19T08:57:46.308Z</time>
      </trkpt>
      <trkpt lat="45.31217" lon="4.48811">
        <ele>1106</ele>
        <time>2020-09-19T08:57:55.647Z</time>
      </trkpt>
      <trkpt lat="45.31208" lon="4.48805">
        <ele>1107.04</ele>
        <time>2020-09-19T08:58:04.856Z</time>
      </trkpt>
      <trkpt lat="45.31202" lon="4.48793">
        <ele>1107.65</ele>
        <time>2020-09-19T08:58:14.065Z</time>
      </trkpt>
      <trkpt lat="45.31196" lon="4.48786">
        <ele>1108.25</ele>
        <time>2020-09-19T08:58:23.478Z</time>
      </trkpt>
      <trkpt lat="45.31187" lon="4.48776">
        <ele>1109.62</ele>
        <time>2020-09-19T08:58:32.981Z</time>
      </trkpt>
      <trkpt lat="45.31178" lon="4.48767">
        <ele>1110.91</ele>
        <time>2020-09-19T08:58:42.516Z</time>
      </trkpt>
      <trkpt lat="45.31172" lon="4.48756">
        <ele>1112.35</ele>
        <time>2020-09-19T08:58:51.595Z</time>
      </trkpt>
      <trkpt lat="45.31164" lon="4.48748">
        <ele>1113.96</ele>
        <time>2020-09-19T08:59:00.772Z</time>
      </trkpt>
      <trkpt lat="45.3116" lon="4.48744">
        <ele>1115.71</ele>
        <time>2020-09-19T08:59:10.731Z</time>
      </trkpt>
      <trkpt lat="45.3115" lon="4.48734">
        <ele>1117.75</ele>
        <time>2020-09-19T08:59:20.792Z</time>
      </trkpt>
      <trkpt lat="45.31139" lon="4.48727">
        <ele>1119.15</ele>
        <time>2020-09-19T08:59:30.352Z</time>
      </trkpt>
      <trkpt lat="45.31131" lon="4.48722">
        <ele>1121.18</ele>
        <time>2020-09-19T08:59:39.810Z</time>
      </trkpt>
      <trkpt lat="45.31123" lon="4.48717">
        <ele>1122.75</ele>
        <time>2020-09-19T08:59:49.888Z</time>
      </trkpt>
      <trkpt lat="45.31118" lon="4.4871">
        <ele>1123.15</ele>
        <time>2020-09-19T08:59:59.249Z</time>
      </trkpt>
      <trkpt lat="45.31109" lon="4.48702">
        <ele>1121.66</ele>
        <time>2020-09-19T09:00:08.390Z</time>
      </trkpt>
      <trkpt lat="45.311" lon="4.48694">
        <ele>1124.13</ele>
        <time>2020-09-19T09:00:17.590Z</time>
      </trkpt>
      <trkpt lat="45.31091" lon="4.48688">
        <ele>1123.57</ele>
        <time>2020-09-19T09:00:26.796Z</time>
      </trkpt>
      <trkpt lat="45.31083" lon="4.48681">
        <ele>1124.06</ele>
        <time>2020-09-19T09:00:35.993Z</time>
      </trkpt>
      <trkpt lat="45.31076" lon="4.4867">
        <ele>1124.79</ele>
        <time>2020-09-19T09:00:45.535Z</time>
      </trkpt>
      <trkpt lat="45.31071" lon="4.48659">
        <ele>1124.54</ele>
        <time>2020-09-19T09:00:54.553Z</time>
      </trkpt>
      <trkpt lat="45.31067" lon="4.48651">
        <ele>1127.14</ele>
        <time>2020-09-19T09:01:04.000Z</time>
      </trkpt>
      <trkpt lat="45.3106" lon="4.4864">
        <ele>1128.75</ele>
        <time>2020-09-19T09:01:13.150Z</time>
      </trkpt>
      <trkpt lat="45.31057" lon="4.4863">
        <ele>1130.79</ele>
        <time>2020-09-19T09:01:23.986Z</time>
      </trkpt>
      <trkpt lat="45.31053" lon="4.4862">
        <ele>1131.93</ele>
        <time>2020-09-19T09:01:33.708Z</time>
      </trkpt>
      <trkpt lat="45.31046" lon="4.48606">
        <ele>1133.36</ele>
        <time>2020-09-19T09:01:43.296Z</time>
      </trkpt>
      <trkpt lat="45.3104" lon="4.48597">
        <ele>1134.04</ele>
        <time>2020-09-19T09:01:52.716Z</time>
      </trkpt>
      <trkpt lat="45.31037" lon="4.48588">
        <ele>1136.02</ele>
        <time>2020-09-19T09:02:01.976Z</time>
      </trkpt>
      <trkpt lat="45.31036" lon="4.48575">
        <ele>1136.66</ele>
        <time>2020-09-19T09:02:11.000Z</time>
      </trkpt>
      <trkpt lat="45.31035" lon="4.48561">
        <ele>1138.57</ele>
        <time>2020-09-19T09:02:20.735Z</time>
      </trkpt>
      <trkpt lat="45.31032" lon="4.48554">
        <ele>1139.88</ele>
        <time>2020-09-19T09:02:30.000Z</time>
      </trkpt>
      <trkpt lat="45.31033" lon="4.48552">
        <ele>1139.89</ele>
        <time>2020-09-19T09:02:49.000Z</time>
      </trkpt>
      <trkpt lat="45.31035" lon="4.4855">
        <ele>1139.69</ele>
        <time>2020-09-19T09:03:01.000Z</time>
      </trkpt>
      <trkpt lat="45.31034" lon="4.48548">
        <ele>1140.18</ele>
        <time>2020-09-19T09:03:19.000Z</time>
      </trkpt>
      <trkpt lat="45.31032" lon="4.48548">
        <ele>1139.69</ele>
        <time>2020-09-19T09:03:37.000Z</time>
      </trkpt>
      <trkpt lat="45.3103" lon="4.48547">
        <ele>1140</ele>
        <time>2020-09-19T09:04:15.000Z</time>
      </trkpt>
      <trkpt lat="45.31028" lon="4.48545">
        <ele>1140.14</ele>
        <time>2020-09-19T09:04:25.000Z</time>
      </trkpt>
      <trkpt lat="45.31028" lon="4.48542">
        <ele>1139.8</ele>
        <time>2020-09-19T09:05:07.000Z</time>
      </trkpt>
      <trkpt lat="45.3103" lon="4.48541">
        <ele>1140.41</ele>
        <time>2020-09-19T09:05:54.993Z</time>
      </trkpt>
      <trkpt lat="45.31032" lon="4.48525">
        <ele>1142.25</ele>
        <time>2020-09-19T09:06:04.995Z</time>
      </trkpt>
      <trkpt lat="45.31036" lon="4.48511">
        <ele>1142.88</ele>
        <time>2020-09-19T09:06:14.513Z</time>
      </trkpt>
      <trkpt lat="45.31039" lon="4.48499">
        <ele>1144.28</ele>
        <time>2020-09-19T09:06:23.958Z</time>
      </trkpt>
      <trkpt lat="45.31044" lon="4.48487">
        <ele>1144.64</ele>
        <time>2020-09-19T09:06:32.972Z</time>
      </trkpt>
      <trkpt lat="45.31047" lon="4.48476">
        <ele>1145.56</ele>
        <time>2020-09-19T09:06:42.811Z</time>
      </trkpt>
      <trkpt lat="45.31048" lon="4.48463">
        <ele>1146.67</ele>
        <time>2020-09-19T09:06:52.371Z</time>
      </trkpt>
      <trkpt lat="45.31049" lon="4.48448">
        <ele>1147.7</ele>
        <time>2020-09-19T09:07:01.593Z</time>
      </trkpt>
      <trkpt lat="45.31049" lon="4.48435">
        <ele>1149.3</ele>
        <time>2020-09-19T09:07:11.771Z</time>
      </trkpt>
      <trkpt lat="45.31049" lon="4.48422">
        <ele>1150.6</ele>
        <time>2020-09-19T09:07:21.688Z</time>
      </trkpt>
      <trkpt lat="45.3105" lon="4.48407">
        <ele>1151.69</ele>
        <time>2020-09-19T09:07:31.767Z</time>
      </trkpt>
      <trkpt lat="45.3105" lon="4.48394">
        <ele>1153.37</ele>
        <time>2020-09-19T09:07:41.617Z</time>
      </trkpt>
      <trkpt lat="45.31048" lon="4.48386">
        <ele>1154.32</ele>
        <time>2020-09-19T09:07:50.785Z</time>
      </trkpt>
      <trkpt lat="45.31041" lon="4.48372">
        <ele>1155.22</ele>
        <time>2020-09-19T09:08:00.135Z</time>
      </trkpt>
      <trkpt lat="45.3103" lon="4.48352">
        <ele>1156.76</ele>
        <time>2020-09-19T09:08:10.000Z</time>
      </trkpt>
      <trkpt lat="45.31023" lon="4.48338">
        <ele>1156.89</ele>
        <time>2020-09-19T09:08:19.273Z</time>
      </trkpt>
      <trkpt lat="45.31014" lon="4.4832">
        <ele>1155.53</ele>
        <time>2020-09-19T09:08:29.000Z</time>
      </trkpt>
      <trkpt lat="45.31014" lon="4.48306">
        <ele>1155.45</ele>
        <time>2020-09-19T09:08:38.613Z</time>
      </trkpt>
      <trkpt lat="45.31018" lon="4.48294">
        <ele>1156.07</ele>
        <time>2020-09-19T09:08:48.791Z</time>
      </trkpt>
      <trkpt lat="45.3102" lon="4.48278">
        <ele>1156.59</ele>
        <time>2020-09-19T09:08:58.231Z</time>
      </trkpt>
      <trkpt lat="45.31023" lon="4.48264">
        <ele>1157.53</ele>
        <time>2020-09-19T09:09:07.467Z</time>
      </trkpt>
      <trkpt lat="45.31024" lon="4.48249">
        <ele>1159.65</ele>
        <time>2020-09-19T09:09:16.495Z</time>
      </trkpt>
      <trkpt lat="45.31028" lon="4.4824">
        <ele>1161.29</ele>
        <time>2020-09-19T09:09:25.755Z</time>
      </trkpt>
      <trkpt lat="45.31032" lon="4.48229">
        <ele>1162.42</ele>
        <time>2020-09-19T09:09:34.856Z</time>
      </trkpt>
      <trkpt lat="45.31034" lon="4.48217">
        <ele>1164.32</ele>
        <time>2020-09-19T09:09:44.970Z</time>
      </trkpt>
      <trkpt lat="45.31036" lon="4.48211">
        <ele>1165.22</ele>
        <time>2020-09-19T09:09:54.531Z</time>
      </trkpt>
      <trkpt lat="45.3104" lon="4.48208">
        <ele>1165.97</ele>
        <time>2020-09-19T09:10:04.729Z</time>
      </trkpt>
      <trkpt lat="45.31041" lon="4.48205">
        <ele>1167.22</ele>
        <time>2020-09-19T09:10:14.689Z</time>
      </trkpt>
      <trkpt lat="45.31041" lon="4.48201">
        <ele>1168.86</ele>
        <time>2020-09-19T09:10:23.747Z</time>
      </trkpt>
      <trkpt lat="45.31044" lon="4.48197">
        <ele>1169.29</ele>
        <time>2020-09-19T09:10:33.326Z</time>
      </trkpt>
      <trkpt lat="45.31048" lon="4.48191">
        <ele>1169.4</ele>
        <time>2020-09-19T09:10:42.676Z</time>
      </trkpt>
      <trkpt lat="45.3105" lon="4.48187">
        <ele>1169.71</ele>
        <time>2020-09-19T09:10:51.796Z</time>
      </trkpt>
      <trkpt lat="45.31055" lon="4.48186">
        <ele>1170.98</ele>
        <time>2020-09-19T09:11:00.873Z</time>
      </trkpt>
      <trkpt lat="45.31058" lon="4.48179">
        <ele>1171.88</ele>
        <time>2020-09-19T09:11:09.932Z</time>
      </trkpt>
      <trkpt lat="45.31066" lon="4.48162">
        <ele>1172.34</ele>
        <time>2020-09-19T09:11:19.673Z</time>
      </trkpt>
      <trkpt lat="45.31062" lon="4.48153">
        <ele>1171</ele>
        <time>2020-09-19T09:11:28.710Z</time>
      </trkpt>
      <trkpt lat="45.31081" lon="4.48121">
        <ele>1170.94</ele>
        <time>2020-09-19T09:11:37.770Z</time>
      </trkpt>
      <trkpt lat="45.31078" lon="4.48109">
        <ele>1170.74</ele>
        <time>2020-09-19T09:11:46.828Z</time>
      </trkpt>
      <trkpt lat="45.31068" lon="4.48101">
        <ele>1170.05</ele>
        <time>2020-09-19T09:11:55.892Z</time>
      </trkpt>
      <trkpt lat="45.31058" lon="4.48092">
        <ele>1169.56</ele>
        <time>2020-09-19T09:12:05.856Z</time>
      </trkpt>
      <trkpt lat="45.31044" lon="4.4809">
        <ele>1170.16</ele>
        <time>2020-09-19T09:12:15.913Z</time>
      </trkpt>
      <trkpt lat="45.3103" lon="4.4809">
        <ele>1168.88</ele>
        <time>2020-09-19T09:12:25.631Z</time>
      </trkpt>
      <trkpt lat="45.31022" lon="4.48082">
        <ele>1169.06</ele>
        <time>2020-09-19T09:12:35.251Z</time>
      </trkpt>
      <trkpt lat="45.3101" lon="4.48076">
        <ele>1168.25</ele>
        <time>2020-09-19T09:12:44.409Z</time>
      </trkpt>
      <trkpt lat="45.30999" lon="4.48074">
        <ele>1167.79</ele>
        <time>2020-09-19T09:12:54.124Z</time>
      </trkpt>
      <trkpt lat="45.30998" lon="4.48072">
        <ele>1168.26</ele>
        <time>2020-09-19T09:13:03.999Z</time>
      </trkpt>
      <trkpt lat="45.30996" lon="4.4807">
        <ele>1167.94</ele>
        <time>2020-09-19T09:13:14.925Z</time>
      </trkpt>
      <trkpt lat="45.30991" lon="4.48066">
        <ele>1167.3</ele>
        <time>2020-09-19T09:13:24.757Z</time>
      </trkpt>
      <trkpt lat="45.30985" lon="4.48063">
        <ele>1167.75</ele>
        <time>2020-09-19T09:13:33.865Z</time>
      </trkpt>
      <trkpt lat="45.30974" lon="4.48059">
        <ele>1166.81</ele>
        <time>2020-09-19T09:13:43.255Z</time>
      </trkpt>
      <trkpt lat="45.30966" lon="4.48056">
        <ele>1166.16</ele>
        <time>2020-09-19T09:13:52.835Z</time>
      </trkpt>
      <trkpt lat="45.3096" lon="4.48053">
        <ele>1167.36</ele>
        <time>2020-09-19T09:14:02.253Z</time>
      </trkpt>
      <trkpt lat="45.30952" lon="4.48045">
        <ele>1167.23</ele>
        <time>2020-09-19T09:14:11.771Z</time>
      </trkpt>
      <trkpt lat="45.3094" lon="4.48036">
        <ele>1166.16</ele>
        <time>2020-09-19T09:14:20.774Z</time>
      </trkpt>
      <trkpt lat="45.30928" lon="4.48032">
        <ele>1165.39</ele>
        <time>2020-09-19T09:14:30.039Z</time>
      </trkpt>
      <trkpt lat="45.30917" lon="4.48028">
        <ele>1165.3</ele>
        <time>2020-09-19T09:14:39.490Z</time>
      </trkpt>
      <trkpt lat="45.30905" lon="4.48023">
        <ele>1164.81</ele>
        <time>2020-09-19T09:14:49.548Z</time>
      </trkpt>
      <trkpt lat="45.30895" lon="4.48022">
        <ele>1164.06</ele>
        <time>2020-09-19T09:14:59.555Z</time>
      </trkpt>
      <trkpt lat="45.30887" lon="4.4802">
        <ele>1163.26</ele>
        <time>2020-09-19T09:15:08.893Z</time>
      </trkpt>
      <trkpt lat="45.30879" lon="4.48019">
        <ele>1163.75</ele>
        <time>2020-09-19T09:15:18.614Z</time>
      </trkpt>
      <trkpt lat="45.3087" lon="4.4802">
        <ele>1163.66</ele>
        <time>2020-09-19T09:15:27.731Z</time>
      </trkpt>
      <trkpt lat="45.30854" lon="4.48015">
        <ele>1161.93</ele>
        <time>2020-09-19T09:15:37.109Z</time>
      </trkpt>
      <trkpt lat="45.30839" lon="4.48012">
        <ele>1161.55</ele>
        <time>2020-09-19T09:15:46.229Z</time>
      </trkpt>
      <trkpt lat="45.30826" lon="4.4801">
        <ele>1160.66</ele>
        <time>2020-09-19T09:15:55.953Z</time>
      </trkpt>
      <trkpt lat="45.30814" lon="4.48009">
        <ele>1160.22</ele>
        <time>2020-09-19T09:16:05.228Z</time>
      </trkpt>
      <trkpt lat="45.30802" lon="4.48007">
        <ele>1160.08</ele>
        <time>2020-09-19T09:16:15.027Z</time>
      </trkpt>
      <trkpt lat="45.30791" lon="4.48002">
        <ele>1158.43</ele>
        <time>2020-09-19T09:16:24.718Z</time>
      </trkpt>
      <trkpt lat="45.30783" lon="4.47995">
        <ele>1158.05</ele>
        <time>2020-09-19T09:16:33.739Z</time>
      </trkpt>
      <trkpt lat="45.30774" lon="4.47986">
        <ele>1160.21</ele>
        <time>2020-09-19T09:16:42.976Z</time>
      </trkpt>
      <trkpt lat="45.30759" lon="4.47977">
        <ele>1161.32</ele>
        <time>2020-09-19T09:16:52.779Z</time>
      </trkpt>
      <trkpt lat="45.30741" lon="4.47969">
        <ele>1161.47</ele>
        <time>2020-09-19T09:17:01.914Z</time>
      </trkpt>
      <trkpt lat="45.30727" lon="4.47964">
        <ele>1162.09</ele>
        <time>2020-09-19T09:17:11.294Z</time>
      </trkpt>
      <trkpt lat="45.30714" lon="4.47963">
        <ele>1163.09</ele>
        <time>2020-09-19T09:17:20.334Z</time>
      </trkpt>
      <trkpt lat="45.30702" lon="4.47964">
        <ele>1163.71</ele>
        <time>2020-09-19T09:17:29.714Z</time>
      </trkpt>
      <trkpt lat="45.30692" lon="4.4797">
        <ele>1164.33</ele>
        <time>2020-09-19T09:17:39.110Z</time>
      </trkpt>
      <trkpt lat="45.30682" lon="4.4797">
        <ele>1162.51</ele>
        <time>2020-09-19T09:17:48.293Z</time>
      </trkpt>
      <trkpt lat="45.3067" lon="4.47967">
        <ele>1163.36</ele>
        <time>2020-09-19T09:17:57.810Z</time>
      </trkpt>
      <trkpt lat="45.30658" lon="4.4796">
        <ele>1164.54</ele>
        <time>2020-09-19T09:18:07.309Z</time>
      </trkpt>
      <trkpt lat="45.30645" lon="4.47952">
        <ele>1164.67</ele>
        <time>2020-09-19T09:18:16.670Z</time>
      </trkpt>
      <trkpt lat="45.30629" lon="4.47943">
        <ele>1165.81</ele>
        <time>2020-09-19T09:18:26.729Z</time>
      </trkpt>
      <trkpt lat="45.30615" lon="4.47934">
        <ele>1166.37</ele>
        <time>2020-09-19T09:18:35.999Z</time>
      </trkpt>
      <trkpt lat="45.30604" lon="4.47926">
        <ele>1166.55</ele>
        <time>2020-09-19T09:18:45.436Z</time>
      </trkpt>
      <trkpt lat="45.30594" lon="4.47918">
        <ele>1166.85</ele>
        <time>2020-09-19T09:18:54.814Z</time>
      </trkpt>
      <trkpt lat="45.30582" lon="4.47908">
        <ele>1165.57</ele>
        <time>2020-09-19T09:19:04.331Z</time>
      </trkpt>
      <trkpt lat="45.30572" lon="4.47899">
        <ele>1165.95</ele>
        <time>2020-09-19T09:19:13.751Z</time>
      </trkpt>
      <trkpt lat="45.30561" lon="4.47896">
        <ele>1166.81</ele>
        <time>2020-09-19T09:19:22.860Z</time>
      </trkpt>
      <trkpt lat="45.3055" lon="4.4789">
        <ele>1166.54</ele>
        <time>2020-09-19T09:19:32.567Z</time>
      </trkpt>
      <trkpt lat="45.30542" lon="4.4788">
        <ele>1166.4</ele>
        <time>2020-09-19T09:19:41.606Z</time>
      </trkpt>
      <trkpt lat="45.30529" lon="4.47873">
        <ele>1165.46</ele>
        <time>2020-09-19T09:19:51.586Z</time>
      </trkpt>
      <trkpt lat="45.30513" lon="4.4787">
        <ele>1166.67</ele>
        <time>2020-09-19T09:20:01.536Z</time>
      </trkpt>
      <trkpt lat="45.30499" lon="4.47869">
        <ele>1166.37</ele>
        <time>2020-09-19T09:20:11.595Z</time>
      </trkpt>
      <trkpt lat="45.30487" lon="4.47868">
        <ele>1167.56</ele>
        <time>2020-09-19T09:20:20.734Z</time>
      </trkpt>
      <trkpt lat="45.30474" lon="4.47867">
        <ele>1168.18</ele>
        <time>2020-09-19T09:20:29.813Z</time>
      </trkpt>
      <trkpt lat="45.30462" lon="4.47863">
        <ele>1168.26</ele>
        <time>2020-09-19T09:20:39.532Z</time>
      </trkpt>
      <trkpt lat="45.30452" lon="4.47859">
        <ele>1168.17</ele>
        <time>2020-09-19T09:20:48.999Z</time>
      </trkpt>
      <trkpt lat="45.3045" lon="4.4786">
        <ele>1168.41</ele>
        <time>2020-09-19T09:21:04.999Z</time>
      </trkpt>
      <trkpt lat="45.30449" lon="4.47861">
        <ele>1167.95</ele>
        <time>2020-09-19T09:21:18.935Z</time>
      </trkpt>
      <trkpt lat="45.3044" lon="4.47867">
        <ele>1168.58</ele>
        <time>2020-09-19T09:21:28.294Z</time>
      </trkpt>
      <trkpt lat="45.3043" lon="4.47872">
        <ele>1169.75</ele>
        <time>2020-09-19T09:21:37.372Z</time>
      </trkpt>
      <trkpt lat="45.30419" lon="4.47873">
        <ele>1168.5</ele>
        <time>2020-09-19T09:21:46.792Z</time>
      </trkpt>
      <trkpt lat="45.30406" lon="4.4787">
        <ele>1168.86</ele>
        <time>2020-09-19T09:21:56.092Z</time>
      </trkpt>
      <trkpt lat="45.30393" lon="4.47871">
        <ele>1169.22</ele>
        <time>2020-09-19T09:22:05.331Z</time>
      </trkpt>
      <trkpt lat="45.30381" lon="4.47875">
        <ele>1169.58</ele>
        <time>2020-09-19T09:22:14.531Z</time>
      </trkpt>
      <trkpt lat="45.30369" lon="4.47876">
        <ele>1169.68</ele>
        <time>2020-09-19T09:22:23.953Z</time>
      </trkpt>
      <trkpt lat="45.30358" lon="4.47875">
        <ele>1170.62</ele>
        <time>2020-09-19T09:22:33.830Z</time>
      </trkpt>
      <trkpt lat="45.30347" lon="4.47876">
        <ele>1171.52</ele>
        <time>2020-09-19T09:22:43.747Z</time>
      </trkpt>
      <trkpt lat="45.30336" lon="4.47877">
        <ele>1171.38</ele>
        <time>2020-09-19T09:22:53.127Z</time>
      </trkpt>
      <trkpt lat="45.30324" lon="4.47876">
        <ele>1173.11</ele>
        <time>2020-09-19T09:23:02.438Z</time>
      </trkpt>
      <trkpt lat="45.30312" lon="4.47877">
        <ele>1173.15</ele>
        <time>2020-09-19T09:23:11.637Z</time>
      </trkpt>
      <trkpt lat="45.303" lon="4.47878">
        <ele>1174.32</ele>
        <time>2020-09-19T09:23:21.517Z</time>
      </trkpt>
      <trkpt lat="45.30286" lon="4.47879">
        <ele>1172.45</ele>
        <time>2020-09-19T09:23:30.996Z</time>
      </trkpt>
      <trkpt lat="45.30274" lon="4.47879">
        <ele>1173.6</ele>
        <time>2020-09-19T09:23:40.255Z</time>
      </trkpt>
      <trkpt lat="45.30262" lon="4.47877">
        <ele>1175.17</ele>
        <time>2020-09-19T09:23:49.651Z</time>
      </trkpt>
      <trkpt lat="45.30248" lon="4.47876">
        <ele>1174.77</ele>
        <time>2020-09-19T09:23:59.513Z</time>
      </trkpt>
      <trkpt lat="45.30237" lon="4.47875">
        <ele>1175.03</ele>
        <time>2020-09-19T09:24:08.672Z</time>
      </trkpt>
      <trkpt lat="45.30225" lon="4.4787">
        <ele>1175.95</ele>
        <time>2020-09-19T09:24:17.890Z</time>
      </trkpt>
      <trkpt lat="45.30212" lon="4.47865">
        <ele>1176.01</ele>
        <time>2020-09-19T09:24:27.670Z</time>
      </trkpt>
      <trkpt lat="45.30201" lon="4.47863">
        <ele>1175.49</ele>
        <time>2020-09-19T09:24:37.370Z</time>
      </trkpt>
      <trkpt lat="45.3019" lon="4.4786">
        <ele>1175.92</ele>
        <time>2020-09-19T09:24:46.397Z</time>
      </trkpt>
      <trkpt lat="45.30179" lon="4.4786">
        <ele>1176.01</ele>
        <time>2020-09-19T09:24:55.476Z</time>
      </trkpt>
      <trkpt lat="45.30172" lon="4.47859">
        <ele>1176.51</ele>
        <time>2020-09-19T09:25:05.000Z</time>
      </trkpt>
      <trkpt lat="45.30171" lon="4.47861">
        <ele>1175.91</ele>
        <time>2020-09-19T09:25:18.000Z</time>
      </trkpt>
      <trkpt lat="45.3017" lon="4.47859">
        <ele>1175.8</ele>
        <time>2020-09-19T09:25:35.651Z</time>
      </trkpt>
      <trkpt lat="45.30161" lon="4.47859">
        <ele>1175.97</ele>
        <time>2020-09-19T09:25:44.751Z</time>
      </trkpt>
      <trkpt lat="45.30148" lon="4.47858">
        <ele>1175.86</ele>
        <time>2020-09-19T09:25:54.610Z</time>
      </trkpt>
      <trkpt lat="45.30139" lon="4.47862">
        <ele>1176.63</ele>
        <time>2020-09-19T09:26:04.589Z</time>
      </trkpt>
      <trkpt lat="45.30128" lon="4.47861">
        <ele>1176.78</ele>
        <time>2020-09-19T09:26:14.326Z</time>
      </trkpt>
      <trkpt lat="45.30119" lon="4.47867">
        <ele>1176.92</ele>
        <time>2020-09-19T09:26:23.754Z</time>
      </trkpt>
      <trkpt lat="45.30109" lon="4.47865">
        <ele>1176.92</ele>
        <time>2020-09-19T09:26:33.000Z</time>
      </trkpt>
      <trkpt lat="45.30103" lon="4.47868">
        <ele>1176.63</ele>
        <time>2020-09-19T09:26:42.533Z</time>
      </trkpt>
      <trkpt lat="45.30093" lon="4.47869">
        <ele>1175.75</ele>
        <time>2020-09-19T09:26:51.956Z</time>
      </trkpt>
      <trkpt lat="45.30082" lon="4.47871">
        <ele>1175.86</ele>
        <time>2020-09-19T09:27:01.216Z</time>
      </trkpt>
      <trkpt lat="45.30073" lon="4.47875">
        <ele>1177.39</ele>
        <time>2020-09-19T09:27:10.577Z</time>
      </trkpt>
      <trkpt lat="45.30062" lon="4.47874">
        <ele>1177.06</ele>
        <time>2020-09-19T09:27:19.849Z</time>
      </trkpt>
      <trkpt lat="45.3005" lon="4.47883">
        <ele>1177.6</ele>
        <time>2020-09-19T09:27:29.593Z</time>
      </trkpt>
      <trkpt lat="45.30038" lon="4.47893">
        <ele>1175.92</ele>
        <time>2020-09-19T09:27:39.789Z</time>
      </trkpt>
      <trkpt lat="45.3003" lon="4.47903">
        <ele>1177.89</ele>
        <time>2020-09-19T09:27:48.831Z</time>
      </trkpt>
      <trkpt lat="45.3002" lon="4.47912">
        <ele>1177.79</ele>
        <time>2020-09-19T09:27:58.589Z</time>
      </trkpt>
      <trkpt lat="45.30009" lon="4.47921">
        <ele>1178.02</ele>
        <time>2020-09-19T09:28:07.734Z</time>
      </trkpt>
      <trkpt lat="45.30001" lon="4.47925">
        <ele>1177.67</ele>
        <time>2020-09-19T09:28:16.755Z</time>
      </trkpt>
      <trkpt lat="45.29992" lon="4.47931">
        <ele>1178.44</ele>
        <time>2020-09-19T09:28:25.994Z</time>
      </trkpt>
      <trkpt lat="45.29984" lon="4.47938">
        <ele>1178.12</ele>
        <time>2020-09-19T09:28:35.333Z</time>
      </trkpt>
      <trkpt lat="45.29971" lon="4.47948">
        <ele>1177.78</ele>
        <time>2020-09-19T09:28:44.512Z</time>
      </trkpt>
      <trkpt lat="45.29959" lon="4.47959">
        <ele>1177.46</ele>
        <time>2020-09-19T09:28:53.670Z</time>
      </trkpt>
      <trkpt lat="45.29947" lon="4.47971">
        <ele>1178.03</ele>
        <time>2020-09-19T09:29:02.671Z</time>
      </trkpt>
      <trkpt lat="45.29935" lon="4.47982">
        <ele>1177.99</ele>
        <time>2020-09-19T09:29:11.870Z</time>
      </trkpt>
      <trkpt lat="45.29922" lon="4.47991">
        <ele>1177.71</ele>
        <time>2020-09-19T09:29:21.886Z</time>
      </trkpt>
      <trkpt lat="45.2991" lon="4.48001">
        <ele>1178.58</ele>
        <time>2020-09-19T09:29:31.467Z</time>
      </trkpt>
      <trkpt lat="45.29901" lon="4.48012">
        <ele>1178.8</ele>
        <time>2020-09-19T09:29:40.637Z</time>
      </trkpt>
      <trkpt lat="45.29891" lon="4.48022">
        <ele>1178.97</ele>
        <time>2020-09-19T09:29:49.813Z</time>
      </trkpt>
      <trkpt lat="45.29881" lon="4.48033">
        <ele>1179.59</ele>
        <time>2020-09-19T09:29:58.997Z</time>
      </trkpt>
      <trkpt lat="45.29873" lon="4.48043">
        <ele>1179.27</ele>
        <time>2020-09-19T09:30:08.396Z</time>
      </trkpt>
      <trkpt lat="45.29865" lon="4.48055">
        <ele>1179.52</ele>
        <time>2020-09-19T09:30:17.495Z</time>
      </trkpt>
      <trkpt lat="45.29858" lon="4.48067">
        <ele>1181.89</ele>
        <time>2020-09-19T09:30:26.891Z</time>
      </trkpt>
      <trkpt lat="45.29856" lon="4.48068">
        <ele>1181.43</ele>
        <time>2020-09-19T09:30:40.000Z</time>
      </trkpt>
      <trkpt lat="45.2985" lon="4.48073">
        <ele>1181.71</ele>
        <time>2020-09-19T09:30:49.187Z</time>
      </trkpt>
      <trkpt lat="45.29841" lon="4.48077">
        <ele>1182.22</ele>
        <time>2020-09-19T09:30:58.814Z</time>
      </trkpt>
      <trkpt lat="45.29831" lon="4.4808">
        <ele>1182.89</ele>
        <time>2020-09-19T09:31:09.653Z</time>
      </trkpt>
      <trkpt lat="45.29821" lon="4.4808">
        <ele>1183.59</ele>
        <time>2020-09-19T09:31:18.831Z</time>
      </trkpt>
      <trkpt lat="45.29814" lon="4.48074">
        <ele>1184.13</ele>
        <time>2020-09-19T09:31:28.593Z</time>
      </trkpt>
      <trkpt lat="45.2981" lon="4.48069">
        <ele>1185.31</ele>
        <time>2020-09-19T09:31:38.610Z</time>
      </trkpt>
      <trkpt lat="45.29804" lon="4.4806">
        <ele>1186.44</ele>
        <time>2020-09-19T09:31:47.809Z</time>
      </trkpt>
      <trkpt lat="45.29797" lon="4.48049">
        <ele>1187.24</ele>
        <time>2020-09-19T09:31:57.009Z</time>
      </trkpt>
      <trkpt lat="45.29788" lon="4.48041">
        <ele>1187.5</ele>
        <time>2020-09-19T09:32:06.690Z</time>
      </trkpt>
      <trkpt lat="45.29778" lon="4.48035">
        <ele>1188.16</ele>
        <time>2020-09-19T09:32:16.749Z</time>
      </trkpt>
      <trkpt lat="45.29769" lon="4.48026">
        <ele>1188.61</ele>
        <time>2020-09-19T09:32:26.569Z</time>
      </trkpt>
      <trkpt lat="45.29762" lon="4.48016">
        <ele>1187.89</ele>
        <time>2020-09-19T09:32:36.147Z</time>
      </trkpt>
      <trkpt lat="45.29756" lon="4.47999">
        <ele>1187.37</ele>
        <time>2020-09-19T09:32:45.206Z</time>
      </trkpt>
      <trkpt lat="45.29749" lon="4.47988">
        <ele>1187.3</ele>
        <time>2020-09-19T09:32:54.595Z</time>
      </trkpt>
      <trkpt lat="45.29741" lon="4.4798">
        <ele>1186.35</ele>
        <time>2020-09-19T09:33:03.999Z</time>
      </trkpt>
      <trkpt lat="45.29729" lon="4.47969">
        <ele>1187.04</ele>
        <time>2020-09-19T09:33:13.037Z</time>
      </trkpt>
      <trkpt lat="45.29723" lon="4.47954">
        <ele>1187.17</ele>
        <time>2020-09-19T09:33:22.516Z</time>
      </trkpt>
      <trkpt lat="45.29717" lon="4.47941">
        <ele>1187.1</ele>
        <time>2020-09-19T09:33:31.871Z</time>
      </trkpt>
      <trkpt lat="45.2971" lon="4.4793">
        <ele>1187.34</ele>
        <time>2020-09-19T09:33:40.872Z</time>
      </trkpt>
      <trkpt lat="45.29702" lon="4.47919">
        <ele>1187.29</ele>
        <time>2020-09-19T09:33:50.250Z</time>
      </trkpt>
      <trkpt lat="45.29697" lon="4.4791">
        <ele>1188.55</ele>
        <time>2020-09-19T09:33:59.277Z</time>
      </trkpt>
      <trkpt lat="45.29696" lon="4.47913">
        <ele>1188.56</ele>
        <time>2020-09-19T09:34:13.999Z</time>
      </trkpt>
      <trkpt lat="45.29692" lon="4.47914">
        <ele>1188.25</ele>
        <time>2020-09-19T09:34:23.999Z</time>
      </trkpt>
      <trkpt lat="45.29688" lon="4.47914">
        <ele>1187.59</ele>
        <time>2020-09-19T09:34:33.999Z</time>
      </trkpt>
      <trkpt lat="45.29677" lon="4.47911">
        <ele>1189.27</ele>
        <time>2020-09-19T09:34:44.999Z</time>
      </trkpt>
      <trkpt lat="45.29666" lon="4.47907">
        <ele>1191.26</ele>
        <time>2020-09-19T09:34:54.433Z</time>
      </trkpt>
      <trkpt lat="45.29653" lon="4.47908">
        <ele>1192.28</ele>
        <time>2020-09-19T09:35:04.999Z</time>
      </trkpt>
      <trkpt lat="45.2964" lon="4.47904">
        <ele>1193.31</ele>
        <time>2020-09-19T09:35:14.999Z</time>
      </trkpt>
      <trkpt lat="45.2963" lon="4.47902">
        <ele>1194.11</ele>
        <time>2020-09-19T09:35:24.999Z</time>
      </trkpt>
      <trkpt lat="45.2962" lon="4.47906">
        <ele>1194.6</ele>
        <time>2020-09-19T09:35:34.267Z</time>
      </trkpt>
      <trkpt lat="45.29607" lon="4.47905">
        <ele>1195.08</ele>
        <time>2020-09-19T09:35:43.679Z</time>
      </trkpt>
      <trkpt lat="45.29597" lon="4.47905">
        <ele>1195.42</ele>
        <time>2020-09-19T09:35:53.057Z</time>
      </trkpt>
      <trkpt lat="45.2959" lon="4.47902">
        <ele>1196.92</ele>
        <time>2020-09-19T09:36:03.999Z</time>
      </trkpt>
      <trkpt lat="45.29584" lon="4.47897">
        <ele>1199.25</ele>
        <time>2020-09-19T09:36:13.999Z</time>
      </trkpt>
      <trkpt lat="45.2958" lon="4.4789">
        <ele>1200.56</ele>
        <time>2020-09-19T09:36:23.999Z</time>
      </trkpt>
      <trkpt lat="45.29573" lon="4.47887">
        <ele>1202.92</ele>
        <time>2020-09-19T09:36:33.999Z</time>
      </trkpt>
      <trkpt lat="45.29561" lon="4.47884">
        <ele>1203.92</ele>
        <time>2020-09-19T09:36:43.332Z</time>
      </trkpt>
      <trkpt lat="45.29549" lon="4.47882">
        <ele>1204</ele>
        <time>2020-09-19T09:36:52.871Z</time>
      </trkpt>
      <trkpt lat="45.29534" lon="4.47888">
        <ele>1204.05</ele>
        <time>2020-09-19T09:37:02.717Z</time>
      </trkpt>
      <trkpt lat="45.29519" lon="4.47894">
        <ele>1204.27</ele>
        <time>2020-09-19T09:37:11.896Z</time>
      </trkpt>
      <trkpt lat="45.2951" lon="4.47904">
        <ele>1202.79</ele>
        <time>2020-09-19T09:37:20.999Z</time>
      </trkpt>
      <trkpt lat="45.29504" lon="4.47917">
        <ele>1200.16</ele>
        <time>2020-09-19T09:37:30.999Z</time>
      </trkpt>
      <trkpt lat="45.29498" lon="4.47928">
        <ele>1197.75</ele>
        <time>2020-09-19T09:37:40.999Z</time>
      </trkpt>
      <trkpt lat="45.29497" lon="4.47931">
        <ele>1198.44</ele>
        <time>2020-09-19T09:37:50.999Z</time>
      </trkpt>
      <trkpt lat="45.29498" lon="4.47939">
        <ele>1197.3</ele>
        <time>2020-09-19T09:38:00.492Z</time>
      </trkpt>
      <trkpt lat="45.29502" lon="4.47947">
        <ele>1197.99</ele>
        <time>2020-09-19T09:38:09.999Z</time>
      </trkpt>
      <trkpt lat="45.29503" lon="4.47945">
        <ele>1197.51</ele>
        <time>2020-09-19T09:38:20.999Z</time>
      </trkpt>
      <trkpt lat="45.29504" lon="4.47942">
        <ele>1197.64</ele>
        <time>2020-09-19T09:38:30.999Z</time>
      </trkpt>
      <trkpt lat="45.29506" lon="4.47942">
        <ele>1197.55</ele>
        <time>2020-09-19T09:38:42.999Z</time>
      </trkpt>
      <trkpt lat="45.29508" lon="4.47943">
        <ele>1197.59</ele>
        <time>2020-09-19T09:39:32.999Z</time>
      </trkpt>
      <trkpt lat="45.2951" lon="4.47943">
        <ele>1197.77</ele>
        <time>2020-09-19T09:39:45.999Z</time>
      </trkpt>
      <trkpt lat="45.29511" lon="4.47944">
        <ele>1197.92</ele>
        <time>2020-09-19T09:40:03.999Z</time>
      </trkpt>
      <trkpt lat="45.29514" lon="4.47945">
        <ele>1198.13</ele>
        <time>2020-09-19T09:40:13.999Z</time>
      </trkpt>
      <trkpt lat="45.29515" lon="4.47945">
        <ele>1196.54</ele>
        <time>2020-09-19T09:40:30.999Z</time>
      </trkpt>
      <trkpt lat="45.29517" lon="4.47947">
        <ele>1196.85</ele>
        <time>2020-09-19T09:40:44.534Z</time>
      </trkpt>
      <trkpt lat="45.29526" lon="4.47957">
        <ele>1195.94</ele>
        <time>2020-09-19T09:40:53.612Z</time>
      </trkpt>
      <trkpt lat="45.29535" lon="4.47964">
        <ele>1195.3</ele>
        <time>2020-09-19T09:41:03.999Z</time>
      </trkpt>
      <trkpt lat="45.29542" lon="4.47958">
        <ele>1195.39</ele>
        <time>2020-09-19T09:41:13.030Z</time>
      </trkpt>
      <trkpt lat="45.29546" lon="4.47963">
        <ele>1195.14</ele>
        <time>2020-09-19T09:41:22.999Z</time>
      </trkpt>
      <trkpt lat="45.29554" lon="4.47969">
        <ele>1194.91</ele>
        <time>2020-09-19T09:41:32.999Z</time>
      </trkpt>
      <trkpt lat="45.29562" lon="4.47968">
        <ele>1194.57</ele>
        <time>2020-09-19T09:41:42.778Z</time>
      </trkpt>
      <trkpt lat="45.29567" lon="4.47969">
        <ele>1194.39</ele>
        <time>2020-09-19T09:41:51.999Z</time>
      </trkpt>
      <trkpt lat="45.29568" lon="4.47968">
        <ele>1195.04</ele>
        <time>2020-09-19T09:42:12.999Z</time>
      </trkpt>
      <trkpt lat="45.29576" lon="4.47973">
        <ele>1194.07</ele>
        <time>2020-09-19T09:42:22.999Z</time>
      </trkpt>
      <trkpt lat="45.29583" lon="4.47984">
        <ele>1193.66</ele>
        <time>2020-09-19T09:42:32.494Z</time>
      </trkpt>
      <trkpt lat="45.29588" lon="4.47992">
        <ele>1194.45</ele>
        <time>2020-09-19T09:42:41.774Z</time>
      </trkpt>
      <trkpt lat="45.29592" lon="4.48001">
        <ele>1195.09</ele>
        <time>2020-09-19T09:42:50.999Z</time>
      </trkpt>
      <trkpt lat="45.29597" lon="4.48014">
        <ele>1194.97</ele>
        <time>2020-09-19T09:43:00.577Z</time>
      </trkpt>
      <trkpt lat="45.29599" lon="4.48024">
        <ele>1195.34</ele>
        <time>2020-09-19T09:43:10.999Z</time>
      </trkpt>
      <trkpt lat="45.29596" lon="4.48037">
        <ele>1195.63</ele>
        <time>2020-09-19T09:43:20.455Z</time>
      </trkpt>
      <trkpt lat="45.29593" lon="4.4805">
        <ele>1196.05</ele>
        <time>2020-09-19T09:43:29.714Z</time>
      </trkpt>
      <trkpt lat="45.29587" lon="4.4806">
        <ele>1195.39</ele>
        <time>2020-09-19T09:43:38.731Z</time>
      </trkpt>
      <trkpt lat="45.29578" lon="4.48069">
        <ele>1196.02</ele>
        <time>2020-09-19T09:43:48.670Z</time>
      </trkpt>
      <trkpt lat="45.29573" lon="4.48082">
        <ele>1196.53</ele>
        <time>2020-09-19T09:43:58.150Z</time>
      </trkpt>
      <trkpt lat="45.29567" lon="4.48093">
        <ele>1196.08</ele>
        <time>2020-09-19T09:44:07.433Z</time>
      </trkpt>
      <trkpt lat="45.29563" lon="4.48093">
        <ele>1195.79</ele>
        <time>2020-09-19T09:44:17.000Z</time>
      </trkpt>
      <trkpt lat="45.29557" lon="4.48095">
        <ele>1195.81</ele>
        <time>2020-09-19T09:44:27.000Z</time>
      </trkpt>
      <trkpt lat="45.29553" lon="4.48101">
        <ele>1196.43</ele>
        <time>2020-09-19T09:44:36.398Z</time>
      </trkpt>
      <trkpt lat="45.29543" lon="4.48108">
        <ele>1195.63</ele>
        <time>2020-09-19T09:44:45.717Z</time>
      </trkpt>
      <trkpt lat="45.29537" lon="4.48121">
        <ele>1196.8</ele>
        <time>2020-09-19T09:44:55.000Z</time>
      </trkpt>
      <trkpt lat="45.29529" lon="4.48129">
        <ele>1197.26</ele>
        <time>2020-09-19T09:45:04.311Z</time>
      </trkpt>
      <trkpt lat="45.29523" lon="4.48135">
        <ele>1197.26</ele>
        <time>2020-09-19T09:45:14.000Z</time>
      </trkpt>
      <trkpt lat="45.29518" lon="4.48139">
        <ele>1197.43</ele>
        <time>2020-09-19T09:45:24.000Z</time>
      </trkpt>
      <trkpt lat="45.29507" lon="4.48141">
        <ele>1197.09</ele>
        <time>2020-09-19T09:45:33.650Z</time>
      </trkpt>
      <trkpt lat="45.29499" lon="4.48143">
        <ele>1196.97</ele>
        <time>2020-09-19T09:45:43.000Z</time>
      </trkpt>
      <trkpt lat="45.29497" lon="4.48141">
        <ele>1197.34</ele>
        <time>2020-09-19T09:45:53.000Z</time>
      </trkpt>
      <trkpt lat="45.29495" lon="4.4814">
        <ele>1197.6</ele>
        <time>2020-09-19T09:46:05.000Z</time>
      </trkpt>
      <trkpt lat="45.29493" lon="4.48138">
        <ele>1197.15</ele>
        <time>2020-09-19T09:46:15.000Z</time>
      </trkpt>
      <trkpt lat="45.29491" lon="4.48136">
        <ele>1197.55</ele>
        <time>2020-09-19T09:46:30.000Z</time>
      </trkpt>
      <trkpt lat="45.29486" lon="4.48127">
        <ele>1197.5</ele>
        <time>2020-09-19T09:46:39.278Z</time>
      </trkpt>
      <trkpt lat="45.2948" lon="4.48114">
        <ele>1197.52</ele>
        <time>2020-09-19T09:46:49.000Z</time>
      </trkpt>
      <trkpt lat="45.29474" lon="4.48101">
        <ele>1198.1</ele>
        <time>2020-09-19T09:46:59.000Z</time>
      </trkpt>
      <trkpt lat="45.29465" lon="4.48095">
        <ele>1198.29</ele>
        <time>2020-09-19T09:47:09.000Z</time>
      </trkpt>
      <trkpt lat="45.29459" lon="4.4809">
        <ele>1198.11</ele>
        <time>2020-09-19T09:47:19.000Z</time>
      </trkpt>
      <trkpt lat="45.29457" lon="4.48089">
        <ele>1199.04</ele>
        <time>2020-09-19T09:47:29.000Z</time>
      </trkpt>
      <trkpt lat="45.29454" lon="4.48087">
        <ele>1199.06</ele>
        <time>2020-09-19T09:47:47.000Z</time>
      </trkpt>
      <trkpt lat="45.29445" lon="4.48079">
        <ele>1198.88</ele>
        <time>2020-09-19T09:47:57.000Z</time>
      </trkpt>
      <trkpt lat="45.29436" lon="4.48082">
        <ele>1199.94</ele>
        <time>2020-09-19T09:48:07.000Z</time>
      </trkpt>
      <trkpt lat="45.29425" lon="4.48084">
        <ele>1199.66</ele>
        <time>2020-09-19T09:48:17.000Z</time>
      </trkpt>
      <trkpt lat="45.29423" lon="4.48082">
        <ele>1200.05</ele>
        <time>2020-09-19T09:48:26.419Z</time>
      </trkpt>
      <trkpt lat="45.2942" lon="4.48081">
        <ele>1200.61</ele>
        <time>2020-09-19T09:48:36.000Z</time>
      </trkpt>
      <trkpt lat="45.29418" lon="4.48081">
        <ele>1200.71</ele>
        <time>2020-09-19T09:48:48.000Z</time>
      </trkpt>
      <trkpt lat="45.29408" lon="4.48079">
        <ele>1200.6</ele>
        <time>2020-09-19T09:48:58.000Z</time>
      </trkpt>
      <trkpt lat="45.29399" lon="4.48066">
        <ele>1202.02</ele>
        <time>2020-09-19T09:49:07.351Z</time>
      </trkpt>
      <trkpt lat="45.29393" lon="4.4805">
        <ele>1202.83</ele>
        <time>2020-09-19T09:49:16.774Z</time>
      </trkpt>
      <trkpt lat="45.29392" lon="4.48039">
        <ele>1203.56</ele>
        <time>2020-09-19T09:49:25.826Z</time>
      </trkpt>
      <trkpt lat="45.29386" lon="4.48032">
        <ele>1204.85</ele>
        <time>2020-09-19T09:49:36.000Z</time>
      </trkpt>
      <trkpt lat="45.29383" lon="4.48016">
        <ele>1206.52</ele>
        <time>2020-09-19T09:49:46.000Z</time>
      </trkpt>
      <trkpt lat="45.29378" lon="4.47999">
        <ele>1208.72</ele>
        <time>2020-09-19T09:49:55.873Z</time>
      </trkpt>
      <trkpt lat="45.29376" lon="4.47986">
        <ele>1209.62</ele>
        <time>2020-09-19T09:50:05.000Z</time>
      </trkpt>
      <trkpt lat="45.29376" lon="4.47967">
        <ele>1210.52</ele>
        <time>2020-09-19T09:50:14.356Z</time>
      </trkpt>
      <trkpt lat="45.29376" lon="4.47949">
        <ele>1211.41</ele>
        <time>2020-09-19T09:50:23.773Z</time>
      </trkpt>
      <trkpt lat="45.29376" lon="4.47935">
        <ele>1213.01</ele>
        <time>2020-09-19T09:50:32.908Z</time>
      </trkpt>
      <trkpt lat="45.29378" lon="4.4792">
        <ele>1213.57</ele>
        <time>2020-09-19T09:50:42.490Z</time>
      </trkpt>
      <trkpt lat="45.29381" lon="4.47909">
        <ele>1214.84</ele>
        <time>2020-09-19T09:50:52.000Z</time>
      </trkpt>
      <trkpt lat="45.29386" lon="4.47897">
        <ele>1214.9</ele>
        <time>2020-09-19T09:51:02.000Z</time>
      </trkpt>
      <trkpt lat="45.29391" lon="4.47886">
        <ele>1216.04</ele>
        <time>2020-09-19T09:51:11.561Z</time>
      </trkpt>
      <trkpt lat="45.2939" lon="4.47881">
        <ele>1217.39</ele>
        <time>2020-09-19T09:51:21.000Z</time>
      </trkpt>
      <trkpt lat="45.2939" lon="4.47872">
        <ele>1219.49</ele>
        <time>2020-09-19T09:51:31.000Z</time>
      </trkpt>
      <trkpt lat="45.2939" lon="4.47848">
        <ele>1221.28</ele>
        <time>2020-09-19T09:51:40.757Z</time>
      </trkpt>
      <trkpt lat="45.2939" lon="4.47833">
        <ele>1222.75</ele>
        <time>2020-09-19T09:51:51.000Z</time>
      </trkpt>
      <trkpt lat="45.29387" lon="4.47818">
        <ele>1223.97</ele>
        <time>2020-09-19T09:52:01.000Z</time>
      </trkpt>
      <trkpt lat="45.29386" lon="4.47803">
        <ele>1225.65</ele>
        <time>2020-09-19T09:52:11.000Z</time>
      </trkpt>
      <trkpt lat="45.29382" lon="4.47791">
        <ele>1226.91</ele>
        <time>2020-09-19T09:52:21.000Z</time>
      </trkpt>
      <trkpt lat="45.29376" lon="4.47782">
        <ele>1228.19</ele>
        <time>2020-09-19T09:52:30.357Z</time>
      </trkpt>
      <trkpt lat="45.2937" lon="4.47772">
        <ele>1229.5</ele>
        <time>2020-09-19T09:52:40.000Z</time>
      </trkpt>
      <trkpt lat="45.29362" lon="4.47758">
        <ele>1230.32</ele>
        <time>2020-09-19T09:52:49.433Z</time>
      </trkpt>
      <trkpt lat="45.29352" lon="4.47748">
        <ele>1231.54</ele>
        <time>2020-09-19T09:52:58.793Z</time>
      </trkpt>
      <trkpt lat="45.29341" lon="4.47739">
        <ele>1232.82</ele>
        <time>2020-09-19T09:53:08.000Z</time>
      </trkpt>
      <trkpt lat="45.29335" lon="4.47725">
        <ele>1233.24</ele>
        <time>2020-09-19T09:53:18.000Z</time>
      </trkpt>
      <trkpt lat="45.29328" lon="4.47714">
        <ele>1234.55</ele>
        <time>2020-09-19T09:53:27.508Z</time>
      </trkpt>
      <trkpt lat="45.29324" lon="4.47706">
        <ele>1234.77</ele>
        <time>2020-09-19T09:53:37.000Z</time>
      </trkpt>
      <trkpt lat="45.29318" lon="4.47694">
        <ele>1235.57</ele>
        <time>2020-09-19T09:53:47.000Z</time>
      </trkpt>
      <trkpt lat="45.29312" lon="4.47682">
        <ele>1236.55</ele>
        <time>2020-09-19T09:53:57.000Z</time>
      </trkpt>
      <trkpt lat="45.29304" lon="4.4767">
        <ele>1237.48</ele>
        <time>2020-09-19T09:54:07.000Z</time>
      </trkpt>
      <trkpt lat="45.29296" lon="4.47657">
        <ele>1238.75</ele>
        <time>2020-09-19T09:54:16.933Z</time>
      </trkpt>
      <trkpt lat="45.2929" lon="4.47645">
        <ele>1239.62</ele>
        <time>2020-09-19T09:54:27.000Z</time>
      </trkpt>
      <trkpt lat="45.29285" lon="4.4763">
        <ele>1240.23</ele>
        <time>2020-09-19T09:54:37.000Z</time>
      </trkpt>
      <trkpt lat="45.29276" lon="4.47614">
        <ele>1240.7</ele>
        <time>2020-09-19T09:54:46.275Z</time>
      </trkpt>
      <trkpt lat="45.2927" lon="4.47601">
        <ele>1241.85</ele>
        <time>2020-09-19T09:54:55.999Z</time>
      </trkpt>
      <trkpt lat="45.29264" lon="4.47586">
        <ele>1242.79</ele>
        <time>2020-09-19T09:55:05.999Z</time>
      </trkpt>
      <trkpt lat="45.29259" lon="4.47573">
        <ele>1243.69</ele>
        <time>2020-09-19T09:55:15.335Z</time>
      </trkpt>
      <trkpt lat="45.29254" lon="4.47561">
        <ele>1244.39</ele>
        <time>2020-09-19T09:55:24.999Z</time>
      </trkpt>
      <trkpt lat="45.29248" lon="4.47547">
        <ele>1245.15</ele>
        <time>2020-09-19T09:55:34.376Z</time>
      </trkpt>
      <trkpt lat="45.29241" lon="4.47536">
        <ele>1246.96</ele>
        <time>2020-09-19T09:55:43.895Z</time>
      </trkpt>
      <trkpt lat="45.29234" lon="4.47525">
        <ele>1248.46</ele>
        <time>2020-09-19T09:55:53.999Z</time>
      </trkpt>
      <trkpt lat="45.29226" lon="4.47513">
        <ele>1250.32</ele>
        <time>2020-09-19T09:56:03.091Z</time>
      </trkpt>
      <trkpt lat="45.29218" lon="4.47501">
        <ele>1251.82</ele>
        <time>2020-09-19T09:56:12.999Z</time>
      </trkpt>
      <trkpt lat="45.29205" lon="4.47491">
        <ele>1253.46</ele>
        <time>2020-09-19T09:56:22.909Z</time>
      </trkpt>
      <trkpt lat="45.292" lon="4.47479">
        <ele>1254.77</ele>
        <time>2020-09-19T09:56:32.999Z</time>
      </trkpt>
      <trkpt lat="45.29194" lon="4.47464">
        <ele>1255.72</ele>
        <time>2020-09-19T09:56:42.999Z</time>
      </trkpt>
      <trkpt lat="45.29187" lon="4.4745">
        <ele>1257.61</ele>
        <time>2020-09-19T09:56:52.300Z</time>
      </trkpt>
      <trkpt lat="45.29181" lon="4.47438">
        <ele>1258.89</ele>
        <time>2020-09-19T09:57:01.357Z</time>
      </trkpt>
      <trkpt lat="45.29175" lon="4.47427">
        <ele>1260.76</ele>
        <time>2020-09-19T09:57:10.615Z</time>
      </trkpt>
      <trkpt lat="45.2917" lon="4.47416">
        <ele>1261.97</ele>
        <time>2020-09-19T09:57:19.999Z</time>
      </trkpt>
      <trkpt lat="45.29162" lon="4.47402">
        <ele>1263.98</ele>
        <time>2020-09-19T09:57:29.433Z</time>
      </trkpt>
      <trkpt lat="45.29153" lon="4.4739">
        <ele>1264.72</ele>
        <time>2020-09-19T09:57:38.910Z</time>
      </trkpt>
      <trkpt lat="45.29146" lon="4.4738">
        <ele>1265.86</ele>
        <time>2020-09-19T09:57:48.471Z</time>
      </trkpt>
      <trkpt lat="45.29142" lon="4.47364">
        <ele>1267.07</ele>
        <time>2020-09-19T09:57:57.849Z</time>
      </trkpt>
      <trkpt lat="45.29135" lon="4.47352">
        <ele>1268.1</ele>
        <time>2020-09-19T09:58:07.331Z</time>
      </trkpt>
      <trkpt lat="45.29128" lon="4.4734">
        <ele>1269.08</ele>
        <time>2020-09-19T09:58:16.796Z</time>
      </trkpt>
      <trkpt lat="45.29121" lon="4.47329">
        <ele>1270.57</ele>
        <time>2020-09-19T09:58:25.999Z</time>
      </trkpt>
      <trkpt lat="45.29112" lon="4.47316">
        <ele>1271.11</ele>
        <time>2020-09-19T09:58:35.379Z</time>
      </trkpt>
      <trkpt lat="45.29105" lon="4.47302">
        <ele>1271.7</ele>
        <time>2020-09-19T09:58:44.433Z</time>
      </trkpt>
      <trkpt lat="45.29097" lon="4.47291">
        <ele>1272.51</ele>
        <time>2020-09-19T09:58:53.454Z</time>
      </trkpt>
      <trkpt lat="45.2909" lon="4.47279">
        <ele>1272.82</ele>
        <time>2020-09-19T09:59:02.571Z</time>
      </trkpt>
      <trkpt lat="45.29083" lon="4.47266">
        <ele>1274.07</ele>
        <time>2020-09-19T09:59:11.671Z</time>
      </trkpt>
      <trkpt lat="45.29075" lon="4.47254">
        <ele>1274.96</ele>
        <time>2020-09-19T09:59:20.999Z</time>
      </trkpt>
      <trkpt lat="45.29066" lon="4.47239">
        <ele>1274.98</ele>
        <time>2020-09-19T09:59:30.329Z</time>
      </trkpt>
      <trkpt lat="45.29059" lon="4.47225">
        <ele>1275.05</ele>
        <time>2020-09-19T09:59:39.807Z</time>
      </trkpt>
      <trkpt lat="45.29058" lon="4.4721">
        <ele>1276.68</ele>
        <time>2020-09-19T09:59:49.999Z</time>
      </trkpt>
      <trkpt lat="45.2905" lon="4.47196">
        <ele>1277.55</ele>
        <time>2020-09-19T09:59:59.399Z</time>
      </trkpt>
      <trkpt lat="45.2904" lon="4.47183">
        <ele>1279.66</ele>
        <time>2020-09-19T10:00:08.759Z</time>
      </trkpt>
      <trkpt lat="45.29031" lon="4.47172">
        <ele>1281.41</ele>
        <time>2020-09-19T10:00:18.676Z</time>
      </trkpt>
      <trkpt lat="45.29025" lon="4.47161">
        <ele>1281.87</ele>
        <time>2020-09-19T10:00:28.999Z</time>
      </trkpt>
      <trkpt lat="45.29016" lon="4.47148">
        <ele>1282.91</ele>
        <time>2020-09-19T10:00:38.215Z</time>
      </trkpt>
      <trkpt lat="45.29008" lon="4.47138">
        <ele>1284.12</ele>
        <time>2020-09-19T10:00:47.999Z</time>
      </trkpt>
      <trkpt lat="45.29003" lon="4.47124">
        <ele>1285.99</ele>
        <time>2020-09-19T10:00:57.271Z</time>
      </trkpt>
      <trkpt lat="45.28997" lon="4.47111">
        <ele>1288.05</ele>
        <time>2020-09-19T10:01:06.292Z</time>
      </trkpt>
      <trkpt lat="45.2899" lon="4.47098">
        <ele>1289.63</ele>
        <time>2020-09-19T10:01:15.341Z</time>
      </trkpt>
      <trkpt lat="45.28983" lon="4.47087">
        <ele>1290.4</ele>
        <time>2020-09-19T10:01:24.436Z</time>
      </trkpt>
      <trkpt lat="45.28973" lon="4.47079">
        <ele>1291.77</ele>
        <time>2020-09-19T10:01:33.999Z</time>
      </trkpt>
      <trkpt lat="45.28961" lon="4.47071">
        <ele>1292.37</ele>
        <time>2020-09-19T10:01:43.999Z</time>
      </trkpt>
      <trkpt lat="45.2895" lon="4.47061">
        <ele>1292.67</ele>
        <time>2020-09-19T10:01:53.513Z</time>
      </trkpt>
      <trkpt lat="45.28944" lon="4.47052">
        <ele>1293.06</ele>
        <time>2020-09-19T10:02:02.999Z</time>
      </trkpt>
      <trkpt lat="45.28938" lon="4.47042">
        <ele>1292.5</ele>
        <time>2020-09-19T10:02:12.999Z</time>
      </trkpt>
      <trkpt lat="45.28933" lon="4.47033">
        <ele>1293.11</ele>
        <time>2020-09-19T10:02:22.999Z</time>
      </trkpt>
      <trkpt lat="45.28934" lon="4.47031">
        <ele>1293.65</ele>
        <time>2020-09-19T10:02:39.999Z</time>
      </trkpt>
      <trkpt lat="45.28932" lon="4.4703">
        <ele>1294.08</ele>
        <time>2020-09-19T10:02:51.999Z</time>
      </trkpt>
      <trkpt lat="45.28938" lon="4.47032">
        <ele>1294.12</ele>
        <time>2020-09-19T10:03:01.999Z</time>
      </trkpt>
      <trkpt lat="45.2894" lon="4.47034">
        <ele>1294.4</ele>
        <time>2020-09-19T10:03:11.999Z</time>
      </trkpt>
      <trkpt lat="45.28942" lon="4.47033">
        <ele>1294.26</ele>
        <time>2020-09-19T10:03:21.999Z</time>
      </trkpt>
      <trkpt lat="45.28942" lon="4.47031">
        <ele>1294.39</ele>
        <time>2020-09-19T10:03:31.999Z</time>
      </trkpt>
      <trkpt lat="45.28942" lon="4.47033">
        <ele>1294.38</ele>
        <time>2020-09-19T10:03:49.999Z</time>
      </trkpt>
      <trkpt lat="45.2894" lon="4.47032">
        <ele>1294.21</ele>
        <time>2020-09-19T10:04:59.498Z</time>
      </trkpt>
      <trkpt lat="45.28937" lon="4.47029">
        <ele>1293.56</ele>
        <time>2020-09-19T10:05:08.999Z</time>
      </trkpt>
      <trkpt lat="45.2893" lon="4.47014">
        <ele>1293.66</ele>
        <time>2020-09-19T10:05:18.999Z</time>
      </trkpt>
      <trkpt lat="45.28927" lon="4.46994">
        <ele>1293.42</ele>
        <time>2020-09-19T10:05:28.618Z</time>
      </trkpt>
      <trkpt lat="45.28924" lon="4.46981">
        <ele>1292.63</ele>
        <time>2020-09-19T10:05:37.734Z</time>
      </trkpt>
      <trkpt lat="45.28922" lon="4.46968">
        <ele>1292.35</ele>
        <time>2020-09-19T10:05:47.273Z</time>
      </trkpt>
      <trkpt lat="45.28915" lon="4.46958">
        <ele>1291.64</ele>
        <time>2020-09-19T10:05:56.574Z</time>
      </trkpt>
      <trkpt lat="45.28911" lon="4.46946">
        <ele>1290.74</ele>
        <time>2020-09-19T10:06:06.570Z</time>
      </trkpt>
      <trkpt lat="45.28905" lon="4.46937">
        <ele>1289.82</ele>
        <time>2020-09-19T10:06:16.000Z</time>
      </trkpt>
      <trkpt lat="45.28898" lon="4.46923">
        <ele>1288.42</ele>
        <time>2020-09-19T10:06:26.000Z</time>
      </trkpt>
      <trkpt lat="45.28892" lon="4.4691">
        <ele>1287.52</ele>
        <time>2020-09-19T10:06:36.000Z</time>
      </trkpt>
      <trkpt lat="45.28885" lon="4.46896">
        <ele>1286.29</ele>
        <time>2020-09-19T10:06:45.327Z</time>
      </trkpt>
      <trkpt lat="45.28879" lon="4.46883">
        <ele>1285.25</ele>
        <time>2020-09-19T10:06:54.738Z</time>
      </trkpt>
      <trkpt lat="45.28872" lon="4.46871">
        <ele>1284.23</ele>
        <time>2020-09-19T10:07:05.000Z</time>
      </trkpt>
      <trkpt lat="45.28863" lon="4.46858">
        <ele>1282.08</ele>
        <time>2020-09-19T10:07:14.378Z</time>
      </trkpt>
      <trkpt lat="45.28855" lon="4.46848">
        <ele>1282.3</ele>
        <time>2020-09-19T10:07:23.656Z</time>
      </trkpt>
      <trkpt lat="45.28849" lon="4.46835">
        <ele>1281.31</ele>
        <time>2020-09-19T10:07:32.933Z</time>
      </trkpt>
      <trkpt lat="45.28845" lon="4.46823">
        <ele>1280.29</ele>
        <time>2020-09-19T10:07:42.000Z</time>
      </trkpt>
      <trkpt lat="45.2884" lon="4.46808">
        <ele>1279.46</ele>
        <time>2020-09-19T10:07:52.000Z</time>
      </trkpt>
      <trkpt lat="45.28832" lon="4.46793">
        <ele>1278.75</ele>
        <time>2020-09-19T10:08:02.000Z</time>
      </trkpt>
      <trkpt lat="45.28825" lon="4.46778">
        <ele>1277.42</ele>
        <time>2020-09-19T10:08:11.152Z</time>
      </trkpt>
      <trkpt lat="45.2882" lon="4.46768">
        <ele>1276.71</ele>
        <time>2020-09-19T10:08:21.000Z</time>
      </trkpt>
      <trkpt lat="45.2881" lon="4.46755">
        <ele>1276.01</ele>
        <time>2020-09-19T10:08:32.000Z</time>
      </trkpt>
      <trkpt lat="45.28801" lon="4.46739">
        <ele>1274.87</ele>
        <time>2020-09-19T10:08:42.000Z</time>
      </trkpt>
      <trkpt lat="45.2879" lon="4.46725">
        <ele>1274.85</ele>
        <time>2020-09-19T10:08:51.476Z</time>
      </trkpt>
      <trkpt lat="45.28779" lon="4.46715">
        <ele>1274.93</ele>
        <time>2020-09-19T10:09:02.000Z</time>
      </trkpt>
      <trkpt lat="45.28766" lon="4.46711">
        <ele>1276.07</ele>
        <time>2020-09-19T10:09:11.551Z</time>
      </trkpt>
      <trkpt lat="45.28755" lon="4.46719">
        <ele>1276.3</ele>
        <time>2020-09-19T10:09:20.668Z</time>
      </trkpt>
      <trkpt lat="45.28746" lon="4.4673">
        <ele>1277.53</ele>
        <time>2020-09-19T10:09:29.886Z</time>
      </trkpt>
      <trkpt lat="45.28738" lon="4.46742">
        <ele>1278.13</ele>
        <time>2020-09-19T10:09:39.000Z</time>
      </trkpt>
      <trkpt lat="45.28729" lon="4.46756">
        <ele>1278.78</ele>
        <time>2020-09-19T10:09:49.000Z</time>
      </trkpt>
      <trkpt lat="45.28719" lon="4.46768">
        <ele>1279.61</ele>
        <time>2020-09-19T10:09:59.000Z</time>
      </trkpt>
      <trkpt lat="45.28711" lon="4.46768">
        <ele>1279.28</ele>
        <time>2020-09-19T10:10:09.000Z</time>
      </trkpt>
      <trkpt lat="45.28709" lon="4.46767">
        <ele>1279.52</ele>
        <time>2020-09-19T10:10:24.655Z</time>
      </trkpt>
      <trkpt lat="45.28706" lon="4.46761">
        <ele>1279.16</ele>
        <time>2020-09-19T10:10:33.688Z</time>
      </trkpt>
      <trkpt lat="45.28699" lon="4.46751">
        <ele>1279.25</ele>
        <time>2020-09-19T10:10:43.357Z</time>
      </trkpt>
      <trkpt lat="45.28699" lon="4.46738">
        <ele>1277.99</ele>
        <time>2020-09-19T10:10:53.000Z</time>
      </trkpt>
      <trkpt lat="45.28698" lon="4.46731">
        <ele>1276.98</ele>
        <time>2020-09-19T10:11:02.313Z</time>
      </trkpt>
      <trkpt lat="45.28696" lon="4.46724">
        <ele>1275.55</ele>
        <time>2020-09-19T10:11:11.332Z</time>
      </trkpt>
      <trkpt lat="45.28697" lon="4.46714">
        <ele>1274.67</ele>
        <time>2020-09-19T10:11:22.000Z</time>
      </trkpt>
      <trkpt lat="45.28702" lon="4.46704">
        <ele>1275.95</ele>
        <time>2020-09-19T10:11:32.000Z</time>
      </trkpt>
      <trkpt lat="45.28702" lon="4.46701">
        <ele>1276.83</ele>
        <time>2020-09-19T10:11:42.000Z</time>
      </trkpt>
      <trkpt lat="45.287" lon="4.46703">
        <ele>1275.93</ele>
        <time>2020-09-19T10:11:52.000Z</time>
      </trkpt>
      <trkpt lat="45.287" lon="4.46701">
        <ele>1275.41</ele>
        <time>2020-09-19T10:12:03.578Z</time>
      </trkpt>
      <trkpt lat="45.28698" lon="4.46698">
        <ele>1276.16</ele>
        <time>2020-09-19T10:12:13.000Z</time>
      </trkpt>
      <trkpt lat="45.28697" lon="4.467">
        <ele>1275.36</ele>
        <time>2020-09-19T10:12:23.000Z</time>
      </trkpt>
      <trkpt lat="45.28696" lon="4.46702">
        <ele>1275.94</ele>
        <time>2020-09-19T10:13:28.000Z</time>
      </trkpt>
      <trkpt lat="45.28697" lon="4.46707">
        <ele>1277.61</ele>
        <time>2020-09-19T10:13:38.000Z</time>
      </trkpt>
      <trkpt lat="45.28697" lon="4.46713">
        <ele>1277.71</ele>
        <time>2020-09-19T10:13:48.000Z</time>
      </trkpt>
      <trkpt lat="45.28698" lon="4.46724">
        <ele>1278.3</ele>
        <time>2020-09-19T10:13:57.738Z</time>
      </trkpt>
      <trkpt lat="45.287" lon="4.46729">
        <ele>1278.91</ele>
        <time>2020-09-19T10:14:07.000Z</time>
      </trkpt>
      <trkpt lat="45.287" lon="4.46731">
        <ele>1278.73</ele>
        <time>2020-09-19T10:14:21.000Z</time>
      </trkpt>
      <trkpt lat="45.28701" lon="4.46734">
        <ele>1279.26</ele>
        <time>2020-09-19T10:14:48.000Z</time>
      </trkpt>
      <trkpt lat="45.287" lon="4.46736">
        <ele>1278.96</ele>
        <time>2020-09-19T10:14:58.000Z</time>
      </trkpt>
      <trkpt lat="45.28702" lon="4.46738">
        <ele>1278.95</ele>
        <time>2020-09-19T10:15:08.000Z</time>
      </trkpt>
      <trkpt lat="45.28703" lon="4.46739">
        <ele>1279.07</ele>
        <time>2020-09-19T10:15:23.000Z</time>
      </trkpt>
      <trkpt lat="45.28707" lon="4.46744">
        <ele>1279.56</ele>
        <time>2020-09-19T10:19:38.000Z</time>
      </trkpt>
      <trkpt lat="45.28708" lon="4.46746">
        <ele>1280.05</ele>
        <time>2020-09-19T10:24:36.000Z</time>
      </trkpt>
      <trkpt lat="45.28707" lon="4.46748">
        <ele>1280.85</ele>
        <time>2020-09-19T10:27:17.000Z</time>
      </trkpt>
      <trkpt lat="45.28707" lon="4.46751">
        <ele>1280.41</ele>
        <time>2020-09-19T10:27:41.000Z</time>
      </trkpt>
      <trkpt lat="45.28705" lon="4.46749">
        <ele>1280.23</ele>
        <time>2020-09-19T10:28:44.999Z</time>
      </trkpt>
      <trkpt lat="45.28706" lon="4.46747">
        <ele>1281.01</ele>
        <time>2020-09-19T10:30:10.999Z</time>
      </trkpt>
      <trkpt lat="45.28707" lon="4.4675">
        <ele>1281.63</ele>
        <time>2020-09-19T10:31:48.999Z</time>
      </trkpt>
      <trkpt lat="45.28706" lon="4.46747">
        <ele>1282.35</ele>
        <time>2020-09-19T10:33:02.999Z</time>
      </trkpt>
      <trkpt lat="45.28705" lon="4.46745">
        <ele>1282.83</ele>
        <time>2020-09-19T10:34:19.999Z</time>
      </trkpt>
      <trkpt lat="45.28705" lon="4.46748">
        <ele>1282.58</ele>
        <time>2020-09-19T10:35:54.999Z</time>
      </trkpt>
      <trkpt lat="45.28705" lon="4.46749">
        <ele>1282.6</ele>
        <time>2020-09-19T10:36:17.999Z</time>
      </trkpt>
      <trkpt lat="45.28703" lon="4.46747">
        <ele>1284.04</ele>
        <time>2020-09-19T10:48:39.000Z</time>
      </trkpt>
      <trkpt lat="45.28702" lon="4.46749">
        <ele>1284.02</ele>
        <time>2020-09-19T10:48:51.560Z</time>
      </trkpt>
      <trkpt lat="45.28707" lon="4.46755">
        <ele>1284.15</ele>
        <time>2020-09-19T10:49:02.000Z</time>
      </trkpt>
      <trkpt lat="45.28718" lon="4.46767">
        <ele>1284.58</ele>
        <time>2020-09-19T10:49:11.661Z</time>
      </trkpt>
      <trkpt lat="45.28723" lon="4.46779">
        <ele>1284.63</ele>
        <time>2020-09-19T10:49:20.778Z</time>
      </trkpt>
      <trkpt lat="45.28712" lon="4.46795">
        <ele>1285.04</ele>
        <time>2020-09-19T10:49:30.319Z</time>
      </trkpt>
      <trkpt lat="45.28703" lon="4.46806">
        <ele>1284.68</ele>
        <time>2020-09-19T10:49:40.000Z</time>
      </trkpt>
      <trkpt lat="45.28695" lon="4.46819">
        <ele>1284.27</ele>
        <time>2020-09-19T10:49:50.000Z</time>
      </trkpt>
      <trkpt lat="45.28694" lon="4.46834">
        <ele>1285.38</ele>
        <time>2020-09-19T10:49:59.266Z</time>
      </trkpt>
      <trkpt lat="45.28687" lon="4.46846">
        <ele>1285.01</ele>
        <time>2020-09-19T10:50:09.000Z</time>
      </trkpt>
      <trkpt lat="45.28676" lon="4.46859">
        <ele>1284.23</ele>
        <time>2020-09-19T10:50:18.766Z</time>
      </trkpt>
      <trkpt lat="45.2867" lon="4.46877">
        <ele>1283.47</ele>
        <time>2020-09-19T10:50:29.000Z</time>
      </trkpt>
      <trkpt lat="45.28664" lon="4.46896">
        <ele>1283.86</ele>
        <time>2020-09-19T10:50:38.481Z</time>
      </trkpt>
      <trkpt lat="45.2866" lon="4.46909">
        <ele>1283.27</ele>
        <time>2020-09-19T10:50:47.999Z</time>
      </trkpt>
      <trkpt lat="45.28657" lon="4.46926">
        <ele>1282.68</ele>
        <time>2020-09-19T10:50:57.999Z</time>
      </trkpt>
      <trkpt lat="45.28652" lon="4.46946">
        <ele>1282.33</ele>
        <time>2020-09-19T10:51:07.999Z</time>
      </trkpt>
      <trkpt lat="45.28648" lon="4.4696">
        <ele>1281.71</ele>
        <time>2020-09-19T10:51:17.527Z</time>
      </trkpt>
      <trkpt lat="45.28643" lon="4.46971">
        <ele>1281.12</ele>
        <time>2020-09-19T10:51:26.666Z</time>
      </trkpt>
      <trkpt lat="45.28638" lon="4.46985">
        <ele>1280.22</ele>
        <time>2020-09-19T10:51:36.182Z</time>
      </trkpt>
      <trkpt lat="45.28632" lon="4.46999">
        <ele>1279.66</ele>
        <time>2020-09-19T10:51:45.239Z</time>
      </trkpt>
      <trkpt lat="45.28627" lon="4.47013">
        <ele>1279.12</ele>
        <time>2020-09-19T10:51:54.421Z</time>
      </trkpt>
      <trkpt lat="45.28622" lon="4.4703">
        <ele>1277.78</ele>
        <time>2020-09-19T10:52:04.999Z</time>
      </trkpt>
      <trkpt lat="45.2862" lon="4.47044">
        <ele>1276.69</ele>
        <time>2020-09-19T10:52:14.479Z</time>
      </trkpt>
      <trkpt lat="45.28614" lon="4.47061">
        <ele>1276.26</ele>
        <time>2020-09-19T10:52:24.075Z</time>
      </trkpt>
      <trkpt lat="45.28613" lon="4.47077">
        <ele>1275.35</ele>
        <time>2020-09-19T10:52:33.999Z</time>
      </trkpt>
      <trkpt lat="45.2861" lon="4.47092">
        <ele>1274.75</ele>
        <time>2020-09-19T10:52:43.347Z</time>
      </trkpt>
      <trkpt lat="45.28608" lon="4.47108">
        <ele>1274.18</ele>
        <time>2020-09-19T10:52:52.446Z</time>
      </trkpt>
      <trkpt lat="45.28606" lon="4.47127">
        <ele>1273.33</ele>
        <time>2020-09-19T10:53:01.665Z</time>
      </trkpt>
      <trkpt lat="45.28603" lon="4.47141">
        <ele>1272.56</ele>
        <time>2020-09-19T10:53:10.826Z</time>
      </trkpt>
      <trkpt lat="45.28603" lon="4.47154">
        <ele>1271.75</ele>
        <time>2020-09-19T10:53:19.999Z</time>
      </trkpt>
      <trkpt lat="45.28603" lon="4.47168">
        <ele>1270.81</ele>
        <time>2020-09-19T10:53:29.446Z</time>
      </trkpt>
      <trkpt lat="45.28599" lon="4.47176">
        <ele>1270.24</ele>
        <time>2020-09-19T10:53:38.483Z</time>
      </trkpt>
      <trkpt lat="45.28596" lon="4.47176">
        <ele>1270.13</ele>
        <time>2020-09-19T10:53:47.999Z</time>
      </trkpt>
      <trkpt lat="45.28597" lon="4.47181">
        <ele>1270.48</ele>
        <time>2020-09-19T10:53:57.481Z</time>
      </trkpt>
      <trkpt lat="45.28602" lon="4.47192">
        <ele>1270.43</ele>
        <time>2020-09-19T10:54:06.999Z</time>
      </trkpt>
      <trkpt lat="45.28606" lon="4.472">
        <ele>1269.98</ele>
        <time>2020-09-19T10:54:16.526Z</time>
      </trkpt>
      <trkpt lat="45.28611" lon="4.47211">
        <ele>1270.16</ele>
        <time>2020-09-19T10:54:25.724Z</time>
      </trkpt>
      <trkpt lat="45.2862" lon="4.47221">
        <ele>1270.11</ele>
        <time>2020-09-19T10:54:35.025Z</time>
      </trkpt>
      <trkpt lat="45.28625" lon="4.47233">
        <ele>1270.26</ele>
        <time>2020-09-19T10:54:44.222Z</time>
      </trkpt>
      <trkpt lat="45.2863" lon="4.47245">
        <ele>1270.2</ele>
        <time>2020-09-19T10:54:53.323Z</time>
      </trkpt>
      <trkpt lat="45.28637" lon="4.47255">
        <ele>1270.28</ele>
        <time>2020-09-19T10:55:02.999Z</time>
      </trkpt>
      <trkpt lat="45.28648" lon="4.47268">
        <ele>1270.41</ele>
        <time>2020-09-19T10:55:12.504Z</time>
      </trkpt>
      <trkpt lat="45.28655" lon="4.47277">
        <ele>1270.45</ele>
        <time>2020-09-19T10:55:21.522Z</time>
      </trkpt>
      <trkpt lat="45.28662" lon="4.47288">
        <ele>1270.88</ele>
        <time>2020-09-19T10:55:30.999Z</time>
      </trkpt>
      <trkpt lat="45.28671" lon="4.47297">
        <ele>1271.24</ele>
        <time>2020-09-19T10:55:40.559Z</time>
      </trkpt>
      <trkpt lat="45.2868" lon="4.47303">
        <ele>1270.96</ele>
        <time>2020-09-19T10:55:49.999Z</time>
      </trkpt>
      <trkpt lat="45.28691" lon="4.47313">
        <ele>1270.37</ele>
        <time>2020-09-19T10:56:00.999Z</time>
      </trkpt>
      <trkpt lat="45.287" lon="4.47321">
        <ele>1269.24</ele>
        <time>2020-09-19T10:56:10.257Z</time>
      </trkpt>
      <trkpt lat="45.28708" lon="4.47328">
        <ele>1269.35</ele>
        <time>2020-09-19T10:56:19.999Z</time>
      </trkpt>
      <trkpt lat="45.28719" lon="4.47336">
        <ele>1268.48</ele>
        <time>2020-09-19T10:56:29.410Z</time>
      </trkpt>
      <trkpt lat="45.28728" lon="4.47343">
        <ele>1267.15</ele>
        <time>2020-09-19T10:56:39.999Z</time>
      </trkpt>
      <trkpt lat="45.2874" lon="4.47349">
        <ele>1265.96</ele>
        <time>2020-09-19T10:56:49.445Z</time>
      </trkpt>
      <trkpt lat="45.28751" lon="4.47354">
        <ele>1265.22</ele>
        <time>2020-09-19T10:56:58.999Z</time>
      </trkpt>
      <trkpt lat="45.28762" lon="4.4736">
        <ele>1264.06</ele>
        <time>2020-09-19T10:57:08.383Z</time>
      </trkpt>
      <trkpt lat="45.28771" lon="4.47364">
        <ele>1263.27</ele>
        <time>2020-09-19T10:57:17.999Z</time>
      </trkpt>
      <trkpt lat="45.28782" lon="4.4737">
        <ele>1262.61</ele>
        <time>2020-09-19T10:57:27.037Z</time>
      </trkpt>
      <trkpt lat="45.28796" lon="4.47374">
        <ele>1262.06</ele>
        <time>2020-09-19T10:57:36.321Z</time>
      </trkpt>
      <trkpt lat="45.28808" lon="4.47378">
        <ele>1261.7</ele>
        <time>2020-09-19T10:57:45.999Z</time>
      </trkpt>
      <trkpt lat="45.28822" lon="4.4738">
        <ele>1261.11</ele>
        <time>2020-09-19T10:57:55.646Z</time>
      </trkpt>
      <trkpt lat="45.28831" lon="4.47386">
        <ele>1260.47</ele>
        <time>2020-09-19T10:58:05.999Z</time>
      </trkpt>
      <trkpt lat="45.28839" lon="4.47397">
        <ele>1260.12</ele>
        <time>2020-09-19T10:58:15.999Z</time>
      </trkpt>
      <trkpt lat="45.28849" lon="4.47409">
        <ele>1259.33</ele>
        <time>2020-09-19T10:58:25.999Z</time>
      </trkpt>
      <trkpt lat="45.28859" lon="4.47426">
        <ele>1259.18</ele>
        <time>2020-09-19T10:58:35.462Z</time>
      </trkpt>
      <trkpt lat="45.28864" lon="4.47438">
        <ele>1259.06</ele>
        <time>2020-09-19T10:58:44.999Z</time>
      </trkpt>
      <trkpt lat="45.28873" lon="4.47451">
        <ele>1258.72</ele>
        <time>2020-09-19T10:58:54.999Z</time>
      </trkpt>
      <trkpt lat="45.2888" lon="4.47464">
        <ele>1258.35</ele>
        <time>2020-09-19T10:59:04.999Z</time>
      </trkpt>
      <trkpt lat="45.28886" lon="4.47481">
        <ele>1258.18</ele>
        <time>2020-09-19T10:59:14.101Z</time>
      </trkpt>
      <trkpt lat="45.28892" lon="4.47493">
        <ele>1257.99</ele>
        <time>2020-09-19T10:59:23.999Z</time>
      </trkpt>
      <trkpt lat="45.289" lon="4.47508">
        <ele>1257.88</ele>
        <time>2020-09-19T10:59:33.238Z</time>
      </trkpt>
      <trkpt lat="45.28906" lon="4.47523">
        <ele>1257.63</ele>
        <time>2020-09-19T10:59:42.549Z</time>
      </trkpt>
      <trkpt lat="45.2891" lon="4.47536">
        <ele>1257.31</ele>
        <time>2020-09-19T10:59:51.891Z</time>
      </trkpt>
      <trkpt lat="45.28913" lon="4.47545">
        <ele>1257.65</ele>
        <time>2020-09-19T11:00:00.999Z</time>
      </trkpt>
      <trkpt lat="45.28919" lon="4.47556">
        <ele>1258.51</ele>
        <time>2020-09-19T11:00:10.224Z</time>
      </trkpt>
      <trkpt lat="45.28927" lon="4.47572">
        <ele>1258.07</ele>
        <time>2020-09-19T11:00:19.802Z</time>
      </trkpt>
      <trkpt lat="45.28935" lon="4.47586">
        <ele>1258.21</ele>
        <time>2020-09-19T11:00:28.843Z</time>
      </trkpt>
      <trkpt lat="45.28941" lon="4.47597">
        <ele>1257.71</ele>
        <time>2020-09-19T11:00:37.999Z</time>
      </trkpt>
      <trkpt lat="45.28946" lon="4.47614">
        <ele>1257.02</ele>
        <time>2020-09-19T11:00:47.999Z</time>
      </trkpt>
      <trkpt lat="45.28933" lon="4.47628">
        <ele>1256</ele>
        <time>2020-09-19T11:00:57.301Z</time>
      </trkpt>
      <trkpt lat="45.28924" lon="4.47633">
        <ele>1255.08</ele>
        <time>2020-09-19T11:01:06.999Z</time>
      </trkpt>
      <trkpt lat="45.28911" lon="4.47642">
        <ele>1254.4</ele>
        <time>2020-09-19T11:01:16.685Z</time>
      </trkpt>
      <trkpt lat="45.289" lon="4.47653">
        <ele>1252.65</ele>
        <time>2020-09-19T11:01:26.999Z</time>
      </trkpt>
      <trkpt lat="45.28888" lon="4.47662">
        <ele>1251.27</ele>
        <time>2020-09-19T11:01:36.302Z</time>
      </trkpt>
      <trkpt lat="45.2888" lon="4.47674">
        <ele>1250.72</ele>
        <time>2020-09-19T11:01:47.000Z</time>
      </trkpt>
      <trkpt lat="45.28872" lon="4.47689">
        <ele>1249.88</ele>
        <time>2020-09-19T11:01:56.480Z</time>
      </trkpt>
      <trkpt lat="45.28864" lon="4.47702">
        <ele>1249.02</ele>
        <time>2020-09-19T11:02:05.539Z</time>
      </trkpt>
      <trkpt lat="45.28855" lon="4.47708">
        <ele>1247.92</ele>
        <time>2020-09-19T11:02:14.758Z</time>
      </trkpt>
      <trkpt lat="45.28845" lon="4.47715">
        <ele>1247.28</ele>
        <time>2020-09-19T11:02:24.000Z</time>
      </trkpt>
      <trkpt lat="45.28832" lon="4.47726">
        <ele>1246.55</ele>
        <time>2020-09-19T11:02:33.385Z</time>
      </trkpt>
      <trkpt lat="45.28826" lon="4.47736">
        <ele>1245.57</ele>
        <time>2020-09-19T11:02:42.386Z</time>
      </trkpt>
      <trkpt lat="45.28822" lon="4.47746">
        <ele>1244.73</ele>
        <time>2020-09-19T11:02:51.745Z</time>
      </trkpt>
      <trkpt lat="45.28817" lon="4.47754">
        <ele>1243.32</ele>
        <time>2020-09-19T11:03:01.127Z</time>
      </trkpt>
      <trkpt lat="45.2881" lon="4.47765">
        <ele>1241.86</ele>
        <time>2020-09-19T11:03:10.706Z</time>
      </trkpt>
      <trkpt lat="45.28801" lon="4.47777">
        <ele>1241.57</ele>
        <time>2020-09-19T11:03:20.645Z</time>
      </trkpt>
      <trkpt lat="45.28794" lon="4.47788">
        <ele>1239.61</ele>
        <time>2020-09-19T11:03:29.701Z</time>
      </trkpt>
      <trkpt lat="45.28786" lon="4.47799">
        <ele>1238.13</ele>
        <time>2020-09-19T11:03:39.163Z</time>
      </trkpt>
      <trkpt lat="45.28776" lon="4.47807">
        <ele>1236.73</ele>
        <time>2020-09-19T11:03:48.702Z</time>
      </trkpt>
      <trkpt lat="45.28768" lon="4.47816">
        <ele>1235.57</ele>
        <time>2020-09-19T11:03:58.762Z</time>
      </trkpt>
      <trkpt lat="45.28765" lon="4.47827">
        <ele>1235.8</ele>
        <time>2020-09-19T11:04:08.000Z</time>
      </trkpt>
      <trkpt lat="45.28767" lon="4.47828">
        <ele>1235.44</ele>
        <time>2020-09-19T11:04:18.000Z</time>
      </trkpt>
      <trkpt lat="45.28764" lon="4.47837">
        <ele>1234.71</ele>
        <time>2020-09-19T11:04:27.125Z</time>
      </trkpt>
      <trkpt lat="45.28759" lon="4.47847">
        <ele>1234.42</ele>
        <time>2020-09-19T11:04:36.546Z</time>
      </trkpt>
      <trkpt lat="45.28747" lon="4.47848">
        <ele>1232.98</ele>
        <time>2020-09-19T11:04:45.983Z</time>
      </trkpt>
      <trkpt lat="45.28737" lon="4.47852">
        <ele>1232.52</ele>
        <time>2020-09-19T11:04:55.264Z</time>
      </trkpt>
      <trkpt lat="45.28734" lon="4.47861">
        <ele>1230.62</ele>
        <time>2020-09-19T11:05:06.000Z</time>
      </trkpt>
      <trkpt lat="45.28737" lon="4.47882">
        <ele>1229.43</ele>
        <time>2020-09-19T11:05:15.641Z</time>
      </trkpt>
      <trkpt lat="45.28744" lon="4.47898">
        <ele>1229.08</ele>
        <time>2020-09-19T11:05:24.758Z</time>
      </trkpt>
      <trkpt lat="45.28749" lon="4.4791">
        <ele>1227.72</ele>
        <time>2020-09-19T11:05:34.000Z</time>
      </trkpt>
      <trkpt lat="45.28753" lon="4.47922">
        <ele>1228.29</ele>
        <time>2020-09-19T11:05:44.000Z</time>
      </trkpt>
      <trkpt lat="45.28754" lon="4.47919">
        <ele>1227.98</ele>
        <time>2020-09-19T11:06:04.568Z</time>
      </trkpt>
      <trkpt lat="45.28761" lon="4.47922">
        <ele>1228.46</ele>
        <time>2020-09-19T11:06:13.748Z</time>
      </trkpt>
      <trkpt lat="45.28767" lon="4.4793">
        <ele>1229.39</ele>
        <time>2020-09-19T11:06:23.000Z</time>
      </trkpt>
      <trkpt lat="45.28774" lon="4.4794">
        <ele>1229.15</ele>
        <time>2020-09-19T11:06:32.705Z</time>
      </trkpt>
      <trkpt lat="45.28779" lon="4.47946">
        <ele>1230.58</ele>
        <time>2020-09-19T11:06:42.000Z</time>
      </trkpt>
      <trkpt lat="45.28789" lon="4.47945">
        <ele>1230.34</ele>
        <time>2020-09-19T11:06:52.000Z</time>
      </trkpt>
      <trkpt lat="45.28802" lon="4.47948">
        <ele>1231.84</ele>
        <time>2020-09-19T11:07:02.000Z</time>
      </trkpt>
      <trkpt lat="45.28814" lon="4.47957">
        <ele>1232</ele>
        <time>2020-09-19T11:07:12.000Z</time>
      </trkpt>
      <trkpt lat="45.28825" lon="4.47966">
        <ele>1232.58</ele>
        <time>2020-09-19T11:07:21.779Z</time>
      </trkpt>
      <trkpt lat="45.28837" lon="4.47974">
        <ele>1232.34</ele>
        <time>2020-09-19T11:07:32.000Z</time>
      </trkpt>
      <trkpt lat="45.28848" lon="4.47979">
        <ele>1232.42</ele>
        <time>2020-09-19T11:07:41.640Z</time>
      </trkpt>
      <trkpt lat="45.28857" lon="4.47983">
        <ele>1232.94</ele>
        <time>2020-09-19T11:07:51.240Z</time>
      </trkpt>
      <trkpt lat="45.28867" lon="4.47986">
        <ele>1232.44</ele>
        <time>2020-09-19T11:08:00.666Z</time>
      </trkpt>
      <trkpt lat="45.28875" lon="4.47987">
        <ele>1231.59</ele>
        <time>2020-09-19T11:08:10.000Z</time>
      </trkpt>
      <trkpt lat="45.28889" lon="4.47993">
        <ele>1232.44</ele>
        <time>2020-09-19T11:08:20.000Z</time>
      </trkpt>
      <trkpt lat="45.28901" lon="4.48009">
        <ele>1231.32</ele>
        <time>2020-09-19T11:08:29.862Z</time>
      </trkpt>
      <trkpt lat="45.28897" lon="4.48025">
        <ele>1229.71</ele>
        <time>2020-09-19T11:08:39.000Z</time>
      </trkpt>
      <trkpt lat="45.28889" lon="4.48043">
        <ele>1228.1</ele>
        <time>2020-09-19T11:08:49.000Z</time>
      </trkpt>
      <trkpt lat="45.28879" lon="4.48056">
        <ele>1226.04</ele>
        <time>2020-09-19T11:08:59.000Z</time>
      </trkpt>
      <trkpt lat="45.28867" lon="4.48072">
        <ele>1224.42</ele>
        <time>2020-09-19T11:09:09.000Z</time>
      </trkpt>
      <trkpt lat="45.28864" lon="4.48093">
        <ele>1222.91</ele>
        <time>2020-09-19T11:09:20.000Z</time>
      </trkpt>
      <trkpt lat="45.2888" lon="4.48102">
        <ele>1222.41</ele>
        <time>2020-09-19T11:09:29.598Z</time>
      </trkpt>
      <trkpt lat="45.2889" lon="4.48109">
        <ele>1222.31</ele>
        <time>2020-09-19T11:09:39.000Z</time>
      </trkpt>
      <trkpt lat="45.28902" lon="4.48117">
        <ele>1222.1</ele>
        <time>2020-09-19T11:09:48.396Z</time>
      </trkpt>
      <trkpt lat="45.28911" lon="4.48124">
        <ele>1222.3</ele>
        <time>2020-09-19T11:09:58.000Z</time>
      </trkpt>
      <trkpt lat="45.28919" lon="4.48136">
        <ele>1222.19</ele>
        <time>2020-09-19T11:10:07.468Z</time>
      </trkpt>
      <trkpt lat="45.28927" lon="4.48149">
        <ele>1222.27</ele>
        <time>2020-09-19T11:10:16.803Z</time>
      </trkpt>
      <trkpt lat="45.28935" lon="4.48161">
        <ele>1221.9</ele>
        <time>2020-09-19T11:10:26.233Z</time>
      </trkpt>
      <trkpt lat="45.28946" lon="4.48168">
        <ele>1221.64</ele>
        <time>2020-09-19T11:10:36.000Z</time>
      </trkpt>
      <trkpt lat="45.28955" lon="4.48174">
        <ele>1221.53</ele>
        <time>2020-09-19T11:10:45.284Z</time>
      </trkpt>
      <trkpt lat="45.28967" lon="4.48178">
        <ele>1221.29</ele>
        <time>2020-09-19T11:10:54.765Z</time>
      </trkpt>
      <trkpt lat="45.28974" lon="4.48178">
        <ele>1220.89</ele>
        <time>2020-09-19T11:11:04.003Z</time>
      </trkpt>
      <trkpt lat="45.28983" lon="4.48181">
        <ele>1220.64</ele>
        <time>2020-09-19T11:11:14.000Z</time>
      </trkpt>
      <trkpt lat="45.29001" lon="4.48189">
        <ele>1220.93</ele>
        <time>2020-09-19T11:11:24.000Z</time>
      </trkpt>
      <trkpt lat="45.29015" lon="4.48192">
        <ele>1219.19</ele>
        <time>2020-09-19T11:11:33.022Z</time>
      </trkpt>
      <trkpt lat="45.29024" lon="4.48194">
        <ele>1219.7</ele>
        <time>2020-09-19T11:11:42.760Z</time>
      </trkpt>
      <trkpt lat="45.29034" lon="4.48195">
        <ele>1218.78</ele>
        <time>2020-09-19T11:11:52.000Z</time>
      </trkpt>
      <trkpt lat="45.29043" lon="4.48197">
        <ele>1217.81</ele>
        <time>2020-09-19T11:12:01.141Z</time>
      </trkpt>
      <trkpt lat="45.29048" lon="4.48198">
        <ele>1217.95</ele>
        <time>2020-09-19T11:12:11.000Z</time>
      </trkpt>
      <trkpt lat="45.29063" lon="4.482">
        <ele>1217.44</ele>
        <time>2020-09-19T11:12:20.484Z</time>
      </trkpt>
      <trkpt lat="45.29074" lon="4.48202">
        <ele>1217.15</ele>
        <time>2020-09-19T11:12:31.000Z</time>
      </trkpt>
      <trkpt lat="45.29091" lon="4.48212">
        <ele>1216.74</ele>
        <time>2020-09-19T11:12:40.864Z</time>
      </trkpt>
      <trkpt lat="45.29103" lon="4.48217">
        <ele>1215.97</ele>
        <time>2020-09-19T11:12:49.999Z</time>
      </trkpt>
      <trkpt lat="45.29114" lon="4.48222">
        <ele>1215.72</ele>
        <time>2020-09-19T11:12:59.999Z</time>
      </trkpt>
      <trkpt lat="45.29127" lon="4.48225">
        <ele>1214.95</ele>
        <time>2020-09-19T11:13:09.999Z</time>
      </trkpt>
      <trkpt lat="45.29132" lon="4.4823">
        <ele>1215.81</ele>
        <time>2020-09-19T11:13:19.264Z</time>
      </trkpt>
      <trkpt lat="45.29142" lon="4.48231">
        <ele>1214.77</ele>
        <time>2020-09-19T11:13:28.828Z</time>
      </trkpt>
      <trkpt lat="45.29156" lon="4.48228">
        <ele>1215.23</ele>
        <time>2020-09-19T11:13:38.181Z</time>
      </trkpt>
      <trkpt lat="45.29169" lon="4.48226">
        <ele>1214.15</ele>
        <time>2020-09-19T11:13:47.641Z</time>
      </trkpt>
      <trkpt lat="45.29182" lon="4.48225">
        <ele>1213.91</ele>
        <time>2020-09-19T11:13:57.999Z</time>
      </trkpt>
      <trkpt lat="45.29196" lon="4.48223">
        <ele>1213.86</ele>
        <time>2020-09-19T11:14:07.184Z</time>
      </trkpt>
      <trkpt lat="45.29208" lon="4.48219">
        <ele>1212.84</ele>
        <time>2020-09-19T11:14:16.999Z</time>
      </trkpt>
      <trkpt lat="45.29223" lon="4.48212">
        <ele>1212.45</ele>
        <time>2020-09-19T11:14:26.477Z</time>
      </trkpt>
      <trkpt lat="45.29235" lon="4.48207">
        <ele>1212.21</ele>
        <time>2020-09-19T11:14:35.589Z</time>
      </trkpt>
      <trkpt lat="45.29246" lon="4.48202">
        <ele>1211.58</ele>
        <time>2020-09-19T11:14:44.690Z</time>
      </trkpt>
      <trkpt lat="45.29259" lon="4.482">
        <ele>1211.19</ele>
        <time>2020-09-19T11:14:53.883Z</time>
      </trkpt>
      <trkpt lat="45.29272" lon="4.48196">
        <ele>1211.57</ele>
        <time>2020-09-19T11:15:03.999Z</time>
      </trkpt>
      <trkpt lat="45.29287" lon="4.48193">
        <ele>1210.7</ele>
        <time>2020-09-19T11:15:13.566Z</time>
      </trkpt>
      <trkpt lat="45.29301" lon="4.48191">
        <ele>1210.53</ele>
        <time>2020-09-19T11:15:22.863Z</time>
      </trkpt>
      <trkpt lat="45.29311" lon="4.48187">
        <ele>1210.15</ele>
        <time>2020-09-19T11:15:31.999Z</time>
      </trkpt>
      <trkpt lat="45.29324" lon="4.48181">
        <ele>1209.78</ele>
        <time>2020-09-19T11:15:41.659Z</time>
      </trkpt>
      <trkpt lat="45.29335" lon="4.48172">
        <ele>1209.31</ele>
        <time>2020-09-19T11:15:50.999Z</time>
      </trkpt>
      <trkpt lat="45.29345" lon="4.48161">
        <ele>1209.2</ele>
        <time>2020-09-19T11:16:00.499Z</time>
      </trkpt>
      <trkpt lat="45.29354" lon="4.48154">
        <ele>1208.43</ele>
        <time>2020-09-19T11:16:09.666Z</time>
      </trkpt>
      <trkpt lat="45.29363" lon="4.48162">
        <ele>1207.12</ele>
        <time>2020-09-19T11:16:18.999Z</time>
      </trkpt>
      <trkpt lat="45.29364" lon="4.48181">
        <ele>1207.05</ele>
        <time>2020-09-19T11:16:28.999Z</time>
      </trkpt>
      <trkpt lat="45.29366" lon="4.48201">
        <ele>1206.81</ele>
        <time>2020-09-19T11:16:38.284Z</time>
      </trkpt>
      <trkpt lat="45.29368" lon="4.48221">
        <ele>1206.28</ele>
        <time>2020-09-19T11:16:48.999Z</time>
      </trkpt>
      <trkpt lat="45.29365" lon="4.48239">
        <ele>1205.78</ele>
        <time>2020-09-19T11:16:58.999Z</time>
      </trkpt>
      <trkpt lat="45.29365" lon="4.48252">
        <ele>1204.86</ele>
        <time>2020-09-19T11:17:08.999Z</time>
      </trkpt>
      <trkpt lat="45.29371" lon="4.48269">
        <ele>1204.48</ele>
        <time>2020-09-19T11:17:19.999Z</time>
      </trkpt>
      <trkpt lat="45.29384" lon="4.48272">
        <ele>1204.95</ele>
        <time>2020-09-19T11:17:29.999Z</time>
      </trkpt>
      <trkpt lat="45.29397" lon="4.48277">
        <ele>1205.1</ele>
        <time>2020-09-19T11:17:39.469Z</time>
      </trkpt>
      <trkpt lat="45.29403" lon="4.48286">
        <ele>1204.64</ele>
        <time>2020-09-19T11:17:48.999Z</time>
      </trkpt>
      <trkpt lat="45.29409" lon="4.48301">
        <ele>1204.59</ele>
        <time>2020-09-19T11:17:58.566Z</time>
      </trkpt>
      <trkpt lat="45.29412" lon="4.48313">
        <ele>1204.34</ele>
        <time>2020-09-19T11:18:07.999Z</time>
      </trkpt>
      <trkpt lat="45.29416" lon="4.48326">
        <ele>1202.79</ele>
        <time>2020-09-19T11:18:17.999Z</time>
      </trkpt>
      <trkpt lat="45.29416" lon="4.48333">
        <ele>1203.24</ele>
        <time>2020-09-19T11:18:27.999Z</time>
      </trkpt>
      <trkpt lat="45.29419" lon="4.4834">
        <ele>1202.05</ele>
        <time>2020-09-19T11:18:37.999Z</time>
      </trkpt>
      <trkpt lat="45.29424" lon="4.48352">
        <ele>1201.16</ele>
        <time>2020-09-19T11:18:47.999Z</time>
      </trkpt>
      <trkpt lat="45.29432" lon="4.48382">
        <ele>1200.48</ele>
        <time>2020-09-19T11:18:57.518Z</time>
      </trkpt>
      <trkpt lat="45.29437" lon="4.48404">
        <ele>1198.41</ele>
        <time>2020-09-19T11:19:07.999Z</time>
      </trkpt>
      <trkpt lat="45.29445" lon="4.48424">
        <ele>1196.31</ele>
        <time>2020-09-19T11:19:17.444Z</time>
      </trkpt>
      <trkpt lat="45.29449" lon="4.48438">
        <ele>1194.83</ele>
        <time>2020-09-19T11:19:26.999Z</time>
      </trkpt>
      <trkpt lat="45.29454" lon="4.48452">
        <ele>1193.19</ele>
        <time>2020-09-19T11:19:37.999Z</time>
      </trkpt>
      <trkpt lat="45.2946" lon="4.48467">
        <ele>1192.41</ele>
        <time>2020-09-19T11:19:47.522Z</time>
      </trkpt>
      <trkpt lat="45.29468" lon="4.48474">
        <ele>1191.04</ele>
        <time>2020-09-19T11:19:56.999Z</time>
      </trkpt>
      <trkpt lat="45.29471" lon="4.48489">
        <ele>1189.73</ele>
        <time>2020-09-19T11:20:06.999Z</time>
      </trkpt>
      <trkpt lat="45.2948" lon="4.48499">
        <ele>1187.64</ele>
        <time>2020-09-19T11:20:16.158Z</time>
      </trkpt>
      <trkpt lat="45.29489" lon="4.48509">
        <ele>1186.51</ele>
        <time>2020-09-19T11:20:25.278Z</time>
      </trkpt>
      <trkpt lat="45.29498" lon="4.48517">
        <ele>1186.33</ele>
        <time>2020-09-19T11:20:34.999Z</time>
      </trkpt>
      <trkpt lat="45.29505" lon="4.48525">
        <ele>1183.81</ele>
        <time>2020-09-19T11:20:44.233Z</time>
      </trkpt>
      <trkpt lat="45.29503" lon="4.48545">
        <ele>1182.05</ele>
        <time>2020-09-19T11:20:53.625Z</time>
      </trkpt>
      <trkpt lat="45.29504" lon="4.48566">
        <ele>1179.95</ele>
        <time>2020-09-19T11:21:03.086Z</time>
      </trkpt>
      <trkpt lat="45.29505" lon="4.48582">
        <ele>1179.13</ele>
        <time>2020-09-19T11:21:12.465Z</time>
      </trkpt>
      <trkpt lat="45.29504" lon="4.48599">
        <ele>1178.11</ele>
        <time>2020-09-19T11:21:22.999Z</time>
      </trkpt>
      <trkpt lat="45.29505" lon="4.48617">
        <ele>1177.14</ele>
        <time>2020-09-19T11:21:32.999Z</time>
      </trkpt>
      <trkpt lat="45.29504" lon="4.48635">
        <ele>1175.87</ele>
        <time>2020-09-19T11:21:42.999Z</time>
      </trkpt>
      <trkpt lat="45.29508" lon="4.48651">
        <ele>1175.08</ele>
        <time>2020-09-19T11:21:52.999Z</time>
      </trkpt>
      <trkpt lat="45.29514" lon="4.48668">
        <ele>1174.14</ele>
        <time>2020-09-19T11:22:02.267Z</time>
      </trkpt>
      <trkpt lat="45.29521" lon="4.48682">
        <ele>1172.6</ele>
        <time>2020-09-19T11:22:11.285Z</time>
      </trkpt>
      <trkpt lat="45.29527" lon="4.48692">
        <ele>1171.63</ele>
        <time>2020-09-19T11:22:20.383Z</time>
      </trkpt>
      <trkpt lat="45.29537" lon="4.487">
        <ele>1169.98</ele>
        <time>2020-09-19T11:22:29.999Z</time>
      </trkpt>
      <trkpt lat="45.29537" lon="4.48722">
        <ele>1168.5</ele>
        <time>2020-09-19T11:22:39.482Z</time>
      </trkpt>
      <trkpt lat="45.29536" lon="4.48739">
        <ele>1168.49</ele>
        <time>2020-09-19T11:22:49.999Z</time>
      </trkpt>
      <trkpt lat="45.29536" lon="4.48757">
        <ele>1167.36</ele>
        <time>2020-09-19T11:22:59.700Z</time>
      </trkpt>
      <trkpt lat="45.29538" lon="4.48773">
        <ele>1166.28</ele>
        <time>2020-09-19T11:23:08.999Z</time>
      </trkpt>
      <trkpt lat="45.29544" lon="4.48791">
        <ele>1165.02</ele>
        <time>2020-09-19T11:23:18.598Z</time>
      </trkpt>
      <trkpt lat="45.2955" lon="4.48803">
        <ele>1163.89</ele>
        <time>2020-09-19T11:23:27.999Z</time>
      </trkpt>
      <trkpt lat="45.29559" lon="4.4882">
        <ele>1163.04</ele>
        <time>2020-09-19T11:23:37.517Z</time>
      </trkpt>
      <trkpt lat="45.29565" lon="4.48833">
        <ele>1161.86</ele>
        <time>2020-09-19T11:23:47.000Z</time>
      </trkpt>
      <trkpt lat="45.2957" lon="4.48848">
        <ele>1160.94</ele>
        <time>2020-09-19T11:23:57.000Z</time>
      </trkpt>
      <trkpt lat="45.29581" lon="4.48858">
        <ele>1160.32</ele>
        <time>2020-09-19T11:24:06.066Z</time>
      </trkpt>
      <trkpt lat="45.29594" lon="4.4886">
        <ele>1159.96</ele>
        <time>2020-09-19T11:24:15.682Z</time>
      </trkpt>
      <trkpt lat="45.29607" lon="4.48856">
        <ele>1160.05</ele>
        <time>2020-09-19T11:24:24.766Z</time>
      </trkpt>
      <trkpt lat="45.29619" lon="4.48854">
        <ele>1159.28</ele>
        <time>2020-09-19T11:24:35.000Z</time>
      </trkpt>
      <trkpt lat="45.29632" lon="4.48846">
        <ele>1158.92</ele>
        <time>2020-09-19T11:24:44.840Z</time>
      </trkpt>
      <trkpt lat="45.29642" lon="4.4884">
        <ele>1158.29</ele>
        <time>2020-09-19T11:24:53.959Z</time>
      </trkpt>
      <trkpt lat="45.29651" lon="4.48834">
        <ele>1158.17</ele>
        <time>2020-09-19T11:25:03.000Z</time>
      </trkpt>
      <trkpt lat="45.29662" lon="4.48828">
        <ele>1157.22</ele>
        <time>2020-09-19T11:25:13.000Z</time>
      </trkpt>
      <trkpt lat="45.29673" lon="4.48822">
        <ele>1157.88</ele>
        <time>2020-09-19T11:25:22.459Z</time>
      </trkpt>
      <trkpt lat="45.29683" lon="4.4882">
        <ele>1157.3</ele>
        <time>2020-09-19T11:25:32.000Z</time>
      </trkpt>
      <trkpt lat="45.29699" lon="4.48819">
        <ele>1157.57</ele>
        <time>2020-09-19T11:25:41.484Z</time>
      </trkpt>
      <trkpt lat="45.2971" lon="4.48814">
        <ele>1157.59</ele>
        <time>2020-09-19T11:25:51.000Z</time>
      </trkpt>
      <trkpt lat="45.29724" lon="4.48803">
        <ele>1157.79</ele>
        <time>2020-09-19T11:26:00.744Z</time>
      </trkpt>
      <trkpt lat="45.29735" lon="4.48796">
        <ele>1157.72</ele>
        <time>2020-09-19T11:26:11.000Z</time>
      </trkpt>
      <trkpt lat="45.29747" lon="4.48793">
        <ele>1157.37</ele>
        <time>2020-09-19T11:26:20.378Z</time>
      </trkpt>
      <trkpt lat="45.29757" lon="4.48793">
        <ele>1157.69</ele>
        <time>2020-09-19T11:26:29.578Z</time>
      </trkpt>
      <trkpt lat="45.29768" lon="4.48793">
        <ele>1157.59</ele>
        <time>2020-09-19T11:26:39.000Z</time>
      </trkpt>
      <trkpt lat="45.29781" lon="4.48795">
        <ele>1157.36</ele>
        <time>2020-09-19T11:26:48.837Z</time>
      </trkpt>
      <trkpt lat="45.29792" lon="4.48802">
        <ele>1157.81</ele>
        <time>2020-09-19T11:26:58.004Z</time>
      </trkpt>
      <trkpt lat="45.29803" lon="4.48806">
        <ele>1158.56</ele>
        <time>2020-09-19T11:27:07.384Z</time>
      </trkpt>
      <trkpt lat="45.29815" lon="4.48806">
        <ele>1158.48</ele>
        <time>2020-09-19T11:27:17.000Z</time>
      </trkpt>
      <trkpt lat="45.29828" lon="4.48804">
        <ele>1158.44</ele>
        <time>2020-09-19T11:27:27.000Z</time>
      </trkpt>
      <trkpt lat="45.2984" lon="4.48802">
        <ele>1158.55</ele>
        <time>2020-09-19T11:27:36.341Z</time>
      </trkpt>
      <trkpt lat="45.2985" lon="4.48797">
        <ele>1158.72</ele>
        <time>2020-09-19T11:27:45.441Z</time>
      </trkpt>
      <trkpt lat="45.29856" lon="4.48795">
        <ele>1158.76</ele>
        <time>2020-09-19T11:27:56.000Z</time>
      </trkpt>
      <trkpt lat="45.29865" lon="4.48797">
        <ele>1158.6</ele>
        <time>2020-09-19T11:28:06.000Z</time>
      </trkpt>
      <trkpt lat="45.29883" lon="4.48795">
        <ele>1158.68</ele>
        <time>2020-09-19T11:28:15.704Z</time>
      </trkpt>
      <trkpt lat="45.299" lon="4.48796">
        <ele>1158.55</ele>
        <time>2020-09-19T11:28:25.044Z</time>
      </trkpt>
      <trkpt lat="45.29912" lon="4.48799">
        <ele>1159.19</ele>
        <time>2020-09-19T11:28:34.662Z</time>
      </trkpt>
      <trkpt lat="45.29921" lon="4.48806">
        <ele>1159.73</ele>
        <time>2020-09-19T11:28:44.144Z</time>
      </trkpt>
      <trkpt lat="45.29931" lon="4.48814">
        <ele>1160.29</ele>
        <time>2020-09-19T11:28:53.778Z</time>
      </trkpt>
      <trkpt lat="45.29941" lon="4.48817">
        <ele>1160.81</ele>
        <time>2020-09-19T11:29:03.000Z</time>
      </trkpt>
      <trkpt lat="45.29953" lon="4.4882">
        <ele>1161.27</ele>
        <time>2020-09-19T11:29:12.067Z</time>
      </trkpt>
      <trkpt lat="45.29963" lon="4.48825">
        <ele>1161.86</ele>
        <time>2020-09-19T11:29:23.000Z</time>
      </trkpt>
      <trkpt lat="45.29976" lon="4.48831">
        <ele>1162.22</ele>
        <time>2020-09-19T11:29:32.246Z</time>
      </trkpt>
      <trkpt lat="45.29985" lon="4.48833">
        <ele>1162.39</ele>
        <time>2020-09-19T11:29:41.444Z</time>
      </trkpt>
      <trkpt lat="45.29995" lon="4.48834">
        <ele>1162.98</ele>
        <time>2020-09-19T11:29:50.502Z</time>
      </trkpt>
      <trkpt lat="45.30006" lon="4.48839">
        <ele>1163.94</ele>
        <time>2020-09-19T11:29:59.762Z</time>
      </trkpt>
      <trkpt lat="45.30017" lon="4.48848">
        <ele>1164.5</ele>
        <time>2020-09-19T11:30:10.000Z</time>
      </trkpt>
      <trkpt lat="45.30028" lon="4.48858">
        <ele>1165.44</ele>
        <time>2020-09-19T11:30:20.000Z</time>
      </trkpt>
      <trkpt lat="45.30038" lon="4.48863">
        <ele>1166.26</ele>
        <time>2020-09-19T11:30:30.000Z</time>
      </trkpt>
      <trkpt lat="45.30046" lon="4.48867">
        <ele>1167.35</ele>
        <time>2020-09-19T11:30:40.000Z</time>
      </trkpt>
      <trkpt lat="45.30055" lon="4.4887">
        <ele>1169.22</ele>
        <time>2020-09-19T11:30:49.506Z</time>
      </trkpt>
      <trkpt lat="45.30061" lon="4.48885">
        <ele>1170.05</ele>
        <time>2020-09-19T11:31:00.000Z</time>
      </trkpt>
      <trkpt lat="45.30066" lon="4.48895">
        <ele>1172.29</ele>
        <time>2020-09-19T11:31:09.284Z</time>
      </trkpt>
      <trkpt lat="45.30069" lon="4.48893">
        <ele>1173.82</ele>
        <time>2020-09-19T11:31:18.343Z</time>
      </trkpt>
      <trkpt lat="45.30073" lon="4.48891">
        <ele>1174.98</ele>
        <time>2020-09-19T11:31:28.000Z</time>
      </trkpt>
      <trkpt lat="45.30082" lon="4.48896">
        <ele>1176.52</ele>
        <time>2020-09-19T11:31:38.000Z</time>
      </trkpt>
      <trkpt lat="45.301" lon="4.48909">
        <ele>1177.32</ele>
        <time>2020-09-19T11:31:47.440Z</time>
      </trkpt>
      <trkpt lat="45.30114" lon="4.48914">
        <ele>1177.34</ele>
        <time>2020-09-19T11:31:56.598Z</time>
      </trkpt>
      <trkpt lat="45.30125" lon="4.48921">
        <ele>1176.86</ele>
        <time>2020-09-19T11:32:06.000Z</time>
      </trkpt>
      <trkpt lat="45.30134" lon="4.4893">
        <ele>1176.76</ele>
        <time>2020-09-19T11:32:16.000Z</time>
      </trkpt>
      <trkpt lat="45.30144" lon="4.48941">
        <ele>1177.04</ele>
        <time>2020-09-19T11:32:25.368Z</time>
      </trkpt>
      <trkpt lat="45.30155" lon="4.48948">
        <ele>1176.91</ele>
        <time>2020-09-19T11:32:34.386Z</time>
      </trkpt>
      <trkpt lat="45.30162" lon="4.48951">
        <ele>1177.08</ele>
        <time>2020-09-19T11:32:44.000Z</time>
      </trkpt>
      <trkpt lat="45.30168" lon="4.48953">
        <ele>1177.11</ele>
        <time>2020-09-19T11:32:53.564Z</time>
      </trkpt>
      <trkpt lat="45.30172" lon="4.48956">
        <ele>1176.97</ele>
        <time>2020-09-19T11:33:04.000Z</time>
      </trkpt>
      <trkpt lat="45.30179" lon="4.48959">
        <ele>1176.82</ele>
        <time>2020-09-19T11:33:14.000Z</time>
      </trkpt>
      <trkpt lat="45.30186" lon="4.48948">
        <ele>1176.58</ele>
        <time>2020-09-19T11:33:24.000Z</time>
      </trkpt>
      <trkpt lat="45.3019" lon="4.48936">
        <ele>1175.94</ele>
        <time>2020-09-19T11:33:33.480Z</time>
      </trkpt>
      <trkpt lat="45.30194" lon="4.48927">
        <ele>1175.78</ele>
        <time>2020-09-19T11:33:43.000Z</time>
      </trkpt>
      <trkpt lat="45.30202" lon="4.48919">
        <ele>1175.45</ele>
        <time>2020-09-19T11:33:53.000Z</time>
      </trkpt>
      <trkpt lat="45.30206" lon="4.48917">
        <ele>1175.37</ele>
        <time>2020-09-19T11:34:03.000Z</time>
      </trkpt>
      <trkpt lat="45.30212" lon="4.48914">
        <ele>1175.32</ele>
        <time>2020-09-19T11:34:13.000Z</time>
      </trkpt>
      <trkpt lat="45.30209" lon="4.48916">
        <ele>1175.03</ele>
        <time>2020-09-19T11:34:30.000Z</time>
      </trkpt>
      <trkpt lat="45.30208" lon="4.48918">
        <ele>1175.09</ele>
        <time>2020-09-19T11:34:59.999Z</time>
      </trkpt>
      <trkpt lat="45.30207" lon="4.4892">
        <ele>1175.38</ele>
        <time>2020-09-19T11:35:09.999Z</time>
      </trkpt>
      <trkpt lat="45.30205" lon="4.48918">
        <ele>1175.33</ele>
        <time>2020-09-19T11:35:19.999Z</time>
      </trkpt>
      <trkpt lat="45.30208" lon="4.48918">
        <ele>1175.11</ele>
        <time>2020-09-19T11:35:29.999Z</time>
      </trkpt>
      <trkpt lat="45.30213" lon="4.48918">
        <ele>1174.99</ele>
        <time>2020-09-19T11:35:39.999Z</time>
      </trkpt>
      <trkpt lat="45.30213" lon="4.48915">
        <ele>1175.48</ele>
        <time>2020-09-19T11:35:53.999Z</time>
      </trkpt>
      <trkpt lat="45.30213" lon="4.48918">
        <ele>1175.28</ele>
        <time>2020-09-19T11:36:17.999Z</time>
      </trkpt>
      <trkpt lat="45.30215" lon="4.4892">
        <ele>1175.34</ele>
        <time>2020-09-19T11:37:12.999Z</time>
      </trkpt>
      <trkpt lat="45.30216" lon="4.48922">
        <ele>1175.2</ele>
        <time>2020-09-19T11:37:31.999Z</time>
      </trkpt>
      <trkpt lat="45.30215" lon="4.48925">
        <ele>1175.69</ele>
        <time>2020-09-19T11:37:51.741Z</time>
      </trkpt>
      <trkpt lat="45.30212" lon="4.48945">
        <ele>1175.45</ele>
        <time>2020-09-19T11:38:00.923Z</time>
      </trkpt>
      <trkpt lat="45.30213" lon="4.48955">
        <ele>1175.74</ele>
        <time>2020-09-19T11:38:09.999Z</time>
      </trkpt>
      <trkpt lat="45.30211" lon="4.48962">
        <ele>1176.35</ele>
        <time>2020-09-19T11:38:19.999Z</time>
      </trkpt>
      <trkpt lat="45.30213" lon="4.48966">
        <ele>1177.19</ele>
        <time>2020-09-19T11:38:29.999Z</time>
      </trkpt>
      <trkpt lat="45.30215" lon="4.48971">
        <ele>1178.27</ele>
        <time>2020-09-19T11:38:39.999Z</time>
      </trkpt>
      <trkpt lat="45.30216" lon="4.48977">
        <ele>1178.71</ele>
        <time>2020-09-19T11:38:49.525Z</time>
      </trkpt>
      <trkpt lat="45.30218" lon="4.48981">
        <ele>1179.03</ele>
        <time>2020-09-19T11:38:58.999Z</time>
      </trkpt>
      <trkpt lat="45.30222" lon="4.48987">
        <ele>1179.37</ele>
        <time>2020-09-19T11:39:08.121Z</time>
      </trkpt>
      <trkpt lat="45.30222" lon="4.48993">
        <ele>1179.94</ele>
        <time>2020-09-19T11:39:17.404Z</time>
      </trkpt>
      <trkpt lat="45.30224" lon="4.48997">
        <ele>1180.03</ele>
        <time>2020-09-19T11:39:27.999Z</time>
      </trkpt>
      <trkpt lat="45.30228" lon="4.49004">
        <ele>1179.62</ele>
        <time>2020-09-19T11:39:37.999Z</time>
      </trkpt>
      <trkpt lat="45.30227" lon="4.49009">
        <ele>1179.36</ele>
        <time>2020-09-19T11:39:47.681Z</time>
      </trkpt>
      <trkpt lat="45.30228" lon="4.49013">
        <ele>1179.37</ele>
        <time>2020-09-19T11:39:56.805Z</time>
      </trkpt>
      <trkpt lat="45.30229" lon="4.49016">
        <ele>1179.68</ele>
        <time>2020-09-19T11:40:06.325Z</time>
      </trkpt>
      <trkpt lat="45.30235" lon="4.49068">
        <ele>1179.8</ele>
        <time>2020-09-19T11:40:15.999Z</time>
      </trkpt>
      <trkpt lat="45.3024" lon="4.49102">
        <ele>1180.23</ele>
        <time>2020-09-19T11:40:25.763Z</time>
      </trkpt>
      <trkpt lat="45.30246" lon="4.4913">
        <ele>1179.71</ele>
        <time>2020-09-19T11:40:35.999Z</time>
      </trkpt>
      <trkpt lat="45.3025" lon="4.49166">
        <ele>1179.46</ele>
        <time>2020-09-19T11:40:45.999Z</time>
      </trkpt>
      <trkpt lat="45.30256" lon="4.49191">
        <ele>1179.23</ele>
        <time>2020-09-19T11:40:55.999Z</time>
      </trkpt>
      <trkpt lat="45.30261" lon="4.49201">
        <ele>1178.54</ele>
        <time>2020-09-19T11:41:05.999Z</time>
      </trkpt>
      <trkpt lat="45.30266" lon="4.49205">
        <ele>1177.15</ele>
        <time>2020-09-19T11:41:15.588Z</time>
      </trkpt>
      <trkpt lat="45.30268" lon="4.49206">
        <ele>1176.11</ele>
        <time>2020-09-19T11:41:24.999Z</time>
      </trkpt>
      <trkpt lat="45.30271" lon="4.49207">
        <ele>1174.57</ele>
        <time>2020-09-19T11:41:34.999Z</time>
      </trkpt>
      <trkpt lat="45.30282" lon="4.49216">
        <ele>1172.83</ele>
        <time>2020-09-19T11:41:44.701Z</time>
      </trkpt>
      <trkpt lat="45.30302" lon="4.49223">
        <ele>1171.45</ele>
        <time>2020-09-19T11:41:53.999Z</time>
      </trkpt>
      <trkpt lat="45.30324" lon="4.49232">
        <ele>1169.78</ele>
        <time>2020-09-19T11:42:03.999Z</time>
      </trkpt>
      <trkpt lat="45.3034" lon="4.49245">
        <ele>1169.22</ele>
        <time>2020-09-19T11:42:13.304Z</time>
      </trkpt>
      <trkpt lat="45.30353" lon="4.49263">
        <ele>1168.58</ele>
        <time>2020-09-19T11:42:22.999Z</time>
      </trkpt>
      <trkpt lat="45.30367" lon="4.49281">
        <ele>1168.14</ele>
        <time>2020-09-19T11:42:32.999Z</time>
      </trkpt>
      <trkpt lat="45.30381" lon="4.49297">
        <ele>1167.74</ele>
        <time>2020-09-19T11:42:42.999Z</time>
      </trkpt>
      <trkpt lat="45.3039" lon="4.49317">
        <ele>1168.08</ele>
        <time>2020-09-19T11:42:52.260Z</time>
      </trkpt>
      <trkpt lat="45.30382" lon="4.49329">
        <ele>1168.65</ele>
        <time>2020-09-19T11:43:01.400Z</time>
      </trkpt>
      <trkpt lat="45.30367" lon="4.49335">
        <ele>1169.1</ele>
        <time>2020-09-19T11:43:11.999Z</time>
      </trkpt>
      <trkpt lat="45.30352" lon="4.49344">
        <ele>1170</ele>
        <time>2020-09-19T11:43:21.057Z</time>
      </trkpt>
      <trkpt lat="45.30341" lon="4.49352">
        <ele>1170.54</ele>
        <time>2020-09-19T11:43:30.999Z</time>
      </trkpt>
      <trkpt lat="45.30327" lon="4.49364">
        <ele>1171.54</ele>
        <time>2020-09-19T11:43:40.485Z</time>
      </trkpt>
      <trkpt lat="45.30318" lon="4.49374">
        <ele>1172.62</ele>
        <time>2020-09-19T11:43:49.605Z</time>
      </trkpt>
      <trkpt lat="45.30312" lon="4.49385">
        <ele>1173.57</ele>
        <time>2020-09-19T11:43:58.999Z</time>
      </trkpt>
      <trkpt lat="45.30301" lon="4.49389">
        <ele>1174.7</ele>
        <time>2020-09-19T11:44:08.422Z</time>
      </trkpt>
      <trkpt lat="45.30288" lon="4.49393">
        <ele>1175.71</ele>
        <time>2020-09-19T11:44:17.841Z</time>
      </trkpt>
      <trkpt lat="45.30277" lon="4.49398">
        <ele>1176.57</ele>
        <time>2020-09-19T11:44:27.459Z</time>
      </trkpt>
      <trkpt lat="45.30268" lon="4.49399">
        <ele>1177.23</ele>
        <time>2020-09-19T11:44:36.879Z</time>
      </trkpt>
      <trkpt lat="45.3026" lon="4.494">
        <ele>1178</ele>
        <time>2020-09-19T11:44:45.999Z</time>
      </trkpt>
      <trkpt lat="45.30248" lon="4.49398">
        <ele>1178.48</ele>
        <time>2020-09-19T11:44:55.999Z</time>
      </trkpt>
      <trkpt lat="45.30235" lon="4.49394">
        <ele>1178.82</ele>
        <time>2020-09-19T11:45:05.268Z</time>
      </trkpt>
      <trkpt lat="45.30226" lon="4.49394">
        <ele>1179.17</ele>
        <time>2020-09-19T11:45:14.999Z</time>
      </trkpt>
      <trkpt lat="45.30213" lon="4.49387">
        <ele>1179.74</ele>
        <time>2020-09-19T11:45:24.999Z</time>
      </trkpt>
      <trkpt lat="45.30202" lon="4.49388">
        <ele>1179.51</ele>
        <time>2020-09-19T11:45:35.000Z</time>
      </trkpt>
      <trkpt lat="45.30191" lon="4.494">
        <ele>1179.31</ele>
        <time>2020-09-19T11:45:44.683Z</time>
      </trkpt>
      <trkpt lat="45.30179" lon="4.49406">
        <ele>1178.79</ele>
        <time>2020-09-19T11:45:53.801Z</time>
      </trkpt>
      <trkpt lat="45.30169" lon="4.49406">
        <ele>1178.43</ele>
        <time>2020-09-19T11:46:03.000Z</time>
      </trkpt>
      <trkpt lat="45.30156" lon="4.49408">
        <ele>1177.51</ele>
        <time>2020-09-19T11:46:13.000Z</time>
      </trkpt>
      <trkpt lat="45.30146" lon="4.4942">
        <ele>1176.16</ele>
        <time>2020-09-19T11:46:22.641Z</time>
      </trkpt>
      <trkpt lat="45.30139" lon="4.4943">
        <ele>1174.78</ele>
        <time>2020-09-19T11:46:31.701Z</time>
      </trkpt>
      <trkpt lat="45.30128" lon="4.49435">
        <ele>1173.61</ele>
        <time>2020-09-19T11:46:41.139Z</time>
      </trkpt>
      <trkpt lat="45.30115" lon="4.49438">
        <ele>1172.15</ele>
        <time>2020-09-19T11:46:51.000Z</time>
      </trkpt>
      <trkpt lat="45.301" lon="4.49439">
        <ele>1170.86</ele>
        <time>2020-09-19T11:47:00.883Z</time>
      </trkpt>
      <trkpt lat="45.30087" lon="4.49439">
        <ele>1169.73</ele>
        <time>2020-09-19T11:47:09.941Z</time>
      </trkpt>
      <trkpt lat="45.30078" lon="4.49441">
        <ele>1169.66</ele>
        <time>2020-09-19T11:47:19.000Z</time>
      </trkpt>
      <trkpt lat="45.30067" lon="4.49445">
        <ele>1168.62</ele>
        <time>2020-09-19T11:47:29.000Z</time>
      </trkpt>
      <trkpt lat="45.30053" lon="4.49442">
        <ele>1166.75</ele>
        <time>2020-09-19T11:47:38.200Z</time>
      </trkpt>
      <trkpt lat="45.30042" lon="4.49448">
        <ele>1165.21</ele>
        <time>2020-09-19T11:47:48.000Z</time>
      </trkpt>
      <trkpt lat="45.3003" lon="4.49459">
        <ele>1163.99</ele>
        <time>2020-09-19T11:47:59.000Z</time>
      </trkpt>
      <trkpt lat="45.30019" lon="4.49466">
        <ele>1162.41</ele>
        <time>2020-09-19T11:48:08.635Z</time>
      </trkpt>
      <trkpt lat="45.3001" lon="4.49475">
        <ele>1160.84</ele>
        <time>2020-09-19T11:48:17.648Z</time>
      </trkpt>
      <trkpt lat="45.30006" lon="4.4949">
        <ele>1159.84</ele>
        <time>2020-09-19T11:48:28.000Z</time>
      </trkpt>
      <trkpt lat="45.30001" lon="4.49508">
        <ele>1159.3</ele>
        <time>2020-09-19T11:48:37.429Z</time>
      </trkpt>
      <trkpt lat="45.29996" lon="4.4952">
        <ele>1157.52</ele>
        <time>2020-09-19T11:48:47.000Z</time>
      </trkpt>
      <trkpt lat="45.29988" lon="4.49531">
        <ele>1156.09</ele>
        <time>2020-09-19T11:48:58.000Z</time>
      </trkpt>
      <trkpt lat="45.29979" lon="4.49543">
        <ele>1154.51</ele>
        <time>2020-09-19T11:49:07.404Z</time>
      </trkpt>
      <trkpt lat="45.2997" lon="4.4955">
        <ele>1153.27</ele>
        <time>2020-09-19T11:49:17.000Z</time>
      </trkpt>
      <trkpt lat="45.29962" lon="4.4956">
        <ele>1152.04</ele>
        <time>2020-09-19T11:49:27.000Z</time>
      </trkpt>
      <trkpt lat="45.29955" lon="4.49573">
        <ele>1150.45</ele>
        <time>2020-09-19T11:49:36.182Z</time>
      </trkpt>
      <trkpt lat="45.29946" lon="4.49582">
        <ele>1149.34</ele>
        <time>2020-09-19T11:49:45.660Z</time>
      </trkpt>
      <trkpt lat="45.29937" lon="4.49592">
        <ele>1148.41</ele>
        <time>2020-09-19T11:49:54.720Z</time>
      </trkpt>
      <trkpt lat="45.29931" lon="4.49606">
        <ele>1147.84</ele>
        <time>2020-09-19T11:50:03.768Z</time>
      </trkpt>
      <trkpt lat="45.29928" lon="4.49618">
        <ele>1147.6</ele>
        <time>2020-09-19T11:50:13.000Z</time>
      </trkpt>
      <trkpt lat="45.29918" lon="4.49634">
        <ele>1146.82</ele>
        <time>2020-09-19T11:50:22.026Z</time>
      </trkpt>
      <trkpt lat="45.29911" lon="4.49647">
        <ele>1145.7</ele>
        <time>2020-09-19T11:50:32.000Z</time>
      </trkpt>
      <trkpt lat="45.29902" lon="4.49662">
        <ele>1144.87</ele>
        <time>2020-09-19T11:50:43.000Z</time>
      </trkpt>
      <trkpt lat="45.29893" lon="4.49676">
        <ele>1144.03</ele>
        <time>2020-09-19T11:50:53.000Z</time>
      </trkpt>
      <trkpt lat="45.29887" lon="4.49689">
        <ele>1143.73</ele>
        <time>2020-09-19T11:51:02.383Z</time>
      </trkpt>
      <trkpt lat="45.29882" lon="4.49707">
        <ele>1143.33</ele>
        <time>2020-09-19T11:51:11.781Z</time>
      </trkpt>
      <trkpt lat="45.29881" lon="4.49725">
        <ele>1143.04</ele>
        <time>2020-09-19T11:51:21.219Z</time>
      </trkpt>
      <trkpt lat="45.29877" lon="4.49744">
        <ele>1142.41</ele>
        <time>2020-09-19T11:51:30.740Z</time>
      </trkpt>
      <trkpt lat="45.29872" lon="4.49757">
        <ele>1141.98</ele>
        <time>2020-09-19T11:51:41.000Z</time>
      </trkpt>
      <trkpt lat="45.29864" lon="4.49774">
        <ele>1141.47</ele>
        <time>2020-09-19T11:51:50.526Z</time>
      </trkpt>
      <trkpt lat="45.29862" lon="4.49784">
        <ele>1141.16</ele>
        <time>2020-09-19T11:52:00.000Z</time>
      </trkpt>
      <trkpt lat="45.29864" lon="4.498">
        <ele>1140.76</ele>
        <time>2020-09-19T11:52:10.000Z</time>
      </trkpt>
      <trkpt lat="45.29864" lon="4.4982">
        <ele>1139.97</ele>
        <time>2020-09-19T11:52:19.480Z</time>
      </trkpt>
      <trkpt lat="45.29864" lon="4.49834">
        <ele>1139.02</ele>
        <time>2020-09-19T11:52:28.720Z</time>
      </trkpt>
      <trkpt lat="45.29863" lon="4.49844">
        <ele>1138.07</ele>
        <time>2020-09-19T11:52:37.848Z</time>
      </trkpt>
      <trkpt lat="45.29866" lon="4.4985">
        <ele>1137.47</ele>
        <time>2020-09-19T11:52:47.102Z</time>
      </trkpt>
      <trkpt lat="45.29866" lon="4.4986">
        <ele>1136.42</ele>
        <time>2020-09-19T11:52:56.260Z</time>
      </trkpt>
      <trkpt lat="45.29868" lon="4.49877">
        <ele>1135.17</ele>
        <time>2020-09-19T11:53:05.461Z</time>
      </trkpt>
      <trkpt lat="45.29868" lon="4.49895">
        <ele>1133.91</ele>
        <time>2020-09-19T11:53:15.000Z</time>
      </trkpt>
      <trkpt lat="45.29867" lon="4.4991">
        <ele>1132.91</ele>
        <time>2020-09-19T11:53:24.300Z</time>
      </trkpt>
      <trkpt lat="45.29865" lon="4.49921">
        <ele>1131.85</ele>
        <time>2020-09-19T11:53:34.000Z</time>
      </trkpt>
      <trkpt lat="45.29862" lon="4.49948">
        <ele>1131.13</ele>
        <time>2020-09-19T11:53:44.000Z</time>
      </trkpt>
      <trkpt lat="45.2987" lon="4.4997">
        <ele>1130.33</ele>
        <time>2020-09-19T11:53:53.762Z</time>
      </trkpt>
      <trkpt lat="45.29881" lon="4.49977">
        <ele>1130.25</ele>
        <time>2020-09-19T11:54:03.000Z</time>
      </trkpt>
      <trkpt lat="45.29895" lon="4.49981">
        <ele>1129.43</ele>
        <time>2020-09-19T11:54:12.280Z</time>
      </trkpt>
      <trkpt lat="45.29905" lon="4.49983">
        <ele>1128.98</ele>
        <time>2020-09-19T11:54:21.718Z</time>
      </trkpt>
      <trkpt lat="45.29913" lon="4.49989">
        <ele>1128.95</ele>
        <time>2020-09-19T11:54:31.000Z</time>
      </trkpt>
      <trkpt lat="45.29916" lon="4.4999">
        <ele>1128.41</ele>
        <time>2020-09-19T11:54:41.000Z</time>
      </trkpt>
      <trkpt lat="45.29914" lon="4.49986">
        <ele>1128.16</ele>
        <time>2020-09-19T11:54:51.000Z</time>
      </trkpt>
      <trkpt lat="45.29909" lon="4.49978">
        <ele>1128.11</ele>
        <time>2020-09-19T11:55:01.000Z</time>
      </trkpt>
      <trkpt lat="45.29908" lon="4.49976">
        <ele>1128.17</ele>
        <time>2020-09-19T11:55:12.000Z</time>
      </trkpt>
      <trkpt lat="45.29907" lon="4.49974">
        <ele>1127.57</ele>
        <time>2020-09-19T11:56:01.000Z</time>
      </trkpt>
      <trkpt lat="45.29905" lon="4.49975">
        <ele>1127.93</ele>
        <time>2020-09-19T11:56:11.000Z</time>
      </trkpt>
      <trkpt lat="45.29902" lon="4.49984">
        <ele>1127.85</ele>
        <time>2020-09-19T11:56:21.000Z</time>
      </trkpt>
      <trkpt lat="45.29897" lon="4.49996">
        <ele>1127.68</ele>
        <time>2020-09-19T11:56:31.000Z</time>
      </trkpt>
      <trkpt lat="45.29888" lon="4.50002">
        <ele>1127.92</ele>
        <time>2020-09-19T11:56:40.999Z</time>
      </trkpt>
      <trkpt lat="45.29878" lon="4.50007">
        <ele>1127.94</ele>
        <time>2020-09-19T11:56:50.999Z</time>
      </trkpt>
      <trkpt lat="45.2987" lon="4.50015">
        <ele>1127.56</ele>
        <time>2020-09-19T11:57:00.999Z</time>
      </trkpt>
      <trkpt lat="45.29862" lon="4.50026">
        <ele>1127.37</ele>
        <time>2020-09-19T11:57:10.550Z</time>
      </trkpt>
      <trkpt lat="45.29858" lon="4.50039">
        <ele>1128.31</ele>
        <time>2020-09-19T11:57:20.999Z</time>
      </trkpt>
      <trkpt lat="45.29857" lon="4.50059">
        <ele>1127.82</ele>
        <time>2020-09-19T11:57:30.785Z</time>
      </trkpt>
      <trkpt lat="45.29859" lon="4.50072">
        <ele>1127.72</ele>
        <time>2020-09-19T11:57:39.999Z</time>
      </trkpt>
      <trkpt lat="45.2986" lon="4.50091">
        <ele>1127.68</ele>
        <time>2020-09-19T11:57:49.999Z</time>
      </trkpt>
      <trkpt lat="45.29856" lon="4.50108">
        <ele>1127.53</ele>
        <time>2020-09-19T11:57:59.423Z</time>
      </trkpt>
      <trkpt lat="45.29846" lon="4.50111">
        <ele>1127.28</ele>
        <time>2020-09-19T11:58:08.743Z</time>
      </trkpt>
      <trkpt lat="45.29835" lon="4.50106">
        <ele>1126.61</ele>
        <time>2020-09-19T11:58:17.999Z</time>
      </trkpt>
      <trkpt lat="45.29818" lon="4.50112">
        <ele>1126.62</ele>
        <time>2020-09-19T11:58:27.521Z</time>
      </trkpt>
      <trkpt lat="45.29813" lon="4.50129">
        <ele>1125.75</ele>
        <time>2020-09-19T11:58:36.999Z</time>
      </trkpt>
      <trkpt lat="45.29813" lon="4.50152">
        <ele>1124.69</ele>
        <time>2020-09-19T11:58:46.565Z</time>
      </trkpt>
      <trkpt lat="45.29811" lon="4.50172">
        <ele>1123.52</ele>
        <time>2020-09-19T11:58:55.846Z</time>
      </trkpt>
      <trkpt lat="45.29809" lon="4.50186">
        <ele>1121.75</ele>
        <time>2020-09-19T11:59:04.999Z</time>
      </trkpt>
      <trkpt lat="45.29808" lon="4.502">
        <ele>1119.87</ele>
        <time>2020-09-19T11:59:14.182Z</time>
      </trkpt>
      <trkpt lat="45.29807" lon="4.50208">
        <ele>1118.36</ele>
        <time>2020-09-19T11:59:23.202Z</time>
      </trkpt>
      <trkpt lat="45.29801" lon="4.50219">
        <ele>1116.74</ele>
        <time>2020-09-19T11:59:32.760Z</time>
      </trkpt>
      <trkpt lat="45.29791" lon="4.50233">
        <ele>1115.04</ele>
        <time>2020-09-19T11:59:42.221Z</time>
      </trkpt>
      <trkpt lat="45.29781" lon="4.50245">
        <ele>1114.07</ele>
        <time>2020-09-19T11:59:51.721Z</time>
      </trkpt>
      <trkpt lat="45.29772" lon="4.50257">
        <ele>1112.2</ele>
        <time>2020-09-19T12:00:01.284Z</time>
      </trkpt>
      <trkpt lat="45.29767" lon="4.50266">
        <ele>1110.54</ele>
        <time>2020-09-19T12:00:10.999Z</time>
      </trkpt>
      <trkpt lat="45.29757" lon="4.50275">
        <ele>1108.14</ele>
        <time>2020-09-19T12:00:20.999Z</time>
      </trkpt>
      <trkpt lat="45.29749" lon="4.50287">
        <ele>1106.45</ele>
        <time>2020-09-19T12:00:30.478Z</time>
      </trkpt>
      <trkpt lat="45.29745" lon="4.50295">
        <ele>1103.91</ele>
        <time>2020-09-19T12:00:40.999Z</time>
      </trkpt>
      <trkpt lat="45.2974" lon="4.50303">
        <ele>1102.19</ele>
        <time>2020-09-19T12:00:50.999Z</time>
      </trkpt>
      <trkpt lat="45.29731" lon="4.50319">
        <ele>1100.15</ele>
        <time>2020-09-19T12:01:00.999Z</time>
      </trkpt>
      <trkpt lat="45.29722" lon="4.50334">
        <ele>1098.3</ele>
        <time>2020-09-19T12:01:10.999Z</time>
      </trkpt>
      <trkpt lat="45.29714" lon="4.50346">
        <ele>1096.58</ele>
        <time>2020-09-19T12:01:20.999Z</time>
      </trkpt>
      <trkpt lat="45.2971" lon="4.50358">
        <ele>1094.81</ele>
        <time>2020-09-19T12:01:30.467Z</time>
      </trkpt>
      <trkpt lat="45.2971" lon="4.50371">
        <ele>1093.37</ele>
        <time>2020-09-19T12:01:40.999Z</time>
      </trkpt>
      <trkpt lat="45.2971" lon="4.50386">
        <ele>1091.87</ele>
        <time>2020-09-19T12:01:50.484Z</time>
      </trkpt>
      <trkpt lat="45.29708" lon="4.50396">
        <ele>1091.32</ele>
        <time>2020-09-19T12:01:59.999Z</time>
      </trkpt>
      <trkpt lat="45.297" lon="4.50407">
        <ele>1089.29</ele>
        <time>2020-09-19T12:02:09.361Z</time>
      </trkpt>
      <trkpt lat="45.29695" lon="4.50411">
        <ele>1087.6</ele>
        <time>2020-09-19T12:02:18.442Z</time>
      </trkpt>
      <trkpt lat="45.29693" lon="4.50415">
        <ele>1086.26</ele>
        <time>2020-09-19T12:02:28.999Z</time>
      </trkpt>
      <trkpt lat="45.2969" lon="4.50422">
        <ele>1085.53</ele>
        <time>2020-09-19T12:02:38.521Z</time>
      </trkpt>
      <trkpt lat="45.29683" lon="4.50437">
        <ele>1084.58</ele>
        <time>2020-09-19T12:02:48.999Z</time>
      </trkpt>
      <trkpt lat="45.29677" lon="4.50456">
        <ele>1084.03</ele>
        <time>2020-09-19T12:02:58.167Z</time>
      </trkpt>
      <trkpt lat="45.29672" lon="4.50471">
        <ele>1084.11</ele>
        <time>2020-09-19T12:03:07.464Z</time>
      </trkpt>
      <trkpt lat="45.29668" lon="4.5048">
        <ele>1083.72</ele>
        <time>2020-09-19T12:03:16.999Z</time>
      </trkpt>
      <trkpt lat="45.29661" lon="4.50484">
        <ele>1083.48</ele>
        <time>2020-09-19T12:03:27.999Z</time>
      </trkpt>
      <trkpt lat="45.29656" lon="4.50488">
        <ele>1082.18</ele>
        <time>2020-09-19T12:03:37.161Z</time>
      </trkpt>
      <trkpt lat="45.29652" lon="4.50493">
        <ele>1080.44</ele>
        <time>2020-09-19T12:03:46.999Z</time>
      </trkpt>
      <trkpt lat="45.29648" lon="4.50495">
        <ele>1079.5</ele>
        <time>2020-09-19T12:03:56.999Z</time>
      </trkpt>
      <trkpt lat="45.29646" lon="4.50499">
        <ele>1079.29</ele>
        <time>2020-09-19T12:04:06.999Z</time>
      </trkpt>
      <trkpt lat="45.29642" lon="4.5051">
        <ele>1077.45</ele>
        <time>2020-09-19T12:04:16.735Z</time>
      </trkpt>
      <trkpt lat="45.29635" lon="4.50518">
        <ele>1076.42</ele>
        <time>2020-09-19T12:04:25.999Z</time>
      </trkpt>
      <trkpt lat="45.29627" lon="4.50524">
        <ele>1075.02</ele>
        <time>2020-09-19T12:04:35.999Z</time>
      </trkpt>
      <trkpt lat="45.29616" lon="4.50536">
        <ele>1073.01</ele>
        <time>2020-09-19T12:04:45.765Z</time>
      </trkpt>
      <trkpt lat="45.29604" lon="4.50553">
        <ele>1071.52</ele>
        <time>2020-09-19T12:04:55.144Z</time>
      </trkpt>
      <trkpt lat="45.29593" lon="4.50565">
        <ele>1068.93</ele>
        <time>2020-09-19T12:05:04.281Z</time>
      </trkpt>
      <trkpt lat="45.29583" lon="4.50578">
        <ele>1067.36</ele>
        <time>2020-09-19T12:05:13.762Z</time>
      </trkpt>
      <trkpt lat="45.29577" lon="4.50589">
        <ele>1066.19</ele>
        <time>2020-09-19T12:05:22.999Z</time>
      </trkpt>
      <trkpt lat="45.29564" lon="4.50608">
        <ele>1064.46</ele>
        <time>2020-09-19T12:05:32.004Z</time>
      </trkpt>
      <trkpt lat="45.29553" lon="4.50617">
        <ele>1062.71</ele>
        <time>2020-09-19T12:05:41.999Z</time>
      </trkpt>
      <trkpt lat="45.29538" lon="4.50624">
        <ele>1060.76</ele>
        <time>2020-09-19T12:05:51.364Z</time>
      </trkpt>
      <trkpt lat="45.29527" lon="4.50632">
        <ele>1059.37</ele>
        <time>2020-09-19T12:06:00.999Z</time>
      </trkpt>
      <trkpt lat="45.29515" lon="4.50644">
        <ele>1056.76</ele>
        <time>2020-09-19T12:06:10.999Z</time>
      </trkpt>
      <trkpt lat="45.29508" lon="4.50652">
        <ele>1054.7</ele>
        <time>2020-09-19T12:06:20.999Z</time>
      </trkpt>
      <trkpt lat="45.29504" lon="4.50658">
        <ele>1053.01</ele>
        <time>2020-09-19T12:06:30.637Z</time>
      </trkpt>
      <trkpt lat="45.29499" lon="4.50661">
        <ele>1051.2</ele>
        <time>2020-09-19T12:06:40.999Z</time>
      </trkpt>
      <trkpt lat="45.29492" lon="4.50662">
        <ele>1049.04</ele>
        <time>2020-09-19T12:06:50.447Z</time>
      </trkpt>
      <trkpt lat="45.29487" lon="4.50668">
        <ele>1047.48</ele>
        <time>2020-09-19T12:06:59.507Z</time>
      </trkpt>
      <trkpt lat="45.29481" lon="4.50674">
        <ele>1045.87</ele>
        <time>2020-09-19T12:07:08.583Z</time>
      </trkpt>
      <trkpt lat="45.29475" lon="4.50683">
        <ele>1044.45</ele>
        <time>2020-09-19T12:07:17.999Z</time>
      </trkpt>
      <trkpt lat="45.29463" lon="4.50699">
        <ele>1042.49</ele>
        <time>2020-09-19T12:07:27.999Z</time>
      </trkpt>
      <trkpt lat="45.29446" lon="4.50718">
        <ele>1040.42</ele>
        <time>2020-09-19T12:07:37.482Z</time>
      </trkpt>
      <trkpt lat="45.29434" lon="4.50729">
        <ele>1038.67</ele>
        <time>2020-09-19T12:07:47.000Z</time>
      </trkpt>
      <trkpt lat="45.29427" lon="4.50744">
        <ele>1036.95</ele>
        <time>2020-09-19T12:07:56.218Z</time>
      </trkpt>
      <trkpt lat="45.29421" lon="4.50757">
        <ele>1036.27</ele>
        <time>2020-09-19T12:08:06.000Z</time>
      </trkpt>
      <trkpt lat="45.29408" lon="4.50765">
        <ele>1034.89</ele>
        <time>2020-09-19T12:08:15.645Z</time>
      </trkpt>
      <trkpt lat="45.29396" lon="4.50779">
        <ele>1032.99</ele>
        <time>2020-09-19T12:08:25.000Z</time>
      </trkpt>
      <trkpt lat="45.29378" lon="4.50794">
        <ele>1031.03</ele>
        <time>2020-09-19T12:08:34.244Z</time>
      </trkpt>
      <trkpt lat="45.29371" lon="4.50805">
        <ele>1031.13</ele>
        <time>2020-09-19T12:08:43.520Z</time>
      </trkpt>
      <trkpt lat="45.29367" lon="4.50822">
        <ele>1030.77</ele>
        <time>2020-09-19T12:08:52.721Z</time>
      </trkpt>
      <trkpt lat="45.29368" lon="4.50837">
        <ele>1030.49</ele>
        <time>2020-09-19T12:09:02.000Z</time>
      </trkpt>
      <trkpt lat="45.29366" lon="4.50859">
        <ele>1029.69</ele>
        <time>2020-09-19T12:09:11.558Z</time>
      </trkpt>
      <trkpt lat="45.29361" lon="4.50874">
        <ele>1028.51</ele>
        <time>2020-09-19T12:09:21.000Z</time>
      </trkpt>
      <trkpt lat="45.29357" lon="4.50892">
        <ele>1027.31</ele>
        <time>2020-09-19T12:09:30.117Z</time>
      </trkpt>
      <trkpt lat="45.29356" lon="4.50909">
        <ele>1025.97</ele>
        <time>2020-09-19T12:09:39.417Z</time>
      </trkpt>
      <trkpt lat="45.29356" lon="4.50923">
        <ele>1025.7</ele>
        <time>2020-09-19T12:09:49.000Z</time>
      </trkpt>
      <trkpt lat="45.29357" lon="4.50942">
        <ele>1024.29</ele>
        <time>2020-09-19T12:09:59.000Z</time>
      </trkpt>
      <trkpt lat="45.29356" lon="4.50967">
        <ele>1023.41</ele>
        <time>2020-09-19T12:10:09.000Z</time>
      </trkpt>
      <trkpt lat="45.29354" lon="4.50988">
        <ele>1022.55</ele>
        <time>2020-09-19T12:10:19.000Z</time>
      </trkpt>
      <trkpt lat="45.2936" lon="4.51004">
        <ele>1023.96</ele>
        <time>2020-09-19T12:10:28.461Z</time>
      </trkpt>
      <trkpt lat="45.29365" lon="4.51019">
        <ele>1024.57</ele>
        <time>2020-09-19T12:10:39.000Z</time>
      </trkpt>
      <trkpt lat="45.29373" lon="4.5104">
        <ele>1025.01</ele>
        <time>2020-09-19T12:10:48.281Z</time>
      </trkpt>
      <trkpt lat="45.29378" lon="4.51053">
        <ele>1024.63</ele>
        <time>2020-09-19T12:10:57.737Z</time>
      </trkpt>
      <trkpt lat="45.29386" lon="4.51059">
        <ele>1025.43</ele>
        <time>2020-09-19T12:11:07.000Z</time>
      </trkpt>
      <trkpt lat="45.29395" lon="4.51078">
        <ele>1027.65</ele>
        <time>2020-09-19T12:11:16.605Z</time>
      </trkpt>
      <trkpt lat="45.29405" lon="4.51087">
        <ele>1029.04</ele>
        <time>2020-09-19T12:11:26.000Z</time>
      </trkpt>
      <trkpt lat="45.29411" lon="4.51091">
        <ele>1030.84</ele>
        <time>2020-09-19T12:11:36.000Z</time>
      </trkpt>
      <trkpt lat="45.29419" lon="4.51096">
        <ele>1032.66</ele>
        <time>2020-09-19T12:11:45.262Z</time>
      </trkpt>
      <trkpt lat="45.29429" lon="4.51103">
        <ele>1034.59</ele>
        <time>2020-09-19T12:11:54.279Z</time>
      </trkpt>
      <trkpt lat="45.29437" lon="4.51114">
        <ele>1034.06</ele>
        <time>2020-09-19T12:12:03.681Z</time>
      </trkpt>
      <trkpt lat="45.29443" lon="4.51126">
        <ele>1032.68</ele>
        <time>2020-09-19T12:12:13.000Z</time>
      </trkpt>
      <trkpt lat="45.29452" lon="4.51145">
        <ele>1030.89</ele>
        <time>2020-09-19T12:12:22.497Z</time>
      </trkpt>
      <trkpt lat="45.29457" lon="4.51159">
        <ele>1029.42</ele>
        <time>2020-09-19T12:12:33.000Z</time>
      </trkpt>
      <trkpt lat="45.29461" lon="4.51169">
        <ele>1027.8</ele>
        <time>2020-09-19T12:12:43.000Z</time>
      </trkpt>
      <trkpt lat="45.29471" lon="4.51188">
        <ele>1026.06</ele>
        <time>2020-09-19T12:12:52.710Z</time>
      </trkpt>
      <trkpt lat="45.29476" lon="4.51202">
        <ele>1024.64</ele>
        <time>2020-09-19T12:13:02.000Z</time>
      </trkpt>
      <trkpt lat="45.29481" lon="4.5122">
        <ele>1023.27</ele>
        <time>2020-09-19T12:13:11.824Z</time>
      </trkpt>
      <trkpt lat="45.29485" lon="4.51235">
        <ele>1021.9</ele>
        <time>2020-09-19T12:13:23.000Z</time>
      </trkpt>
      <trkpt lat="45.29491" lon="4.51249">
        <ele>1019.71</ele>
        <time>2020-09-19T12:13:32.263Z</time>
      </trkpt>
      <trkpt lat="45.29491" lon="4.51258">
        <ele>1018.05</ele>
        <time>2020-09-19T12:13:41.581Z</time>
      </trkpt>
      <trkpt lat="45.29492" lon="4.5127">
        <ele>1016.45</ele>
        <time>2020-09-19T12:13:51.000Z</time>
      </trkpt>
      <trkpt lat="45.2949" lon="4.51287">
        <ele>1014.65</ele>
        <time>2020-09-19T12:14:00.287Z</time>
      </trkpt>
      <trkpt lat="45.29488" lon="4.51303">
        <ele>1012.96</ele>
        <time>2020-09-19T12:14:09.685Z</time>
      </trkpt>
      <trkpt lat="45.29482" lon="4.51321">
        <ele>1011.04</ele>
        <time>2020-09-19T12:14:19.000Z</time>
      </trkpt>
      <trkpt lat="45.29481" lon="4.51343">
        <ele>1009.14</ele>
        <time>2020-09-19T12:14:28.565Z</time>
      </trkpt>
      <trkpt lat="45.29489" lon="4.51361">
        <ele>1008.83</ele>
        <time>2020-09-19T12:14:38.000Z</time>
      </trkpt>
      <trkpt lat="45.29495" lon="4.5138">
        <ele>1008.19</ele>
        <time>2020-09-19T12:14:47.322Z</time>
      </trkpt>
      <trkpt lat="45.29479" lon="4.51373">
        <ele>1006.77</ele>
        <time>2020-09-19T12:14:58.000Z</time>
      </trkpt>
      <trkpt lat="45.29483" lon="4.51392">
        <ele>1005.62</ele>
        <time>2020-09-19T12:15:07.440Z</time>
      </trkpt>
      <trkpt lat="45.29497" lon="4.51408">
        <ele>1005.39</ele>
        <time>2020-09-19T12:15:18.000Z</time>
      </trkpt>
      <trkpt lat="45.29505" lon="4.51425">
        <ele>1004.49</ele>
        <time>2020-09-19T12:15:27.330Z</time>
      </trkpt>
      <trkpt lat="45.29488" lon="4.51438">
        <ele>1003.71</ele>
        <time>2020-09-19T12:15:36.767Z</time>
      </trkpt>
      <trkpt lat="45.29477" lon="4.51447">
        <ele>1002.45</ele>
        <time>2020-09-19T12:15:46.000Z</time>
      </trkpt>
      <trkpt lat="45.29468" lon="4.51457">
        <ele>1001.96</ele>
        <time>2020-09-19T12:15:55.445Z</time>
      </trkpt>
      <trkpt lat="45.29464" lon="4.51467">
        <ele>1001.37</ele>
        <time>2020-09-19T12:16:04.484Z</time>
      </trkpt>
      <trkpt lat="45.29457" lon="4.51478">
        <ele>1001.54</ele>
        <time>2020-09-19T12:16:13.522Z</time>
      </trkpt>
      <trkpt lat="45.29447" lon="4.51488">
        <ele>1000.88</ele>
        <time>2020-09-19T12:16:23.000Z</time>
      </trkpt>
      <trkpt lat="45.29436" lon="4.51499">
        <ele>1001.06</ele>
        <time>2020-09-19T12:16:33.000Z</time>
      </trkpt>
      <trkpt lat="45.2943" lon="4.51504">
        <ele>1001.71</ele>
        <time>2020-09-19T12:16:42.646Z</time>
      </trkpt>
      <trkpt lat="45.29424" lon="4.51511">
        <ele>1001.65</ele>
        <time>2020-09-19T12:16:51.847Z</time>
      </trkpt>
      <trkpt lat="45.29413" lon="4.51521">
        <ele>1001.17</ele>
        <time>2020-09-19T12:17:01.000Z</time>
      </trkpt>
      <trkpt lat="45.29407" lon="4.51526">
        <ele>1000.69</ele>
        <time>2020-09-19T12:17:10.622Z</time>
      </trkpt>
      <trkpt lat="45.294" lon="4.51533">
        <ele>1000.8</ele>
        <time>2020-09-19T12:17:19.702Z</time>
      </trkpt>
      <trkpt lat="45.29388" lon="4.51545">
        <ele>1001.17</ele>
        <time>2020-09-19T12:17:29.000Z</time>
      </trkpt>
      <trkpt lat="45.29375" lon="4.51566">
        <ele>1001.47</ele>
        <time>2020-09-19T12:17:39.000Z</time>
      </trkpt>
      <trkpt lat="45.29367" lon="4.51574">
        <ele>1001.32</ele>
        <time>2020-09-19T12:17:48.298Z</time>
      </trkpt>
      <trkpt lat="45.29359" lon="4.5158">
        <ele>999.6</ele>
        <time>2020-09-19T12:17:57.337Z</time>
      </trkpt>
      <trkpt lat="45.29355" lon="4.51587">
        <ele>997.88</ele>
        <time>2020-09-19T12:18:06.806Z</time>
      </trkpt>
      <trkpt lat="45.29353" lon="4.51594">
        <ele>996.04</ele>
        <time>2020-09-19T12:18:16.168Z</time>
      </trkpt>
      <trkpt lat="45.29354" lon="4.51604">
        <ele>995.37</ele>
        <time>2020-09-19T12:18:25.426Z</time>
      </trkpt>
      <trkpt lat="45.29355" lon="4.51614">
        <ele>993.55</ele>
        <time>2020-09-19T12:18:34.999Z</time>
      </trkpt>
      <trkpt lat="45.29354" lon="4.51626">
        <ele>991.17</ele>
        <time>2020-09-19T12:18:44.999Z</time>
      </trkpt>
      <trkpt lat="45.29355" lon="4.51639">
        <ele>989.57</ele>
        <time>2020-09-19T12:18:54.999Z</time>
      </trkpt>
      <trkpt lat="45.29354" lon="4.51648">
        <ele>987.29</ele>
        <time>2020-09-19T12:19:04.735Z</time>
      </trkpt>
      <trkpt lat="45.29349" lon="4.51646">
        <ele>985.24</ele>
        <time>2020-09-19T12:19:13.825Z</time>
      </trkpt>
      <trkpt lat="45.29341" lon="4.51642">
        <ele>983.27</ele>
        <time>2020-09-19T12:19:23.999Z</time>
      </trkpt>
      <trkpt lat="45.29332" lon="4.51642">
        <ele>981.87</ele>
        <time>2020-09-19T12:19:33.163Z</time>
      </trkpt>
      <trkpt lat="45.29323" lon="4.51652">
        <ele>980.41</ele>
        <time>2020-09-19T12:19:42.725Z</time>
      </trkpt>
      <trkpt lat="45.29315" lon="4.51664">
        <ele>978.52</ele>
        <time>2020-09-19T12:19:51.999Z</time>
      </trkpt>
      <trkpt lat="45.29306" lon="4.51669">
        <ele>976.33</ele>
        <time>2020-09-19T12:20:01.701Z</time>
      </trkpt>
      <trkpt lat="45.293" lon="4.51671">
        <ele>974.27</ele>
        <time>2020-09-19T12:20:11.218Z</time>
      </trkpt>
      <trkpt lat="45.2929" lon="4.51667">
        <ele>973.1</ele>
        <time>2020-09-19T12:20:21.999Z</time>
      </trkpt>
      <trkpt lat="45.29266" lon="4.51658">
        <ele>971.96</ele>
        <time>2020-09-19T12:20:31.427Z</time>
      </trkpt>
      <trkpt lat="45.29244" lon="4.51653">
        <ele>970.8</ele>
        <time>2020-09-19T12:20:40.446Z</time>
      </trkpt>
      <trkpt lat="45.29232" lon="4.51651">
        <ele>968.92</ele>
        <time>2020-09-19T12:20:49.873Z</time>
      </trkpt>
      <trkpt lat="45.29222" lon="4.51647">
        <ele>967.38</ele>
        <time>2020-09-19T12:20:59.999Z</time>
      </trkpt>
      <trkpt lat="45.2921" lon="4.51641">
        <ele>965.96</ele>
        <time>2020-09-19T12:21:09.999Z</time>
      </trkpt>
      <trkpt lat="45.29201" lon="4.5164">
        <ele>964.71</ele>
        <time>2020-09-19T12:21:19.999Z</time>
      </trkpt>
      <trkpt lat="45.29194" lon="4.51637">
        <ele>963.4</ele>
        <time>2020-09-19T12:21:29.443Z</time>
      </trkpt>
      <trkpt lat="45.2919" lon="4.5163">
        <ele>962.11</ele>
        <time>2020-09-19T12:21:38.999Z</time>
      </trkpt>
      <trkpt lat="45.29174" lon="4.51624">
        <ele>960.96</ele>
        <time>2020-09-19T12:21:48.324Z</time>
      </trkpt>
      <trkpt lat="45.29166" lon="4.51622">
        <ele>959.29</ele>
        <time>2020-09-19T12:21:57.999Z</time>
      </trkpt>
      <trkpt lat="45.29163" lon="4.51631">
        <ele>957.25</ele>
        <time>2020-09-19T12:22:07.280Z</time>
      </trkpt>
      <trkpt lat="45.29165" lon="4.51649">
        <ele>955.24</ele>
        <time>2020-09-19T12:22:17.999Z</time>
      </trkpt>
      <trkpt lat="45.29166" lon="4.51672">
        <ele>953.48</ele>
        <time>2020-09-19T12:22:27.999Z</time>
      </trkpt>
      <trkpt lat="45.29164" lon="4.51689">
        <ele>951.9</ele>
        <time>2020-09-19T12:22:37.999Z</time>
      </trkpt>
      <trkpt lat="45.29167" lon="4.51706">
        <ele>949.65</ele>
        <time>2020-09-19T12:22:47.584Z</time>
      </trkpt>
      <trkpt lat="45.29172" lon="4.51726">
        <ele>947.4</ele>
        <time>2020-09-19T12:22:57.999Z</time>
      </trkpt>
      <trkpt lat="45.29176" lon="4.51746">
        <ele>945.25</ele>
        <time>2020-09-19T12:23:07.999Z</time>
      </trkpt>
      <trkpt lat="45.29178" lon="4.51765">
        <ele>942.88</ele>
        <time>2020-09-19T12:23:17.580Z</time>
      </trkpt>
      <trkpt lat="45.29178" lon="4.51775">
        <ele>941.89</ele>
        <time>2020-09-19T12:23:27.999Z</time>
      </trkpt>
      <trkpt lat="45.29181" lon="4.51776">
        <ele>941.45</ele>
        <time>2020-09-19T12:23:37.999Z</time>
      </trkpt>
      <trkpt lat="45.29189" lon="4.51777">
        <ele>941.53</ele>
        <time>2020-09-19T12:23:47.999Z</time>
      </trkpt>
      <trkpt lat="45.29192" lon="4.51779">
        <ele>941.62</ele>
        <time>2020-09-19T12:23:58.999Z</time>
      </trkpt>
      <trkpt lat="45.29198" lon="4.51784">
        <ele>941.12</ele>
        <time>2020-09-19T12:24:08.425Z</time>
      </trkpt>
      <trkpt lat="45.29205" lon="4.51792">
        <ele>941.05</ele>
        <time>2020-09-19T12:24:17.883Z</time>
      </trkpt>
      <trkpt lat="45.29211" lon="4.518">
        <ele>940.78</ele>
        <time>2020-09-19T12:24:26.999Z</time>
      </trkpt>
      <trkpt lat="45.29216" lon="4.51815">
        <ele>940.64</ele>
        <time>2020-09-19T12:24:36.343Z</time>
      </trkpt>
      <trkpt lat="45.29222" lon="4.51828">
        <ele>938.48</ele>
        <time>2020-09-19T12:24:45.860Z</time>
      </trkpt>
      <trkpt lat="45.29229" lon="4.51837">
        <ele>936.74</ele>
        <time>2020-09-19T12:24:54.999Z</time>
      </trkpt>
      <trkpt lat="45.29238" lon="4.5185">
        <ele>935.43</ele>
        <time>2020-09-19T12:25:04.525Z</time>
      </trkpt>
      <trkpt lat="45.29246" lon="4.51863">
        <ele>934.35</ele>
        <time>2020-09-19T12:25:13.885Z</time>
      </trkpt>
      <trkpt lat="45.29256" lon="4.51875">
        <ele>933.05</ele>
        <time>2020-09-19T12:25:23.323Z</time>
      </trkpt>
      <trkpt lat="45.29265" lon="4.51889">
        <ele>931.35</ele>
        <time>2020-09-19T12:25:32.563Z</time>
      </trkpt>
      <trkpt lat="45.29272" lon="4.51903">
        <ele>929.02</ele>
        <time>2020-09-19T12:25:41.644Z</time>
      </trkpt>
      <trkpt lat="45.29275" lon="4.51918">
        <ele>926.35</ele>
        <time>2020-09-19T12:25:51.501Z</time>
      </trkpt>
      <trkpt lat="45.29279" lon="4.51934">
        <ele>924.24</ele>
        <time>2020-09-19T12:26:01.440Z</time>
      </trkpt>
      <trkpt lat="45.29284" lon="4.51948">
        <ele>922.48</ele>
        <time>2020-09-19T12:26:10.999Z</time>
      </trkpt>
      <trkpt lat="45.29289" lon="4.51965">
        <ele>921.09</ele>
        <time>2020-09-19T12:26:20.999Z</time>
      </trkpt>
      <trkpt lat="45.293" lon="4.51979">
        <ele>919.33</ele>
        <time>2020-09-19T12:26:30.658Z</time>
      </trkpt>
      <trkpt lat="45.29307" lon="4.5199">
        <ele>917.57</ele>
        <time>2020-09-19T12:26:39.999Z</time>
      </trkpt>
      <trkpt lat="45.29316" lon="4.52005">
        <ele>914.87</ele>
        <time>2020-09-19T12:26:49.999Z</time>
      </trkpt>
      <trkpt lat="45.29324" lon="4.52026">
        <ele>911.86</ele>
        <time>2020-09-19T12:26:59.688Z</time>
      </trkpt>
      <trkpt lat="45.2933" lon="4.52042">
        <ele>909.43</ele>
        <time>2020-09-19T12:27:08.999Z</time>
      </trkpt>
      <trkpt lat="45.29337" lon="4.52059">
        <ele>906.53</ele>
        <time>2020-09-19T12:27:18.999Z</time>
      </trkpt>
      <trkpt lat="45.29344" lon="4.52075">
        <ele>904.62</ele>
        <time>2020-09-19T12:27:28.704Z</time>
      </trkpt>
      <trkpt lat="45.29349" lon="4.52084">
        <ele>902.42</ele>
        <time>2020-09-19T12:27:37.999Z</time>
      </trkpt>
      <trkpt lat="45.29359" lon="4.52095">
        <ele>899.64</ele>
        <time>2020-09-19T12:27:48.999Z</time>
      </trkpt>
      <trkpt lat="45.2937" lon="4.52104">
        <ele>896.79</ele>
        <time>2020-09-19T12:27:58.999Z</time>
      </trkpt>
      <trkpt lat="45.29386" lon="4.52118">
        <ele>894.45</ele>
        <time>2020-09-19T12:28:08.661Z</time>
      </trkpt>
      <trkpt lat="45.29395" lon="4.52129">
        <ele>892.96</ele>
        <time>2020-09-19T12:28:17.999Z</time>
      </trkpt>
      <trkpt lat="45.29404" lon="4.52143">
        <ele>892</ele>
        <time>2020-09-19T12:28:27.286Z</time>
      </trkpt>
      <trkpt lat="45.29413" lon="4.52156">
        <ele>891.06</ele>
        <time>2020-09-19T12:28:36.999Z</time>
      </trkpt>
      <trkpt lat="45.29421" lon="4.52173">
        <ele>890.22</ele>
        <time>2020-09-19T12:28:46.102Z</time>
      </trkpt>
      <trkpt lat="45.29427" lon="4.52188">
        <ele>889.26</ele>
        <time>2020-09-19T12:28:55.999Z</time>
      </trkpt>
      <trkpt lat="45.29435" lon="4.52201">
        <ele>888.53</ele>
        <time>2020-09-19T12:29:05.300Z</time>
      </trkpt>
      <trkpt lat="45.29444" lon="4.5221">
        <ele>888.43</ele>
        <time>2020-09-19T12:29:14.999Z</time>
      </trkpt>
      <trkpt lat="45.29452" lon="4.52226">
        <ele>888.33</ele>
        <time>2020-09-19T12:29:24.999Z</time>
      </trkpt>
      <trkpt lat="45.29457" lon="4.52248">
        <ele>888.25</ele>
        <time>2020-09-19T12:29:34.999Z</time>
      </trkpt>
      <trkpt lat="45.29464" lon="4.52266">
        <ele>887.82</ele>
        <time>2020-09-19T12:29:44.000Z</time>
      </trkpt>
      <trkpt lat="45.29473" lon="4.52285">
        <ele>886.12</ele>
        <time>2020-09-19T12:29:53.426Z</time>
      </trkpt>
      <trkpt lat="45.2948" lon="4.52297">
        <ele>885.09</ele>
        <time>2020-09-19T12:30:03.000Z</time>
      </trkpt>
      <trkpt lat="45.29484" lon="4.52313">
        <ele>884.36</ele>
        <time>2020-09-19T12:30:13.000Z</time>
      </trkpt>
      <trkpt lat="45.29489" lon="4.52328">
        <ele>883.54</ele>
        <time>2020-09-19T12:30:22.302Z</time>
      </trkpt>
      <trkpt lat="45.29493" lon="4.52346">
        <ele>883.1</ele>
        <time>2020-09-19T12:30:32.000Z</time>
      </trkpt>
      <trkpt lat="45.29495" lon="4.52367">
        <ele>883.08</ele>
        <time>2020-09-19T12:30:42.000Z</time>
      </trkpt>
      <trkpt lat="45.29497" lon="4.52384">
        <ele>883.32</ele>
        <time>2020-09-19T12:30:51.742Z</time>
      </trkpt>
      <trkpt lat="45.29497" lon="4.52401">
        <ele>883.35</ele>
        <time>2020-09-19T12:31:01.177Z</time>
      </trkpt>
      <trkpt lat="45.29498" lon="4.52415">
        <ele>882.74</ele>
        <time>2020-09-19T12:31:12.000Z</time>
      </trkpt>
      <trkpt lat="45.29501" lon="4.52431">
        <ele>882.79</ele>
        <time>2020-09-19T12:31:22.000Z</time>
      </trkpt>
      <trkpt lat="45.29501" lon="4.52448">
        <ele>883.09</ele>
        <time>2020-09-19T12:31:32.000Z</time>
      </trkpt>
      <trkpt lat="45.29504" lon="4.52472">
        <ele>883.72</ele>
        <time>2020-09-19T12:31:41.264Z</time>
      </trkpt>
      <trkpt lat="45.29505" lon="4.52488">
        <ele>884.43</ele>
        <time>2020-09-19T12:31:50.281Z</time>
      </trkpt>
      <trkpt lat="45.29512" lon="4.52501">
        <ele>884.78</ele>
        <time>2020-09-19T12:31:59.461Z</time>
      </trkpt>
      <trkpt lat="45.29524" lon="4.52504">
        <ele>885.72</ele>
        <time>2020-09-19T12:32:08.481Z</time>
      </trkpt>
      <trkpt lat="45.29536" lon="4.52492">
        <ele>885.83</ele>
        <time>2020-09-19T12:32:17.659Z</time>
      </trkpt>
      <trkpt lat="45.29545" lon="4.52484">
        <ele>885.81</ele>
        <time>2020-09-19T12:32:26.678Z</time>
      </trkpt>
      <trkpt lat="45.29557" lon="4.52486">
        <ele>885.24</ele>
        <time>2020-09-19T12:32:36.000Z</time>
      </trkpt>
      <trkpt lat="45.29571" lon="4.5249">
        <ele>884.56</ele>
        <time>2020-09-19T12:32:46.000Z</time>
      </trkpt>
      <trkpt lat="45.29584" lon="4.525">
        <ele>884.08</ele>
        <time>2020-09-19T12:32:55.208Z</time>
      </trkpt>
      <trkpt lat="45.29594" lon="4.52509">
        <ele>882.98</ele>
        <time>2020-09-19T12:33:05.000Z</time>
      </trkpt>
      <trkpt lat="45.29608" lon="4.52513">
        <ele>881.55</ele>
        <time>2020-09-19T12:33:14.646Z</time>
      </trkpt>
      <trkpt lat="45.29618" lon="4.52517">
        <ele>880.88</ele>
        <time>2020-09-19T12:33:24.000Z</time>
      </trkpt>
      <trkpt lat="45.29629" lon="4.52524">
        <ele>879.17</ele>
        <time>2020-09-19T12:33:34.000Z</time>
      </trkpt>
      <trkpt lat="45.29632" lon="4.5254">
        <ele>878.14</ele>
        <time>2020-09-19T12:33:43.276Z</time>
      </trkpt>
      <trkpt lat="45.29625" lon="4.52554">
        <ele>877.57</ele>
        <time>2020-09-19T12:33:53.000Z</time>
      </trkpt>
      <trkpt lat="45.29612" lon="4.52571">
        <ele>876.79</ele>
        <time>2020-09-19T12:34:02.405Z</time>
      </trkpt>
      <trkpt lat="45.29603" lon="4.52585">
        <ele>875.69</ele>
        <time>2020-09-19T12:34:11.683Z</time>
      </trkpt>
      <trkpt lat="45.29596" lon="4.52595">
        <ele>874.71</ele>
        <time>2020-09-19T12:34:21.000Z</time>
      </trkpt>
      <trkpt lat="45.29587" lon="4.5261">
        <ele>874.14</ele>
        <time>2020-09-19T12:34:30.201Z</time>
      </trkpt>
      <trkpt lat="45.29579" lon="4.52624">
        <ele>874.16</ele>
        <time>2020-09-19T12:34:40.000Z</time>
      </trkpt>
      <trkpt lat="45.29568" lon="4.52639">
        <ele>873.26</ele>
        <time>2020-09-19T12:34:49.240Z</time>
      </trkpt>
      <trkpt lat="45.2956" lon="4.52651">
        <ele>872.38</ele>
        <time>2020-09-19T12:34:58.460Z</time>
      </trkpt>
      <trkpt lat="45.29553" lon="4.52664">
        <ele>871.3</ele>
        <time>2020-09-19T12:35:07.696Z</time>
      </trkpt>
      <trkpt lat="45.29548" lon="4.52678">
        <ele>870.73</ele>
        <time>2020-09-19T12:35:17.000Z</time>
      </trkpt>
      <trkpt lat="45.29545" lon="4.52698">
        <ele>869.26</ele>
        <time>2020-09-19T12:35:26.389Z</time>
      </trkpt>
      <trkpt lat="45.29542" lon="4.52713">
        <ele>868.53</ele>
        <time>2020-09-19T12:35:37.000Z</time>
      </trkpt>
      <trkpt lat="45.29537" lon="4.52734">
        <ele>867.94</ele>
        <time>2020-09-19T12:35:46.585Z</time>
      </trkpt>
      <trkpt lat="45.29528" lon="4.52751">
        <ele>866.73</ele>
        <time>2020-09-19T12:35:57.000Z</time>
      </trkpt>
      <trkpt lat="45.29516" lon="4.52762">
        <ele>865.73</ele>
        <time>2020-09-19T12:36:06.483Z</time>
      </trkpt>
      <trkpt lat="45.29507" lon="4.52774">
        <ele>865.21</ele>
        <time>2020-09-19T12:36:15.939Z</time>
      </trkpt>
      <trkpt lat="45.29502" lon="4.52785">
        <ele>864.68</ele>
        <time>2020-09-19T12:36:25.000Z</time>
      </trkpt>
      <trkpt lat="45.29498" lon="4.52805">
        <ele>863.72</ele>
        <time>2020-09-19T12:36:34.639Z</time>
      </trkpt>
      <trkpt lat="45.295" lon="4.52813">
        <ele>863.38</ele>
        <time>2020-09-19T12:36:44.000Z</time>
      </trkpt>
      <trkpt lat="45.29502" lon="4.52819">
        <ele>863.27</ele>
        <time>2020-09-19T12:36:53.824Z</time>
      </trkpt>
      <trkpt lat="45.29496" lon="4.5284">
        <ele>862.41</ele>
        <time>2020-09-19T12:37:03.264Z</time>
      </trkpt>
      <trkpt lat="45.29487" lon="4.52857">
        <ele>862.1</ele>
        <time>2020-09-19T12:37:12.705Z</time>
      </trkpt>
      <trkpt lat="45.29477" lon="4.52872">
        <ele>861.24</ele>
        <time>2020-09-19T12:37:22.727Z</time>
      </trkpt>
      <trkpt lat="45.29467" lon="4.52887">
        <ele>860.41</ele>
        <time>2020-09-19T12:37:33.000Z</time>
      </trkpt>
      <trkpt lat="45.29454" lon="4.52898">
        <ele>859.53</ele>
        <time>2020-09-19T12:37:42.341Z</time>
      </trkpt>
      <trkpt lat="45.29446" lon="4.52912">
        <ele>858.66</ele>
        <time>2020-09-19T12:37:52.000Z</time>
      </trkpt>
      <trkpt lat="45.29439" lon="4.5293">
        <ele>857.63</ele>
        <time>2020-09-19T12:38:01.196Z</time>
      </trkpt>
      <trkpt lat="45.2943" lon="4.52951">
        <ele>856.9</ele>
        <time>2020-09-19T12:38:11.000Z</time>
      </trkpt>
      <trkpt lat="45.29422" lon="4.52966">
        <ele>856.01</ele>
        <time>2020-09-19T12:38:20.189Z</time>
      </trkpt>
      <trkpt lat="45.29419" lon="4.52983">
        <ele>855.64</ele>
        <time>2020-09-19T12:38:30.000Z</time>
      </trkpt>
      <trkpt lat="45.29419" lon="4.5301">
        <ele>854.59</ele>
        <time>2020-09-19T12:38:39.826Z</time>
      </trkpt>
      <trkpt lat="45.29422" lon="4.53027">
        <ele>853.7</ele>
        <time>2020-09-19T12:38:49.000Z</time>
      </trkpt>
      <trkpt lat="45.2943" lon="4.53046">
        <ele>852.6</ele>
        <time>2020-09-19T12:38:58.083Z</time>
      </trkpt>
      <trkpt lat="45.29444" lon="4.53057">
        <ele>851.44</ele>
        <time>2020-09-19T12:39:07.269Z</time>
      </trkpt>
      <trkpt lat="45.29456" lon="4.53063">
        <ele>851.06</ele>
        <time>2020-09-19T12:39:17.000Z</time>
      </trkpt>
      <trkpt lat="45.29471" lon="4.53065">
        <ele>850.02</ele>
        <time>2020-09-19T12:39:27.000Z</time>
      </trkpt>
      <trkpt lat="45.29489" lon="4.53068">
        <ele>848.82</ele>
        <time>2020-09-19T12:39:36.638Z</time>
      </trkpt>
      <trkpt lat="45.29503" lon="4.5307">
        <ele>848.13</ele>
        <time>2020-09-19T12:39:46.000Z</time>
      </trkpt>
      <trkpt lat="45.29517" lon="4.53075">
        <ele>847.17</ele>
        <time>2020-09-19T12:39:56.000Z</time>
      </trkpt>
      <trkpt lat="45.29532" lon="4.53074">
        <ele>846.4</ele>
        <time>2020-09-19T12:40:06.000Z</time>
      </trkpt>
      <trkpt lat="45.29548" lon="4.5307">
        <ele>845.87</ele>
        <time>2020-09-19T12:40:16.000Z</time>
      </trkpt>
      <trkpt lat="45.29564" lon="4.5306">
        <ele>844.39</ele>
        <time>2020-09-19T12:40:25.362Z</time>
      </trkpt>
      <trkpt lat="45.29575" lon="4.5305">
        <ele>843.33</ele>
        <time>2020-09-19T12:40:35.000Z</time>
      </trkpt>
      <trkpt lat="45.29591" lon="4.53038">
        <ele>843.02</ele>
        <time>2020-09-19T12:40:44.579Z</time>
      </trkpt>
      <trkpt lat="45.29599" lon="4.53026">
        <ele>842.01</ele>
        <time>2020-09-19T12:40:53.999Z</time>
      </trkpt>
      <trkpt lat="45.29609" lon="4.53013">
        <ele>840.65</ele>
        <time>2020-09-19T12:41:03.999Z</time>
      </trkpt>
      <trkpt lat="45.29619" lon="4.52997">
        <ele>839.48</ele>
        <time>2020-09-19T12:41:13.999Z</time>
      </trkpt>
      <trkpt lat="45.29629" lon="4.52982">
        <ele>838.29</ele>
        <time>2020-09-19T12:41:23.999Z</time>
      </trkpt>
      <trkpt lat="45.29641" lon="4.52967">
        <ele>837.67</ele>
        <time>2020-09-19T12:41:33.705Z</time>
      </trkpt>
      <trkpt lat="45.29649" lon="4.52953">
        <ele>837.04</ele>
        <time>2020-09-19T12:41:42.727Z</time>
      </trkpt>
      <trkpt lat="45.29656" lon="4.52943">
        <ele>836.3</ele>
        <time>2020-09-19T12:41:51.999Z</time>
      </trkpt>
      <trkpt lat="45.29667" lon="4.52929">
        <ele>835.92</ele>
        <time>2020-09-19T12:42:01.999Z</time>
      </trkpt>
      <trkpt lat="45.29679" lon="4.52915">
        <ele>835.09</ele>
        <time>2020-09-19T12:42:11.999Z</time>
      </trkpt>
      <trkpt lat="45.29691" lon="4.52901">
        <ele>834.27</ele>
        <time>2020-09-19T12:42:21.999Z</time>
      </trkpt>
      <trkpt lat="45.29703" lon="4.52885">
        <ele>832.81</ele>
        <time>2020-09-19T12:42:31.999Z</time>
      </trkpt>
      <trkpt lat="45.2971" lon="4.52869">
        <ele>832.13</ele>
        <time>2020-09-19T12:42:41.999Z</time>
      </trkpt>
      <trkpt lat="45.29717" lon="4.52848">
        <ele>830.9</ele>
        <time>2020-09-19T12:42:51.305Z</time>
      </trkpt>
      <trkpt lat="45.29723" lon="4.52832">
        <ele>831.22</ele>
        <time>2020-09-19T12:43:00.999Z</time>
      </trkpt>
      <trkpt lat="45.2973" lon="4.52815">
        <ele>830.23</ele>
        <time>2020-09-19T12:43:10.999Z</time>
      </trkpt>
      <trkpt lat="45.29739" lon="4.52796">
        <ele>829.06</ele>
        <time>2020-09-19T12:43:20.462Z</time>
      </trkpt>
      <trkpt lat="45.29747" lon="4.5278">
        <ele>828.16</ele>
        <time>2020-09-19T12:43:29.999Z</time>
      </trkpt>
      <trkpt lat="45.29756" lon="4.52761">
        <ele>827.02</ele>
        <time>2020-09-19T12:43:39.221Z</time>
      </trkpt>
      <trkpt lat="45.29764" lon="4.52743">
        <ele>826.65</ele>
        <time>2020-09-19T12:43:48.818Z</time>
      </trkpt>
      <trkpt lat="45.2977" lon="4.52727">
        <ele>825.78</ele>
        <time>2020-09-19T12:43:58.999Z</time>
      </trkpt>
      <trkpt lat="45.29778" lon="4.52709">
        <ele>823.51</ele>
        <time>2020-09-19T12:44:08.338Z</time>
      </trkpt>
      <trkpt lat="45.29786" lon="4.52698">
        <ele>823.35</ele>
        <time>2020-09-19T12:44:17.999Z</time>
      </trkpt>
      <trkpt lat="45.29798" lon="4.52689">
        <ele>822.37</ele>
        <time>2020-09-19T12:44:27.999Z</time>
      </trkpt>
      <trkpt lat="45.29812" lon="4.52685">
        <ele>821.08</ele>
        <time>2020-09-19T12:44:37.999Z</time>
      </trkpt>
      <trkpt lat="45.29824" lon="4.52684">
        <ele>820.59</ele>
        <time>2020-09-19T12:44:47.999Z</time>
      </trkpt>
      <trkpt lat="45.29837" lon="4.52685">
        <ele>819.9</ele>
        <time>2020-09-19T12:44:57.005Z</time>
      </trkpt>
      <trkpt lat="45.29849" lon="4.52682">
        <ele>818.5</ele>
        <time>2020-09-19T12:45:06.999Z</time>
      </trkpt>
      <trkpt lat="45.29863" lon="4.52674">
        <ele>817.87</ele>
        <time>2020-09-19T12:45:16.999Z</time>
      </trkpt>
      <trkpt lat="45.29877" lon="4.52673">
        <ele>816.93</ele>
        <time>2020-09-19T12:45:26.021Z</time>
      </trkpt>
      <trkpt lat="45.2989" lon="4.52677">
        <ele>816.06</ele>
        <time>2020-09-19T12:45:35.361Z</time>
      </trkpt>
      <trkpt lat="45.29904" lon="4.52682">
        <ele>814.96</ele>
        <time>2020-09-19T12:45:45.999Z</time>
      </trkpt>
      <trkpt lat="45.29925" lon="4.52678">
        <ele>814.26</ele>
        <time>2020-09-19T12:45:55.999Z</time>
      </trkpt>
      <trkpt lat="45.29942" lon="4.5268">
        <ele>812.92</ele>
        <time>2020-09-19T12:46:05.303Z</time>
      </trkpt>
      <trkpt lat="45.29955" lon="4.52681">
        <ele>812.47</ele>
        <time>2020-09-19T12:46:14.999Z</time>
      </trkpt>
      <trkpt lat="45.29969" lon="4.5268">
        <ele>811.57</ele>
        <time>2020-09-19T12:46:24.241Z</time>
      </trkpt>
      <trkpt lat="45.29978" lon="4.52683">
        <ele>810.43</ele>
        <time>2020-09-19T12:46:33.999Z</time>
      </trkpt>
      <trkpt lat="45.29983" lon="4.52688">
        <ele>810.03</ele>
        <time>2020-09-19T12:46:43.999Z</time>
      </trkpt>
      <trkpt lat="45.29983" lon="4.52685">
        <ele>810.95</ele>
        <time>2020-09-19T12:47:08.999Z</time>
      </trkpt>
      <trkpt lat="45.29984" lon="4.52687">
        <ele>810.74</ele>
        <time>2020-09-19T12:47:22.999Z</time>
      </trkpt>
      <trkpt lat="45.29983" lon="4.52684">
        <ele>811.02</ele>
        <time>2020-09-19T12:47:32.999Z</time>
      </trkpt>
      <trkpt lat="45.2998" lon="4.52682">
        <ele>810.98</ele>
        <time>2020-09-19T12:47:42.999Z</time>
      </trkpt>
      <trkpt lat="45.29981" lon="4.52684">
        <ele>810.22</ele>
        <time>2020-09-19T12:47:52.999Z</time>
      </trkpt>
      <trkpt lat="45.29997" lon="4.52698">
        <ele>810.23</ele>
        <time>2020-09-19T12:48:02.999Z</time>
      </trkpt>
      <trkpt lat="45.30016" lon="4.52709">
        <ele>809.27</ele>
        <time>2020-09-19T12:48:12.482Z</time>
      </trkpt>
      <trkpt lat="45.30029" lon="4.52714">
        <ele>808.72</ele>
        <time>2020-09-19T12:48:21.642Z</time>
      </trkpt>
      <trkpt lat="45.30043" lon="4.52718">
        <ele>807.45</ele>
        <time>2020-09-19T12:48:31.999Z</time>
      </trkpt>
      <trkpt lat="45.30046" lon="4.52742">
        <ele>805.12</ele>
        <time>2020-09-19T12:48:41.758Z</time>
      </trkpt>
      <trkpt lat="45.30039" lon="4.52751">
        <ele>802.25</ele>
        <time>2020-09-19T12:48:50.998Z</time>
      </trkpt>
      <trkpt lat="45.3003" lon="4.52762">
        <ele>800.69</ele>
        <time>2020-09-19T12:49:00.245Z</time>
      </trkpt>
      <trkpt lat="45.30022" lon="4.52785">
        <ele>799.11</ele>
        <time>2020-09-19T12:49:09.999Z</time>
      </trkpt>
      <trkpt lat="45.30007" lon="4.52798">
        <ele>798.25</ele>
        <time>2020-09-19T12:49:19.183Z</time>
      </trkpt>
      <trkpt lat="45.29991" lon="4.52786">
        <ele>796.4</ele>
        <time>2020-09-19T12:49:28.615Z</time>
      </trkpt>
      <trkpt lat="45.29978" lon="4.52779">
        <ele>794.81</ele>
        <time>2020-09-19T12:49:37.999Z</time>
      </trkpt>
      <trkpt lat="45.29965" lon="4.5277">
        <ele>793.2</ele>
        <time>2020-09-19T12:49:47.777Z</time>
      </trkpt>
      <trkpt lat="45.29951" lon="4.52769">
        <ele>791.45</ele>
        <time>2020-09-19T12:49:57.288Z</time>
      </trkpt>
      <trkpt lat="45.29941" lon="4.52772">
        <ele>790.56</ele>
        <time>2020-09-19T12:50:06.999Z</time>
      </trkpt>
      <trkpt lat="45.2993" lon="4.52775">
        <ele>789.73</ele>
        <time>2020-09-19T12:50:16.999Z</time>
      </trkpt>
      <trkpt lat="45.29919" lon="4.52782">
        <ele>789.4</ele>
        <time>2020-09-19T12:50:26.640Z</time>
      </trkpt>
      <trkpt lat="45.29908" lon="4.52793">
        <ele>789.16</ele>
        <time>2020-09-19T12:50:36.999Z</time>
      </trkpt>
      <trkpt lat="45.29894" lon="4.52802">
        <ele>789.19</ele>
        <time>2020-09-19T12:50:46.999Z</time>
      </trkpt>
      <trkpt lat="45.29887" lon="4.52809">
        <ele>788.51</ele>
        <time>2020-09-19T12:50:56.999Z</time>
      </trkpt>
      <trkpt lat="45.29881" lon="4.52822">
        <ele>787.21</ele>
        <time>2020-09-19T12:51:06.281Z</time>
      </trkpt>
      <trkpt lat="45.29879" lon="4.52829">
        <ele>785.91</ele>
        <time>2020-09-19T12:51:15.777Z</time>
      </trkpt>
      <trkpt lat="45.29875" lon="4.52843">
        <ele>785.48</ele>
        <time>2020-09-19T12:51:24.999Z</time>
      </trkpt>
      <trkpt lat="45.29868" lon="4.52866">
        <ele>784.58</ele>
        <time>2020-09-19T12:51:34.498Z</time>
      </trkpt>
      <trkpt lat="45.29864" lon="4.52888">
        <ele>784.39</ele>
        <time>2020-09-19T12:51:45.000Z</time>
      </trkpt>
      <trkpt lat="45.29857" lon="4.52906">
        <ele>784.01</ele>
        <time>2020-09-19T12:51:54.646Z</time>
      </trkpt>
      <trkpt lat="45.29849" lon="4.52923">
        <ele>782.89</ele>
        <time>2020-09-19T12:52:04.087Z</time>
      </trkpt>
      <trkpt lat="45.29845" lon="4.5294">
        <ele>782.33</ele>
        <time>2020-09-19T12:52:15.000Z</time>
      </trkpt>
      <trkpt lat="45.29842" lon="4.52961">
        <ele>781.94</ele>
        <time>2020-09-19T12:52:25.000Z</time>
      </trkpt>
      <trkpt lat="45.29835" lon="4.52988">
        <ele>781.73</ele>
        <time>2020-09-19T12:52:34.282Z</time>
      </trkpt>
      <trkpt lat="45.29832" lon="4.53008">
        <ele>781.39</ele>
        <time>2020-09-19T12:52:45.000Z</time>
      </trkpt>
      <trkpt lat="45.29829" lon="4.53024">
        <ele>781.35</ele>
        <time>2020-09-19T12:52:55.000Z</time>
      </trkpt>
      <trkpt lat="45.29825" lon="4.53042">
        <ele>780.91</ele>
        <time>2020-09-19T12:53:05.000Z</time>
      </trkpt>
      <trkpt lat="45.29821" lon="4.53062">
        <ele>779.91</ele>
        <time>2020-09-19T12:53:14.620Z</time>
      </trkpt>
      <trkpt lat="45.29818" lon="4.53081">
        <ele>779.51</ele>
        <time>2020-09-19T12:53:23.659Z</time>
      </trkpt>
      <trkpt lat="45.29808" lon="4.53098">
        <ele>779.5</ele>
        <time>2020-09-19T12:53:33.486Z</time>
      </trkpt>
      <trkpt lat="45.29802" lon="4.53111">
        <ele>779.46</ele>
        <time>2020-09-19T12:53:43.000Z</time>
      </trkpt>
      <trkpt lat="45.29791" lon="4.53127">
        <ele>779.83</ele>
        <time>2020-09-19T12:53:52.663Z</time>
      </trkpt>
      <trkpt lat="45.29786" lon="4.53139">
        <ele>780.4</ele>
        <time>2020-09-19T12:54:02.000Z</time>
      </trkpt>
      <trkpt lat="45.29779" lon="4.53156">
        <ele>780.8</ele>
        <time>2020-09-19T12:54:11.019Z</time>
      </trkpt>
      <trkpt lat="45.29773" lon="4.53169">
        <ele>781.42</ele>
        <time>2020-09-19T12:54:20.700Z</time>
      </trkpt>
      <trkpt lat="45.29768" lon="4.53181">
        <ele>781.38</ele>
        <time>2020-09-19T12:54:30.000Z</time>
      </trkpt>
      <trkpt lat="45.29759" lon="4.53197">
        <ele>781.89</ele>
        <time>2020-09-19T12:54:40.000Z</time>
      </trkpt>
      <trkpt lat="45.29752" lon="4.53212">
        <ele>782.01</ele>
        <time>2020-09-19T12:54:49.808Z</time>
      </trkpt>
      <trkpt lat="45.29749" lon="4.53224">
        <ele>780.2</ele>
        <time>2020-09-19T12:54:59.000Z</time>
      </trkpt>
      <trkpt lat="45.29746" lon="4.53242">
        <ele>778.41</ele>
        <time>2020-09-19T12:55:08.345Z</time>
      </trkpt>
      <trkpt lat="45.29742" lon="4.53257">
        <ele>776.74</ele>
        <time>2020-09-19T12:55:18.000Z</time>
      </trkpt>
      <trkpt lat="45.29736" lon="4.53267">
        <ele>774.96</ele>
        <time>2020-09-19T12:55:28.000Z</time>
      </trkpt>
      <trkpt lat="45.29733" lon="4.53276">
        <ele>772.69</ele>
        <time>2020-09-19T12:55:37.765Z</time>
      </trkpt>
      <trkpt lat="45.2973" lon="4.53283">
        <ele>770.84</ele>
        <time>2020-09-19T12:55:48.000Z</time>
      </trkpt>
      <trkpt lat="45.29726" lon="4.53291">
        <ele>768.24</ele>
        <time>2020-09-19T12:55:57.742Z</time>
      </trkpt>
      <trkpt lat="45.2972" lon="4.53298">
        <ele>766.05</ele>
        <time>2020-09-19T12:56:07.380Z</time>
      </trkpt>
      <trkpt lat="45.29717" lon="4.53301">
        <ele>764.28</ele>
        <time>2020-09-19T12:56:16.724Z</time>
      </trkpt>
      <trkpt lat="45.29714" lon="4.53305">
        <ele>762.92</ele>
        <time>2020-09-19T12:56:26.000Z</time>
      </trkpt>
      <trkpt lat="45.29709" lon="4.53312">
        <ele>760.97</ele>
        <time>2020-09-19T12:56:35.383Z</time>
      </trkpt>
      <trkpt lat="45.29703" lon="4.53316">
        <ele>758.97</ele>
        <time>2020-09-19T12:56:44.542Z</time>
      </trkpt>
      <trkpt lat="45.297" lon="4.53319">
        <ele>756.63</ele>
        <time>2020-09-19T12:56:53.701Z</time>
      </trkpt>
      <trkpt lat="45.29697" lon="4.53324">
        <ele>754.86</ele>
        <time>2020-09-19T12:57:03.000Z</time>
      </trkpt>
      <trkpt lat="45.29691" lon="4.53331">
        <ele>752.76</ele>
        <time>2020-09-19T12:57:12.059Z</time>
      </trkpt>
      <trkpt lat="45.29683" lon="4.53339">
        <ele>750.6</ele>
        <time>2020-09-19T12:57:22.000Z</time>
      </trkpt>
      <trkpt lat="45.29677" lon="4.53347">
        <ele>748.23</ele>
        <time>2020-09-19T12:57:31.517Z</time>
      </trkpt>
      <trkpt lat="45.29671" lon="4.53369">
        <ele>746.46</ele>
        <time>2020-09-19T12:57:42.000Z</time>
      </trkpt>
      <trkpt lat="45.29662" lon="4.53395">
        <ele>744.15</ele>
        <time>2020-09-19T12:57:51.156Z</time>
      </trkpt>
      <trkpt lat="45.29656" lon="4.53421">
        <ele>741.99</ele>
        <time>2020-09-19T12:58:02.000Z</time>
      </trkpt>
      <trkpt lat="45.29651" lon="4.53446">
        <ele>739.24</ele>
        <time>2020-09-19T12:58:11.645Z</time>
      </trkpt>
      <trkpt lat="45.29644" lon="4.53471">
        <ele>737.6</ele>
        <time>2020-09-19T12:58:21.124Z</time>
      </trkpt>
      <trkpt lat="45.29637" lon="4.535">
        <ele>736.24</ele>
        <time>2020-09-19T12:58:30.184Z</time>
      </trkpt>
      <trkpt lat="45.2963" lon="4.53528">
        <ele>734.88</ele>
        <time>2020-09-19T12:58:39.342Z</time>
      </trkpt>
      <trkpt lat="45.2962" lon="4.53552">
        <ele>733.56</ele>
        <time>2020-09-19T12:58:48.383Z</time>
      </trkpt>
      <trkpt lat="45.29612" lon="4.53571">
        <ele>732.43</ele>
        <time>2020-09-19T12:58:58.000Z</time>
      </trkpt>
      <trkpt lat="45.29598" lon="4.53585">
        <ele>731.1</ele>
        <time>2020-09-19T12:59:07.817Z</time>
      </trkpt>
      <trkpt lat="45.29588" lon="4.53595">
        <ele>730.49</ele>
        <time>2020-09-19T12:59:17.000Z</time>
      </trkpt>
      <trkpt lat="45.29574" lon="4.53603">
        <ele>729.32</ele>
        <time>2020-09-19T12:59:26.605Z</time>
      </trkpt>
      <trkpt lat="45.29562" lon="4.536">
        <ele>727.51</ele>
        <time>2020-09-19T12:59:36.385Z</time>
      </trkpt>
      <trkpt lat="45.29552" lon="4.53604">
        <ele>725.15</ele>
        <time>2020-09-19T12:59:47.000Z</time>
      </trkpt>
      <trkpt lat="45.29544" lon="4.53607">
        <ele>722.86</ele>
        <time>2020-09-19T12:59:56.522Z</time>
      </trkpt>
      <trkpt lat="45.29536" lon="4.53609">
        <ele>721.38</ele>
        <time>2020-09-19T13:00:06.000Z</time>
      </trkpt>
      <trkpt lat="45.29527" lon="4.53618">
        <ele>719.54</ele>
        <time>2020-09-19T13:00:16.000Z</time>
      </trkpt>
      <trkpt lat="45.2952" lon="4.53627">
        <ele>718.01</ele>
        <time>2020-09-19T13:00:25.178Z</time>
      </trkpt>
      <trkpt lat="45.29519" lon="4.53632">
        <ele>717.53</ele>
        <time>2020-09-19T13:00:35.000Z</time>
      </trkpt>
      <trkpt lat="45.29515" lon="4.53641">
        <ele>715.8</ele>
        <time>2020-09-19T13:00:45.000Z</time>
      </trkpt>
      <trkpt lat="45.29506" lon="4.53652">
        <ele>713.9</ele>
        <time>2020-09-19T13:00:54.567Z</time>
      </trkpt>
      <trkpt lat="45.29499" lon="4.53656">
        <ele>712.39</ele>
        <time>2020-09-19T13:01:03.666Z</time>
      </trkpt>
      <trkpt lat="45.29494" lon="4.53656">
        <ele>710.55</ele>
        <time>2020-09-19T13:01:13.164Z</time>
      </trkpt>
      <trkpt lat="45.29489" lon="4.53656">
        <ele>708.92</ele>
        <time>2020-09-19T13:01:23.000Z</time>
      </trkpt>
      <trkpt lat="45.29475" lon="4.53658">
        <ele>708.1</ele>
        <time>2020-09-19T13:01:32.304Z</time>
      </trkpt>
      <trkpt lat="45.29468" lon="4.53655">
        <ele>708.42</ele>
        <time>2020-09-19T13:01:41.644Z</time>
      </trkpt>
      <trkpt lat="45.29461" lon="4.53655">
        <ele>707.17</ele>
        <time>2020-09-19T13:01:50.821Z</time>
      </trkpt>
      <trkpt lat="45.29456" lon="4.53656">
        <ele>706.55</ele>
        <time>2020-09-19T13:02:00.000Z</time>
      </trkpt>
      <trkpt lat="45.29448" lon="4.53664">
        <ele>704.82</ele>
        <time>2020-09-19T13:02:09.122Z</time>
      </trkpt>
      <trkpt lat="45.2944" lon="4.53679">
        <ele>703.1</ele>
        <time>2020-09-19T13:02:19.000Z</time>
      </trkpt>
      <trkpt lat="45.2943" lon="4.53702">
        <ele>701.04</ele>
        <time>2020-09-19T13:02:29.000Z</time>
      </trkpt>
      <trkpt lat="45.29421" lon="4.53715">
        <ele>699.03</ele>
        <time>2020-09-19T13:02:39.000Z</time>
      </trkpt>
      <trkpt lat="45.29409" lon="4.53721">
        <ele>696.83</ele>
        <time>2020-09-19T13:02:49.000Z</time>
      </trkpt>
      <trkpt lat="45.29401" lon="4.53734">
        <ele>694.41</ele>
        <time>2020-09-19T13:02:58.999Z</time>
      </trkpt>
      <trkpt lat="45.29393" lon="4.53741">
        <ele>692.29</ele>
        <time>2020-09-19T13:03:08.999Z</time>
      </trkpt>
      <trkpt lat="45.29383" lon="4.53753">
        <ele>689.99</ele>
        <time>2020-09-19T13:03:18.759Z</time>
      </trkpt>
      <trkpt lat="45.29375" lon="4.53764">
        <ele>687.93</ele>
        <time>2020-09-19T13:03:28.039Z</time>
      </trkpt>
      <trkpt lat="45.29369" lon="4.53774">
        <ele>686.02</ele>
        <time>2020-09-19T13:03:37.298Z</time>
      </trkpt>
      <trkpt lat="45.29359" lon="4.53779">
        <ele>683.72</ele>
        <time>2020-09-19T13:03:46.999Z</time>
      </trkpt>
      <trkpt lat="45.29345" lon="4.53787">
        <ele>681.04</ele>
        <time>2020-09-19T13:03:56.497Z</time>
      </trkpt>
      <trkpt lat="45.29344" lon="4.53801">
        <ele>679.65</ele>
        <time>2020-09-19T13:04:05.744Z</time>
      </trkpt>
      <trkpt lat="45.29347" lon="4.5381">
        <ele>678.65</ele>
        <time>2020-09-19T13:04:14.999Z</time>
      </trkpt>
      <trkpt lat="45.29338" lon="4.53826">
        <ele>677.04</ele>
        <time>2020-09-19T13:04:24.266Z</time>
      </trkpt>
      <trkpt lat="45.2933" lon="4.53839">
        <ele>674.6</ele>
        <time>2020-09-19T13:04:33.764Z</time>
      </trkpt>
      <trkpt lat="45.29329" lon="4.53861">
        <ele>672.76</ele>
        <time>2020-09-19T13:04:43.446Z</time>
      </trkpt>
      <trkpt lat="45.2933" lon="4.5388">
        <ele>671.32</ele>
        <time>2020-09-19T13:04:52.784Z</time>
      </trkpt>
      <trkpt lat="45.29329" lon="4.53896">
        <ele>670.21</ele>
        <time>2020-09-19T13:05:01.999Z</time>
      </trkpt>
      <trkpt lat="45.29329" lon="4.5392">
        <ele>668.14</ele>
        <time>2020-09-19T13:05:11.404Z</time>
      </trkpt>
      <trkpt lat="45.29327" lon="4.53936">
        <ele>667</ele>
        <time>2020-09-19T13:05:20.999Z</time>
      </trkpt>
      <trkpt lat="45.29339" lon="4.53941">
        <ele>664.68</ele>
        <time>2020-09-19T13:05:30.999Z</time>
      </trkpt>
      <trkpt lat="45.29351" lon="4.53927">
        <ele>663.13</ele>
        <time>2020-09-19T13:05:40.700Z</time>
      </trkpt>
      <trkpt lat="45.2936" lon="4.53917">
        <ele>661.56</ele>
        <time>2020-09-19T13:05:49.826Z</time>
      </trkpt>
      <trkpt lat="45.29368" lon="4.53909">
        <ele>659.58</ele>
        <time>2020-09-19T13:05:59.345Z</time>
      </trkpt>
      <trkpt lat="45.2938" lon="4.53905">
        <ele>658.09</ele>
        <time>2020-09-19T13:06:08.484Z</time>
      </trkpt>
      <trkpt lat="45.29393" lon="4.53902">
        <ele>656.33</ele>
        <time>2020-09-19T13:06:17.761Z</time>
      </trkpt>
      <trkpt lat="45.29405" lon="4.53898">
        <ele>655.28</ele>
        <time>2020-09-19T13:06:27.999Z</time>
      </trkpt>
      <trkpt lat="45.29419" lon="4.53896">
        <ele>653.7</ele>
        <time>2020-09-19T13:06:37.999Z</time>
      </trkpt>
      <trkpt lat="45.29433" lon="4.53892">
        <ele>651.8</ele>
        <time>2020-09-19T13:06:47.999Z</time>
      </trkpt>
      <trkpt lat="45.29445" lon="4.53888">
        <ele>649.49</ele>
        <time>2020-09-19T13:06:57.160Z</time>
      </trkpt>
      <trkpt lat="45.29458" lon="4.53885">
        <ele>647.8</ele>
        <time>2020-09-19T13:07:06.218Z</time>
      </trkpt>
      <trkpt lat="45.29471" lon="4.5388">
        <ele>645.81</ele>
        <time>2020-09-19T13:07:15.999Z</time>
      </trkpt>
      <trkpt lat="45.29482" lon="4.53873">
        <ele>644.87</ele>
        <time>2020-09-19T13:07:25.568Z</time>
      </trkpt>
      <trkpt lat="45.29487" lon="4.53869">
        <ele>643.93</ele>
        <time>2020-09-19T13:07:35.999Z</time>
      </trkpt>
      <trkpt lat="45.29493" lon="4.53866">
        <ele>643.02</ele>
        <time>2020-09-19T13:07:45.999Z</time>
      </trkpt>
      <trkpt lat="45.2949" lon="4.53864">
        <ele>643.14</ele>
        <time>2020-09-19T13:07:55.999Z</time>
      </trkpt>
      <trkpt lat="45.29489" lon="4.53862">
        <ele>643.07</ele>
        <time>2020-09-19T13:08:06.999Z</time>
      </trkpt>
      <trkpt lat="45.29496" lon="4.53861">
        <ele>641.24</ele>
        <time>2020-09-19T13:08:16.999Z</time>
      </trkpt>
      <trkpt lat="45.29518" lon="4.53869">
        <ele>640.79</ele>
        <time>2020-09-19T13:08:26.203Z</time>
      </trkpt>
      <trkpt lat="45.29535" lon="4.53879">
        <ele>639.62</ele>
        <time>2020-09-19T13:08:35.999Z</time>
      </trkpt>
      <trkpt lat="45.29553" lon="4.5389">
        <ele>639.1</ele>
        <time>2020-09-19T13:08:45.999Z</time>
      </trkpt>
      <trkpt lat="45.29569" lon="4.53895">
        <ele>638.85</ele>
        <time>2020-09-19T13:08:55.320Z</time>
      </trkpt>
      <trkpt lat="45.29584" lon="4.53896">
        <ele>639.96</ele>
        <time>2020-09-19T13:09:05.999Z</time>
      </trkpt>
      <trkpt lat="45.29602" lon="4.53901">
        <ele>638.97</ele>
        <time>2020-09-19T13:09:15.260Z</time>
      </trkpt>
      <trkpt lat="45.29617" lon="4.53905">
        <ele>638.33</ele>
        <time>2020-09-19T13:09:24.486Z</time>
      </trkpt>
      <trkpt lat="45.29628" lon="4.53909">
        <ele>638.05</ele>
        <time>2020-09-19T13:09:34.999Z</time>
      </trkpt>
      <trkpt lat="45.2964" lon="4.53911">
        <ele>637.56</ele>
        <time>2020-09-19T13:09:44.265Z</time>
      </trkpt>
      <trkpt lat="45.29648" lon="4.53915">
        <ele>636.95</ele>
        <time>2020-09-19T13:09:53.999Z</time>
      </trkpt>
      <trkpt lat="45.29659" lon="4.53916">
        <ele>635.75</ele>
        <time>2020-09-19T13:10:03.542Z</time>
      </trkpt>
      <trkpt lat="45.29666" lon="4.53916">
        <ele>635.59</ele>
        <time>2020-09-19T13:10:12.621Z</time>
      </trkpt>
      <trkpt lat="45.29676" lon="4.5391">
        <ele>635.17</ele>
        <time>2020-09-19T13:10:21.999Z</time>
      </trkpt>
      <trkpt lat="45.29689" lon="4.53893">
        <ele>634.63</ele>
        <time>2020-09-19T13:10:31.360Z</time>
      </trkpt>
      <trkpt lat="45.29704" lon="4.53875">
        <ele>635.09</ele>
        <time>2020-09-19T13:10:40.459Z</time>
      </trkpt>
      <trkpt lat="45.29721" lon="4.53854">
        <ele>635.99</ele>
        <time>2020-09-19T13:10:49.660Z</time>
      </trkpt>
      <trkpt lat="45.29734" lon="4.53835">
        <ele>636.06</ele>
        <time>2020-09-19T13:10:58.999Z</time>
      </trkpt>
      <trkpt lat="45.29747" lon="4.53812">
        <ele>636.82</ele>
        <time>2020-09-19T13:11:08.999Z</time>
      </trkpt>
      <trkpt lat="45.29755" lon="4.53795">
        <ele>636.77</ele>
        <time>2020-09-19T13:11:18.999Z</time>
      </trkpt>
      <trkpt lat="45.29761" lon="4.53786">
        <ele>636.76</ele>
        <time>2020-09-19T13:11:28.999Z</time>
      </trkpt>
      <trkpt lat="45.29768" lon="4.53783">
        <ele>634.53</ele>
        <time>2020-09-19T13:11:38.999Z</time>
      </trkpt>
      <trkpt lat="45.29774" lon="4.53783">
        <ele>634.05</ele>
        <time>2020-09-19T13:11:49.999Z</time>
      </trkpt>
      <trkpt lat="45.29786" lon="4.53783">
        <ele>634.01</ele>
        <time>2020-09-19T13:11:59.065Z</time>
      </trkpt>
      <trkpt lat="45.29798" lon="4.53784">
        <ele>633.9</ele>
        <time>2020-09-19T13:12:08.999Z</time>
      </trkpt>
      <trkpt lat="45.29814" lon="4.53779">
        <ele>634.58</ele>
        <time>2020-09-19T13:12:18.999Z</time>
      </trkpt>
      <trkpt lat="45.29828" lon="4.53772">
        <ele>634.32</ele>
        <time>2020-09-19T13:12:28.382Z</time>
      </trkpt>
      <trkpt lat="45.29836" lon="4.53774">
        <ele>634.03</ele>
        <time>2020-09-19T13:12:37.999Z</time>
      </trkpt>
      <trkpt lat="45.29842" lon="4.53773">
        <ele>635.81</ele>
        <time>2020-09-19T13:12:47.657Z</time>
      </trkpt>
      <trkpt lat="45.29849" lon="4.53774">
        <ele>636.35</ele>
        <time>2020-09-19T13:12:56.999Z</time>
      </trkpt>
      <trkpt lat="45.29859" lon="4.53784">
        <ele>638.12</ele>
        <time>2020-09-19T13:13:06.505Z</time>
      </trkpt>
      <trkpt lat="45.29866" lon="4.53792">
        <ele>639.25</ele>
        <time>2020-09-19T13:13:15.561Z</time>
      </trkpt>
      <trkpt lat="45.29875" lon="4.53798">
        <ele>641.29</ele>
        <time>2020-09-19T13:13:24.999Z</time>
      </trkpt>
      <trkpt lat="45.29888" lon="4.538">
        <ele>643.44</ele>
        <time>2020-09-19T13:13:34.999Z</time>
      </trkpt>
      <trkpt lat="45.29894" lon="4.53804">
        <ele>645.84</ele>
        <time>2020-09-19T13:13:44.365Z</time>
      </trkpt>
      <trkpt lat="45.29899" lon="4.53809">
        <ele>647.74</ele>
        <time>2020-09-19T13:13:53.781Z</time>
      </trkpt>
      <trkpt lat="45.299" lon="4.53825">
        <ele>649.61</ele>
        <time>2020-09-19T13:14:02.828Z</time>
      </trkpt>
      <trkpt lat="45.29903" lon="4.53839">
        <ele>650.9</ele>
        <time>2020-09-19T13:14:13.000Z</time>
      </trkpt>
      <trkpt lat="45.29909" lon="4.53852">
        <ele>652.3</ele>
        <time>2020-09-19T13:14:23.000Z</time>
      </trkpt>
      <trkpt lat="45.29917" lon="4.53868">
        <ele>654.36</ele>
        <time>2020-09-19T13:14:32.843Z</time>
      </trkpt>
      <trkpt lat="45.2992" lon="4.53879">
        <ele>655.59</ele>
        <time>2020-09-19T13:14:42.000Z</time>
      </trkpt>
      <trkpt lat="45.29924" lon="4.53889">
        <ele>657.71</ele>
        <time>2020-09-19T13:14:51.285Z</time>
      </trkpt>
      <trkpt lat="45.29928" lon="4.539">
        <ele>658.94</ele>
        <time>2020-09-19T13:15:01.000Z</time>
      </trkpt>
      <trkpt lat="45.29933" lon="4.53913">
        <ele>660.77</ele>
        <time>2020-09-19T13:15:11.000Z</time>
      </trkpt>
      <trkpt lat="45.29937" lon="4.53929">
        <ele>662.1</ele>
        <time>2020-09-19T13:15:20.303Z</time>
      </trkpt>
      <trkpt lat="45.29938" lon="4.53939">
        <ele>663.08</ele>
        <time>2020-09-19T13:15:30.000Z</time>
      </trkpt>
      <trkpt lat="45.29943" lon="4.53947">
        <ele>663.87</ele>
        <time>2020-09-19T13:15:40.000Z</time>
      </trkpt>
      <trkpt lat="45.29946" lon="4.53961">
        <ele>664.96</ele>
        <time>2020-09-19T13:15:49.099Z</time>
      </trkpt>
      <trkpt lat="45.29952" lon="4.53977">
        <ele>664.21</ele>
        <time>2020-09-19T13:15:58.667Z</time>
      </trkpt>
      <trkpt lat="45.29965" lon="4.53987">
        <ele>663.96</ele>
        <time>2020-09-19T13:16:08.124Z</time>
      </trkpt>
      <trkpt lat="45.29977" lon="4.53995">
        <ele>664.28</ele>
        <time>2020-09-19T13:16:18.000Z</time>
      </trkpt>
      <trkpt lat="45.29989" lon="4.53995">
        <ele>664.51</ele>
        <time>2020-09-19T13:16:27.143Z</time>
      </trkpt>
      <trkpt lat="45.3" lon="4.53986">
        <ele>664.39</ele>
        <time>2020-09-19T13:16:37.000Z</time>
      </trkpt>
      <trkpt lat="45.30013" lon="4.5397">
        <ele>664.72</ele>
        <time>2020-09-19T13:16:46.461Z</time>
      </trkpt>
      <trkpt lat="45.30023" lon="4.53958">
        <ele>665.44</ele>
        <time>2020-09-19T13:16:56.000Z</time>
      </trkpt>
      <trkpt lat="45.30035" lon="4.53953">
        <ele>664.95</ele>
        <time>2020-09-19T13:17:05.360Z</time>
      </trkpt>
      <trkpt lat="45.30043" lon="4.53953">
        <ele>665</ele>
        <time>2020-09-19T13:17:15.000Z</time>
      </trkpt>
      <trkpt lat="45.30052" lon="4.5395">
        <ele>666.35</ele>
        <time>2020-09-19T13:17:25.000Z</time>
      </trkpt>
      <trkpt lat="45.30065" lon="4.53949">
        <ele>667.02</ele>
        <time>2020-09-19T13:17:34.229Z</time>
      </trkpt>
      <trkpt lat="45.30076" lon="4.53952">
        <ele>666.5</ele>
        <time>2020-09-19T13:17:43.446Z</time>
      </trkpt>
      <trkpt lat="45.30086" lon="4.5396">
        <ele>667.07</ele>
        <time>2020-09-19T13:17:53.000Z</time>
      </trkpt>
      <trkpt lat="45.30097" lon="4.53964">
        <ele>667.11</ele>
        <time>2020-09-19T13:18:02.862Z</time>
      </trkpt>
      <trkpt lat="45.30107" lon="4.5397">
        <ele>667.36</ele>
        <time>2020-09-19T13:18:12.000Z</time>
      </trkpt>
      <trkpt lat="45.30124" lon="4.53977">
        <ele>668</ele>
        <time>2020-09-19T13:18:21.725Z</time>
      </trkpt>
      <trkpt lat="45.30136" lon="4.5398">
        <ele>668.89</ele>
        <time>2020-09-19T13:18:31.000Z</time>
      </trkpt>
      <trkpt lat="45.30153" lon="4.53978">
        <ele>670.27</ele>
        <time>2020-09-19T13:18:40.661Z</time>
      </trkpt>
      <trkpt lat="45.30166" lon="4.53975">
        <ele>670.31</ele>
        <time>2020-09-19T13:18:49.690Z</time>
      </trkpt>
      <trkpt lat="45.30177" lon="4.53976">
        <ele>669.99</ele>
        <time>2020-09-19T13:18:58.799Z</time>
      </trkpt>
      <trkpt lat="45.30187" lon="4.53973">
        <ele>670.29</ele>
        <time>2020-09-19T13:19:08.366Z</time>
      </trkpt>
      <trkpt lat="45.30203" lon="4.5396">
        <ele>671.16</ele>
        <time>2020-09-19T13:19:19.000Z</time>
      </trkpt>
      <trkpt lat="45.30214" lon="4.53949">
        <ele>673.35</ele>
        <time>2020-09-19T13:19:28.366Z</time>
      </trkpt>
      <trkpt lat="45.30221" lon="4.53942">
        <ele>675.23</ele>
        <time>2020-09-19T13:19:38.000Z</time>
      </trkpt>
      <trkpt lat="45.30233" lon="4.53937">
        <ele>677.18</ele>
        <time>2020-09-19T13:19:47.342Z</time>
      </trkpt>
      <trkpt lat="45.30241" lon="4.53933">
        <ele>678.05</ele>
        <time>2020-09-19T13:19:56.500Z</time>
      </trkpt>
      <trkpt lat="45.30251" lon="4.53925">
        <ele>678.57</ele>
        <time>2020-09-19T13:20:05.918Z</time>
      </trkpt>
      <trkpt lat="45.30264" lon="4.53912">
        <ele>679.1</ele>
        <time>2020-09-19T13:20:14.938Z</time>
      </trkpt>
      <trkpt lat="45.30274" lon="4.539">
        <ele>680.13</ele>
        <time>2020-09-19T13:20:24.678Z</time>
      </trkpt>
      <trkpt lat="45.30281" lon="4.53895">
        <ele>681.79</ele>
        <time>2020-09-19T13:20:34.007Z</time>
      </trkpt>
      <trkpt lat="45.30287" lon="4.53891">
        <ele>683.06</ele>
        <time>2020-09-19T13:20:44.000Z</time>
      </trkpt>
      <trkpt lat="45.30296" lon="4.5389">
        <ele>684.71</ele>
        <time>2020-09-19T13:20:54.000Z</time>
      </trkpt>
      <trkpt lat="45.30304" lon="4.53892">
        <ele>685.14</ele>
        <time>2020-09-19T13:21:04.000Z</time>
      </trkpt>
      <trkpt lat="45.30306" lon="4.53893">
        <ele>685.06</ele>
        <time>2020-09-19T13:21:14.000Z</time>
      </trkpt>
      <trkpt lat="45.30316" lon="4.53889">
        <ele>685.47</ele>
        <time>2020-09-19T13:21:23.104Z</time>
      </trkpt>
      <trkpt lat="45.30321" lon="4.53886">
        <ele>686.28</ele>
        <time>2020-09-19T13:21:33.000Z</time>
      </trkpt>
      <trkpt lat="45.30329" lon="4.53878">
        <ele>686.98</ele>
        <time>2020-09-19T13:21:43.000Z</time>
      </trkpt>
      <trkpt lat="45.30337" lon="4.53881">
        <ele>688.22</ele>
        <time>2020-09-19T13:21:52.100Z</time>
      </trkpt>
      <trkpt lat="45.30343" lon="4.53887">
        <ele>689.75</ele>
        <time>2020-09-19T13:22:02.000Z</time>
      </trkpt>
      <trkpt lat="45.30354" lon="4.53895">
        <ele>691.51</ele>
        <time>2020-09-19T13:22:12.000Z</time>
      </trkpt>
      <trkpt lat="45.3036" lon="4.53914">
        <ele>690.99</ele>
        <time>2020-09-19T13:22:21.319Z</time>
      </trkpt>
      <trkpt lat="45.30363" lon="4.53932">
        <ele>690.12</ele>
        <time>2020-09-19T13:22:30.683Z</time>
      </trkpt>
      <trkpt lat="45.30361" lon="4.53951">
        <ele>689.86</ele>
        <time>2020-09-19T13:22:39.963Z</time>
      </trkpt>
      <trkpt lat="45.3036" lon="4.53963">
        <ele>689.64</ele>
        <time>2020-09-19T13:22:51.000Z</time>
      </trkpt>
      <trkpt lat="45.30365" lon="4.53981">
        <ele>689.34</ele>
        <time>2020-09-19T13:23:00.144Z</time>
      </trkpt>
      <trkpt lat="45.30367" lon="4.53999">
        <ele>689.77</ele>
        <time>2020-09-19T13:23:09.641Z</time>
      </trkpt>
      <trkpt lat="45.30364" lon="4.54016">
        <ele>690.75</ele>
        <time>2020-09-19T13:23:19.000Z</time>
      </trkpt>
      <trkpt lat="45.30362" lon="4.54035">
        <ele>690.89</ele>
        <time>2020-09-19T13:23:28.361Z</time>
      </trkpt>
      <trkpt lat="45.3036" lon="4.54049">
        <ele>691.01</ele>
        <time>2020-09-19T13:23:38.000Z</time>
      </trkpt>
      <trkpt lat="45.3036" lon="4.54066">
        <ele>690.74</ele>
        <time>2020-09-19T13:23:48.000Z</time>
      </trkpt>
      <trkpt lat="45.3036" lon="4.54076">
        <ele>691.02</ele>
        <time>2020-09-19T13:23:58.000Z</time>
      </trkpt>
      <trkpt lat="45.30361" lon="4.54074">
        <ele>690.72</ele>
        <time>2020-09-19T13:24:15.000Z</time>
      </trkpt>
      <trkpt lat="45.3036" lon="4.5407">
        <ele>690.47</ele>
        <time>2020-09-19T13:24:26.000Z</time>
      </trkpt>
      <trkpt lat="45.30362" lon="4.54068">
        <ele>690.15</ele>
        <time>2020-09-19T13:24:36.000Z</time>
      </trkpt>
      <trkpt lat="45.30364" lon="4.54064">
        <ele>689.85</ele>
        <time>2020-09-19T13:24:46.000Z</time>
      </trkpt>
      <trkpt lat="45.30366" lon="4.54064">
        <ele>688.94</ele>
        <time>2020-09-19T13:25:11.000Z</time>
      </trkpt>
      <trkpt lat="45.30368" lon="4.54065">
        <ele>688.68</ele>
        <time>2020-09-19T13:25:21.000Z</time>
      </trkpt>
      <trkpt lat="45.30367" lon="4.54068">
        <ele>688.91</ele>
        <time>2020-09-19T13:25:39.999Z</time>
      </trkpt>
      <trkpt lat="45.30366" lon="4.54069">
        <ele>688.92</ele>
        <time>2020-09-19T13:25:44.999Z</time>
      </trkpt>
    </trkseg>
  </trk>
</gpx>